<?xml version='1.0' encoding='UTF-8'?><gpx version="1.1" creator="JPX - https://github.com/jenetics/jpx" xmlns="http://www.topografix.com/GPX/1/1"><trk><trkseg><trkpt lat="45.3584443" lon="10.9332104"><ele>44.0</ele><time>2026-04-12T11:58:12.83Z</time></trkpt><trkpt lat="45.3585386" lon="10.933189"><ele>44.0</ele><time>2026-04-12T11:58:24.83Z</time></trkpt><trkpt lat="45.3586351" lon="10.9331402"><ele>44.0</ele><time>2026-04-12T11:58:26.836Z</time></trkpt><trkpt lat="45.3587467" lon="10.9330839"><ele>44.0</ele><time>2026-04-12T11:58:28.836Z</time></trkpt><trkpt lat="45.3588076" lon="10.9330574"><ele>44.0</ele><time>2026-04-12T11:58:29.836Z</time></trkpt><trkpt lat="45.3588974" lon="10.933025"><ele>43.800000000000004</ele><time>2026-04-12T11:58:30.836Z</time></trkpt><trkpt lat="45.3590104" lon="10.9329912"><ele>43.6</ele><time>2026-04-12T11:58:31.836Z</time></trkpt><trkpt lat="45.3591171" lon="10.9329741"><ele>43.4</ele><time>2026-04-12T11:58:32.836Z</time></trkpt><trkpt lat="45.3592116" lon="10.9329573"><ele>43.2</ele><time>2026-04-12T11:58:33.836Z</time></trkpt><trkpt lat="45.3592962" lon="10.9329398"><ele>43.0</ele><time>2026-04-12T11:58:34.836Z</time></trkpt><trkpt lat="45.3593824" lon="10.9329364"><ele>43.0</ele><time>2026-04-12T11:58:35.836Z</time></trkpt><trkpt lat="45.3594566" lon="10.9329452"><ele>43.0</ele><time>2026-04-12T11:58:36.836Z</time></trkpt><trkpt lat="45.3595591" lon="10.932968"><ele>43.0</ele><time>2026-04-12T11:58:38.836Z</time></trkpt><trkpt lat="45.3595888" lon="10.9328867"><ele>43.0</ele><time>2026-04-12T11:58:46.836Z</time></trkpt><trkpt lat="45.3595169" lon="10.9328676"><ele>43.0</ele><time>2026-04-12T11:58:48.836Z</time></trkpt><trkpt lat="45.3594012" lon="10.9328963"><ele>43.0</ele><time>2026-04-12T11:58:50.836Z</time></trkpt><trkpt lat="45.3593243" lon="10.9329179"><ele>43.0</ele><time>2026-04-12T11:58:51.836Z</time></trkpt><trkpt lat="45.3592333" lon="10.932951"><ele>43.0</ele><time>2026-04-12T11:58:52.836Z</time></trkpt><trkpt lat="45.3591415" lon="10.9329885"><ele>43.0</ele><time>2026-04-12T11:58:53.836Z</time></trkpt><trkpt lat="45.3590451" lon="10.9330282"><ele>43.0</ele><time>2026-04-12T11:58:54.836Z</time></trkpt><trkpt lat="45.3589428" lon="10.9330735"><ele>43.0</ele><time>2026-04-12T11:58:55.836Z</time></trkpt><trkpt lat="45.3588367" lon="10.9331263"><ele>43.25</ele><time>2026-04-12T11:58:56.836Z</time></trkpt><trkpt lat="45.3587289" lon="10.9331859"><ele>43.5</ele><time>2026-04-12T11:58:57.836Z</time></trkpt><trkpt lat="45.3586208" lon="10.9332457"><ele>43.75</ele><time>2026-04-12T11:58:58.836Z</time></trkpt><trkpt lat="45.3585142" lon="10.9333035"><ele>44.0</ele><time>2026-04-12T11:58:59.836Z</time></trkpt><trkpt lat="45.3584134" lon="10.9333579"><ele>44.0</ele><time>2026-04-12T11:59:00.836Z</time></trkpt><trkpt lat="45.3583133" lon="10.9334113"><ele>44.0</ele><time>2026-04-12T11:59:01.836Z</time></trkpt><trkpt lat="45.3582134" lon="10.9334605"><ele>44.0</ele><time>2026-04-12T11:59:02.836Z</time></trkpt><trkpt lat="45.3581215" lon="10.9335083"><ele>44.0</ele><time>2026-04-12T11:59:03.836Z</time></trkpt><trkpt lat="45.35804" lon="10.933555"><ele>44.0</ele><time>2026-04-12T11:59:04.836Z</time></trkpt><trkpt lat="45.3579017" lon="10.93362"><ele>44.0</ele><time>2026-04-12T11:59:06.836Z</time></trkpt><trkpt lat="45.35782" lon="10.9336767"><ele>44.0</ele><time>2026-04-12T11:59:08.836Z</time></trkpt><trkpt lat="45.3577983" lon="10.9338117"><ele>44.0</ele><time>2026-04-12T11:59:16.836Z</time></trkpt><trkpt lat="45.3578083" lon="10.9339533"><ele>44.0</ele><time>2026-04-12T11:59:18.836Z</time></trkpt><trkpt lat="45.3578033" lon="10.9340433"><ele>44.0</ele><time>2026-04-12T11:59:19.836Z</time></trkpt><trkpt lat="45.3578117" lon="10.9341483"><ele>44.0</ele><time>2026-04-12T11:59:20.836Z</time></trkpt><trkpt lat="45.3578317" lon="10.934265"><ele>44.142857142857146</ele><time>2026-04-12T11:59:21.836Z</time></trkpt><trkpt lat="45.357845" lon="10.9343783"><ele>44.285714285714285</ele><time>2026-04-12T11:59:22.836Z</time></trkpt><trkpt lat="45.35785" lon="10.9344933"><ele>44.42857142857143</ele><time>2026-04-12T11:59:23.836Z</time></trkpt><trkpt lat="45.3578617" lon="10.9346"><ele>44.57142857142857</ele><time>2026-04-12T11:59:24.836Z</time></trkpt><trkpt lat="45.357875" lon="10.9347033"><ele>44.714285714285715</ele><time>2026-04-12T11:59:25.836Z</time></trkpt><trkpt lat="45.35788" lon="10.9348017"><ele>44.857142857142854</ele><time>2026-04-12T11:59:26.836Z</time></trkpt><trkpt lat="45.35787" lon="10.9348933"><ele>45.0</ele><time>2026-04-12T11:59:27.836Z</time></trkpt><trkpt lat="45.3578467" lon="10.93498"><ele>44.8</ele><time>2026-04-12T11:59:28.836Z</time></trkpt><trkpt lat="45.3577717" lon="10.9351233"><ele>44.6</ele><time>2026-04-12T11:59:30.836Z</time></trkpt><trkpt lat="45.3577217" lon="10.9351783"><ele>44.400000000000006</ele><time>2026-04-12T11:59:31.836Z</time></trkpt><trkpt lat="45.357625" lon="10.9352617"><ele>44.2</ele><time>2026-04-12T11:59:33.836Z</time></trkpt><trkpt lat="45.3575633" lon="10.9353667"><ele>44.0</ele><time>2026-04-12T11:59:35.836Z</time></trkpt><trkpt lat="45.3575583" lon="10.9355033"><ele>44.0</ele><time>2026-04-12T11:59:37.836Z</time></trkpt><trkpt lat="45.3575867" lon="10.93569"><ele>44.0</ele><time>2026-04-12T11:59:39.836Z</time></trkpt><trkpt lat="45.35761" lon="10.9358017"><ele>44.0</ele><time>2026-04-12T11:59:40.836Z</time></trkpt><trkpt lat="45.3576283" lon="10.9359233"><ele>44.0</ele><time>2026-04-12T11:59:41.836Z</time></trkpt><trkpt lat="45.35764" lon="10.9360533"><ele>44.0</ele><time>2026-04-12T11:59:42.836Z</time></trkpt><trkpt lat="45.3576467" lon="10.9361933"><ele>43.800000000000004</ele><time>2026-04-12T11:59:43.836Z</time></trkpt><trkpt lat="45.3576483" lon="10.9363333"><ele>43.6</ele><time>2026-04-12T11:59:44.836Z</time></trkpt><trkpt lat="45.3576433" lon="10.9364833"><ele>43.4</ele><time>2026-04-12T11:59:45.836Z</time></trkpt><trkpt lat="45.3576283" lon="10.93664"><ele>43.2</ele><time>2026-04-12T11:59:46.836Z</time></trkpt><trkpt lat="45.3576133" lon="10.9368233"><ele>43.0</ele><time>2026-04-12T11:59:47.836Z</time></trkpt><trkpt lat="45.357585" lon="10.936975"><ele>43.0</ele><time>2026-04-12T11:59:48.836Z</time></trkpt><trkpt lat="45.3575667" lon="10.9371217"><ele>43.0</ele><time>2026-04-12T11:59:49.836Z</time></trkpt><trkpt lat="45.3575567" lon="10.9372717"><ele>43.0</ele><time>2026-04-12T11:59:50.836Z</time></trkpt><trkpt lat="45.3575417" lon="10.93743"><ele>43.0</ele><time>2026-04-12T11:59:51.836Z</time></trkpt><trkpt lat="45.3575267" lon="10.9375967"><ele>43.0</ele><time>2026-04-12T11:59:52.836Z</time></trkpt><trkpt lat="45.3575133" lon="10.937765"><ele>42.75</ele><time>2026-04-12T11:59:53.836Z</time></trkpt><trkpt lat="45.3574967" lon="10.9379367"><ele>42.5</ele><time>2026-04-12T11:59:54.836Z</time></trkpt><trkpt lat="45.3574783" lon="10.9381083"><ele>42.25</ele><time>2026-04-12T11:59:55.836Z</time></trkpt><trkpt lat="45.3574633" lon="10.938285"><ele>42.0</ele><time>2026-04-12T11:59:56.836Z</time></trkpt><trkpt lat="45.3574467" lon="10.9384633"><ele>42.0</ele><time>2026-04-12T11:59:57.836Z</time></trkpt><trkpt lat="45.35743" lon="10.9386383"><ele>42.0</ele><time>2026-04-12T11:59:58.836Z</time></trkpt><trkpt lat="45.3574183" lon="10.9388083"><ele>42.0</ele><time>2026-04-12T11:59:59.836Z</time></trkpt><trkpt lat="45.3574083" lon="10.9389733"><ele>42.0</ele><time>2026-04-12T12:00:00.836Z</time></trkpt><trkpt lat="45.3573983" lon="10.9391283"><ele>42.0</ele><time>2026-04-12T12:00:01.836Z</time></trkpt><trkpt lat="45.3573867" lon="10.9392817"><ele>42.0</ele><time>2026-04-12T12:00:02.836Z</time></trkpt><trkpt lat="45.357375" lon="10.9394333"><ele>42.0</ele><time>2026-04-12T12:00:03.836Z</time></trkpt><trkpt lat="45.3573617" lon="10.9395783"><ele>42.0</ele><time>2026-04-12T12:00:04.836Z</time></trkpt><trkpt lat="45.3573533" lon="10.9397233"><ele>42.0</ele><time>2026-04-12T12:00:05.836Z</time></trkpt><trkpt lat="45.357345" lon="10.9398683"><ele>42.0</ele><time>2026-04-12T12:00:06.836Z</time></trkpt><trkpt lat="45.357335" lon="10.9400133"><ele>42.0</ele><time>2026-04-12T12:00:07.836Z</time></trkpt><trkpt lat="45.3573183" lon="10.9401683"><ele>42.0</ele><time>2026-04-12T12:00:08.836Z</time></trkpt><trkpt lat="45.3572883" lon="10.9403267"><ele>42.0</ele><time>2026-04-12T12:00:09.836Z</time></trkpt><trkpt lat="45.3572717" lon="10.9404933"><ele>42.0</ele><time>2026-04-12T12:00:10.836Z</time></trkpt><trkpt lat="45.3572417" lon="10.94066"><ele>42.0</ele><time>2026-04-12T12:00:11.836Z</time></trkpt><trkpt lat="45.35722" lon="10.94082"><ele>42.0</ele><time>2026-04-12T12:00:12.836Z</time></trkpt><trkpt lat="45.3572017" lon="10.94099"><ele>42.0</ele><time>2026-04-12T12:00:13.836Z</time></trkpt><trkpt lat="45.357185" lon="10.9411583"><ele>42.0</ele><time>2026-04-12T12:00:14.836Z</time></trkpt><trkpt lat="45.35717" lon="10.94134"><ele>42.25</ele><time>2026-04-12T12:00:15.836Z</time></trkpt><trkpt lat="45.3571633" lon="10.941515"><ele>42.5</ele><time>2026-04-12T12:00:16.836Z</time></trkpt><trkpt lat="45.357145" lon="10.9416933"><ele>42.75</ele><time>2026-04-12T12:00:17.835Z</time></trkpt><trkpt lat="45.3571317" lon="10.9418667"><ele>43.0</ele><time>2026-04-12T12:00:18.836Z</time></trkpt><trkpt lat="45.3571217" lon="10.9420267"><ele>43.0</ele><time>2026-04-12T12:00:19.836Z</time></trkpt><trkpt lat="45.357105" lon="10.9421917"><ele>43.0</ele><time>2026-04-12T12:00:20.836Z</time></trkpt><trkpt lat="45.3570917" lon="10.942355"><ele>43.0</ele><time>2026-04-12T12:00:21.836Z</time></trkpt><trkpt lat="45.3570867" lon="10.9425183"><ele>43.0</ele><time>2026-04-12T12:00:22.836Z</time></trkpt><trkpt lat="45.35708" lon="10.94268"><ele>43.0</ele><time>2026-04-12T12:00:23.836Z</time></trkpt><trkpt lat="45.3570717" lon="10.9428417"><ele>43.0</ele><time>2026-04-12T12:00:24.836Z</time></trkpt><trkpt lat="45.3570617" lon="10.943005"><ele>43.0</ele><time>2026-04-12T12:00:25.836Z</time></trkpt><trkpt lat="45.35705" lon="10.9431667"><ele>43.0</ele><time>2026-04-12T12:00:26.836Z</time></trkpt><trkpt lat="45.3570367" lon="10.943335"><ele>43.0</ele><time>2026-04-12T12:00:27.836Z</time></trkpt><trkpt lat="45.3570283" lon="10.9435"><ele>43.0</ele><time>2026-04-12T12:00:28.836Z</time></trkpt><trkpt lat="45.3570183" lon="10.9436633"><ele>43.0</ele><time>2026-04-12T12:00:29.836Z</time></trkpt><trkpt lat="45.357005" lon="10.9438267"><ele>43.0</ele><time>2026-04-12T12:00:30.836Z</time></trkpt><trkpt lat="45.356995" lon="10.9439883"><ele>43.0</ele><time>2026-04-12T12:00:31.836Z</time></trkpt><trkpt lat="45.356985" lon="10.94415"><ele>43.0</ele><time>2026-04-12T12:00:32.836Z</time></trkpt><trkpt lat="45.35697" lon="10.9443067"><ele>43.0</ele><time>2026-04-12T12:00:33.836Z</time></trkpt><trkpt lat="45.3569583" lon="10.9444633"><ele>43.0</ele><time>2026-04-12T12:00:34.836Z</time></trkpt><trkpt lat="45.35694" lon="10.9446283"><ele>42.8</ele><time>2026-04-12T12:00:35.836Z</time></trkpt><trkpt lat="45.3569217" lon="10.944795"><ele>42.599999999999994</ele><time>2026-04-12T12:00:36.836Z</time></trkpt><trkpt lat="45.3569083" lon="10.9449583"><ele>42.400000000000006</ele><time>2026-04-12T12:00:37.836Z</time></trkpt><trkpt lat="45.3568933" lon="10.9451133"><ele>42.2</ele><time>2026-04-12T12:00:38.836Z</time></trkpt><trkpt lat="45.3568833" lon="10.9452567"><ele>42.0</ele><time>2026-04-12T12:00:39.836Z</time></trkpt><trkpt lat="45.3568683" lon="10.945385"><ele>42.0</ele><time>2026-04-12T12:00:40.836Z</time></trkpt><trkpt lat="45.3568567" lon="10.945495"><ele>42.0</ele><time>2026-04-12T12:00:41.836Z</time></trkpt><trkpt lat="45.35684" lon="10.9456017"><ele>42.0</ele><time>2026-04-12T12:00:42.836Z</time></trkpt><trkpt lat="45.35683" lon="10.9457067"><ele>42.0</ele><time>2026-04-12T12:00:43.836Z</time></trkpt><trkpt lat="45.3568183" lon="10.9458183"><ele>42.0</ele><time>2026-04-12T12:00:44.836Z</time></trkpt><trkpt lat="45.356805" lon="10.9459433"><ele>42.0</ele><time>2026-04-12T12:00:45.836Z</time></trkpt><trkpt lat="45.3567983" lon="10.946075"><ele>42.0</ele><time>2026-04-12T12:00:46.836Z</time></trkpt><trkpt lat="45.3567883" lon="10.9462167"><ele>42.0</ele><time>2026-04-12T12:00:47.836Z</time></trkpt><trkpt lat="45.3567767" lon="10.9463617"><ele>42.0</ele><time>2026-04-12T12:00:48.836Z</time></trkpt><trkpt lat="45.3567733" lon="10.9465"><ele>42.0</ele><time>2026-04-12T12:00:49.836Z</time></trkpt><trkpt lat="45.35677" lon="10.9466467"><ele>42.0</ele><time>2026-04-12T12:00:50.836Z</time></trkpt><trkpt lat="45.35676" lon="10.9468083"><ele>42.0</ele><time>2026-04-12T12:00:51.836Z</time></trkpt><trkpt lat="45.3567467" lon="10.94698"><ele>42.0</ele><time>2026-04-12T12:00:52.836Z</time></trkpt><trkpt lat="45.3567333" lon="10.9471583"><ele>42.0</ele><time>2026-04-12T12:00:53.836Z</time></trkpt><trkpt lat="45.3567233" lon="10.9473383"><ele>42.0</ele><time>2026-04-12T12:00:54.836Z</time></trkpt><trkpt lat="45.3567117" lon="10.9475183"><ele>41.75</ele><time>2026-04-12T12:00:55.836Z</time></trkpt><trkpt lat="45.3566983" lon="10.94769"><ele>41.5</ele><time>2026-04-12T12:00:56.836Z</time></trkpt><trkpt lat="45.3566867" lon="10.9478533"><ele>41.25</ele><time>2026-04-12T12:00:57.836Z</time></trkpt><trkpt lat="45.3566733" lon="10.9480167"><ele>41.0</ele><time>2026-04-12T12:00:58.836Z</time></trkpt><trkpt lat="45.3566617" lon="10.9481767"><ele>41.0</ele><time>2026-04-12T12:00:59.836Z</time></trkpt><trkpt lat="45.35665" lon="10.94834"><ele>41.0</ele><time>2026-04-12T12:01:00.836Z</time></trkpt><trkpt lat="45.3566367" lon="10.948495"><ele>41.0</ele><time>2026-04-12T12:01:01.836Z</time></trkpt><trkpt lat="45.3566217" lon="10.9486533"><ele>41.0</ele><time>2026-04-12T12:01:02.836Z</time></trkpt><trkpt lat="45.3566117" lon="10.948805"><ele>41.0</ele><time>2026-04-12T12:01:03.836Z</time></trkpt><trkpt lat="45.3566" lon="10.948955"><ele>41.0</ele><time>2026-04-12T12:01:04.836Z</time></trkpt><trkpt lat="45.3565883" lon="10.949105"><ele>41.0</ele><time>2026-04-12T12:01:05.836Z</time></trkpt><trkpt lat="45.3565767" lon="10.94925"><ele>41.0</ele><time>2026-04-12T12:01:06.836Z</time></trkpt><trkpt lat="45.3565733" lon="10.9493933"><ele>41.0</ele><time>2026-04-12T12:01:07.836Z</time></trkpt><trkpt lat="45.3565667" lon="10.9495367"><ele>41.0</ele><time>2026-04-12T12:01:08.836Z</time></trkpt><trkpt lat="45.3565533" lon="10.94968"><ele>41.199999999999996</ele><time>2026-04-12T12:01:09.836Z</time></trkpt><trkpt lat="45.3565433" lon="10.9498183"><ele>41.4</ele><time>2026-04-12T12:01:10.836Z</time></trkpt><trkpt lat="45.3565333" lon="10.9499667"><ele>41.6</ele><time>2026-04-12T12:01:11.836Z</time></trkpt><trkpt lat="45.3565233" lon="10.9501217"><ele>41.8</ele><time>2026-04-12T12:01:12.836Z</time></trkpt><trkpt lat="45.3565133" lon="10.9502867"><ele>42.0</ele><time>2026-04-12T12:01:13.836Z</time></trkpt><trkpt lat="45.3564967" lon="10.9506433"><ele>42.0</ele><time>2026-04-12T12:01:15.836Z</time></trkpt><trkpt lat="45.356485" lon="10.95083"><ele>42.0</ele><time>2026-04-12T12:01:16.836Z</time></trkpt><trkpt lat="45.3564733" lon="10.9510233"><ele>42.0</ele><time>2026-04-12T12:01:17.836Z</time></trkpt><trkpt lat="45.3564633" lon="10.9512117"><ele>42.0</ele><time>2026-04-12T12:01:18.836Z</time></trkpt><trkpt lat="45.3564483" lon="10.9513967"><ele>42.25</ele><time>2026-04-12T12:01:19.836Z</time></trkpt><trkpt lat="45.356435" lon="10.9515767"><ele>42.5</ele><time>2026-04-12T12:01:20.836Z</time></trkpt><trkpt lat="45.3564217" lon="10.951755"><ele>42.75</ele><time>2026-04-12T12:01:21.836Z</time></trkpt><trkpt lat="45.3564083" lon="10.9519317"><ele>43.0</ele><time>2026-04-12T12:01:22.836Z</time></trkpt><trkpt lat="45.3563933" lon="10.9521033"><ele>43.0</ele><time>2026-04-12T12:01:23.836Z</time></trkpt><trkpt lat="45.35638" lon="10.952275"><ele>43.0</ele><time>2026-04-12T12:01:24.836Z</time></trkpt><trkpt lat="45.3563667" lon="10.952445"><ele>43.0</ele><time>2026-04-12T12:01:25.836Z</time></trkpt><trkpt lat="45.3563533" lon="10.95261"><ele>43.0</ele><time>2026-04-12T12:01:26.836Z</time></trkpt><trkpt lat="45.3563383" lon="10.9527717"><ele>42.599999999999994</ele><time>2026-04-12T12:01:27.836Z</time></trkpt><trkpt lat="45.3563217" lon="10.9529267"><ele>42.199999999999996</ele><time>2026-04-12T12:01:28.836Z</time></trkpt><trkpt lat="45.3563017" lon="10.9530733"><ele>41.8</ele><time>2026-04-12T12:01:29.836Z</time></trkpt><trkpt lat="45.3562833" lon="10.95321"><ele>41.4</ele><time>2026-04-12T12:01:30.836Z</time></trkpt><trkpt lat="45.356265" lon="10.9533433"><ele>41.0</ele><time>2026-04-12T12:01:31.836Z</time></trkpt><trkpt lat="45.35624" lon="10.9534783"><ele>41.0</ele><time>2026-04-12T12:01:32.836Z</time></trkpt><trkpt lat="45.3562183" lon="10.9536183"><ele>41.0</ele><time>2026-04-12T12:01:33.836Z</time></trkpt><trkpt lat="45.3561933" lon="10.953765"><ele>41.0</ele><time>2026-04-12T12:01:34.836Z</time></trkpt><trkpt lat="45.3561683" lon="10.953915"><ele>41.0</ele><time>2026-04-12T12:01:35.836Z</time></trkpt><trkpt lat="45.356135" lon="10.9540717"><ele>41.0</ele><time>2026-04-12T12:01:36.836Z</time></trkpt><trkpt lat="45.3561083" lon="10.9542283"><ele>41.0</ele><time>2026-04-12T12:01:37.836Z</time></trkpt><trkpt lat="45.3560733" lon="10.9543917"><ele>41.0</ele><time>2026-04-12T12:01:38.836Z</time></trkpt><trkpt lat="45.3560433" lon="10.9545567"><ele>41.0</ele><time>2026-04-12T12:01:39.836Z</time></trkpt><trkpt lat="45.35601" lon="10.95472"><ele>41.0</ele><time>2026-04-12T12:01:40.836Z</time></trkpt><trkpt lat="45.35598" lon="10.95488"><ele>41.0</ele><time>2026-04-12T12:01:41.836Z</time></trkpt><trkpt lat="45.35595" lon="10.95503"><ele>41.0</ele><time>2026-04-12T12:01:42.836Z</time></trkpt><trkpt lat="45.35592" lon="10.9551767"><ele>41.0</ele><time>2026-04-12T12:01:43.836Z</time></trkpt><trkpt lat="45.3558917" lon="10.95532"><ele>41.0</ele><time>2026-04-12T12:01:44.836Z</time></trkpt><trkpt lat="45.3558617" lon="10.955465"><ele>41.0</ele><time>2026-04-12T12:01:45.836Z</time></trkpt><trkpt lat="45.35583" lon="10.95561"><ele>41.166666666666664</ele><time>2026-04-12T12:01:46.836Z</time></trkpt><trkpt lat="45.3558033" lon="10.955745"><ele>41.33333333333333</ele><time>2026-04-12T12:01:47.836Z</time></trkpt><trkpt lat="45.35578" lon="10.955875"><ele>41.5</ele><time>2026-04-12T12:01:48.836Z</time></trkpt><trkpt lat="45.3557617" lon="10.9559933"><ele>41.666666666666664</ele><time>2026-04-12T12:01:49.836Z</time></trkpt><trkpt lat="45.35574" lon="10.9561067"><ele>41.833333333333336</ele><time>2026-04-12T12:01:50.836Z</time></trkpt><trkpt lat="45.3557267" lon="10.956215"><ele>42.0</ele><time>2026-04-12T12:01:51.836Z</time></trkpt><trkpt lat="45.3557167" lon="10.9563133"><ele>42.0</ele><time>2026-04-12T12:01:52.836Z</time></trkpt><trkpt lat="45.35571" lon="10.9564717"><ele>42.0</ele><time>2026-04-12T12:01:54.836Z</time></trkpt><trkpt lat="45.355715" lon="10.956595"><ele>42.0</ele><time>2026-04-12T12:01:56.836Z</time></trkpt><trkpt lat="45.355715" lon="10.9566983"><ele>42.0</ele><time>2026-04-12T12:01:58.836Z</time></trkpt><trkpt lat="45.3557" lon="10.9568083"><ele>42.0</ele><time>2026-04-12T12:02:00.836Z</time></trkpt><trkpt lat="45.355725" lon="10.9569"><ele>42.0</ele><time>2026-04-12T12:02:02.836Z</time></trkpt><trkpt lat="45.3557967" lon="10.956915"><ele>42.0</ele><time>2026-04-12T12:02:04.836Z</time></trkpt><trkpt lat="45.355895" lon="10.9568617"><ele>42.0</ele><time>2026-04-12T12:02:06.836Z</time></trkpt><trkpt lat="45.35596" lon="10.9568467"><ele>42.0</ele><time>2026-04-12T12:02:07.836Z</time></trkpt><trkpt lat="45.3560317" lon="10.9568283"><ele>42.0</ele><time>2026-04-12T12:02:08.836Z</time></trkpt><trkpt lat="45.3561117" lon="10.95681"><ele>42.0</ele><time>2026-04-12T12:02:09.836Z</time></trkpt><trkpt lat="45.3561983" lon="10.9567883"><ele>42.0</ele><time>2026-04-12T12:02:10.836Z</time></trkpt><trkpt lat="45.3562883" lon="10.9567717"><ele>41.8</ele><time>2026-04-12T12:02:11.836Z</time></trkpt><trkpt lat="45.3563817" lon="10.9567567"><ele>41.6</ele><time>2026-04-12T12:02:12.836Z</time></trkpt><trkpt lat="45.356485" lon="10.95674"><ele>41.4</ele><time>2026-04-12T12:02:13.836Z</time></trkpt><trkpt lat="45.35659" lon="10.9567233"><ele>41.199999999999996</ele><time>2026-04-12T12:02:14.836Z</time></trkpt><trkpt lat="45.3567" lon="10.9567067"><ele>41.0</ele><time>2026-04-12T12:02:15.836Z</time></trkpt><trkpt lat="45.356815" lon="10.9566933"><ele>41.0</ele><time>2026-04-12T12:02:16.836Z</time></trkpt><trkpt lat="45.35693" lon="10.9566867"><ele>41.0</ele><time>2026-04-12T12:02:17.836Z</time></trkpt><trkpt lat="45.3570467" lon="10.95668"><ele>41.0</ele><time>2026-04-12T12:02:18.836Z</time></trkpt><trkpt lat="45.357165" lon="10.9566733"><ele>41.0</ele><time>2026-04-12T12:02:19.836Z</time></trkpt><trkpt lat="45.3572817" lon="10.9566733"><ele>41.0</ele><time>2026-04-12T12:02:20.836Z</time></trkpt><trkpt lat="45.3574067" lon="10.9566783"><ele>41.0</ele><time>2026-04-12T12:02:21.836Z</time></trkpt><trkpt lat="45.3575317" lon="10.956685"><ele>41.0</ele><time>2026-04-12T12:02:22.836Z</time></trkpt><trkpt lat="45.3576517" lon="10.95669"><ele>41.0</ele><time>2026-04-12T12:02:23.836Z</time></trkpt><trkpt lat="45.3577633" lon="10.9567033"><ele>41.0</ele><time>2026-04-12T12:02:24.836Z</time></trkpt><trkpt lat="45.3578817" lon="10.9567217"><ele>41.0</ele><time>2026-04-12T12:02:25.836Z</time></trkpt><trkpt lat="45.3580033" lon="10.9567433"><ele>41.0</ele><time>2026-04-12T12:02:26.836Z</time></trkpt><trkpt lat="45.3581267" lon="10.95677"><ele>41.0</ele><time>2026-04-12T12:02:27.836Z</time></trkpt><trkpt lat="45.3582517" lon="10.9567967"><ele>41.5</ele><time>2026-04-12T12:02:28.836Z</time></trkpt><trkpt lat="45.358375" lon="10.956825"><ele>42.0</ele><time>2026-04-12T12:02:29.836Z</time></trkpt><trkpt lat="45.3584983" lon="10.9568517"><ele>42.5</ele><time>2026-04-12T12:02:30.836Z</time></trkpt><trkpt lat="45.3586217" lon="10.9568833"><ele>43.0</ele><time>2026-04-12T12:02:31.836Z</time></trkpt><trkpt lat="45.358745" lon="10.9569133"><ele>43.0</ele><time>2026-04-12T12:02:32.836Z</time></trkpt><trkpt lat="45.3588683" lon="10.956945"><ele>43.0</ele><time>2026-04-12T12:02:33.836Z</time></trkpt><trkpt lat="45.358995" lon="10.9569767"><ele>43.0</ele><time>2026-04-12T12:02:34.836Z</time></trkpt><trkpt lat="45.359125" lon="10.9570083"><ele>43.0</ele><time>2026-04-12T12:02:35.836Z</time></trkpt><trkpt lat="45.3592517" lon="10.9570367"><ele>43.0</ele><time>2026-04-12T12:02:36.836Z</time></trkpt><trkpt lat="45.3593783" lon="10.95707"><ele>43.0</ele><time>2026-04-12T12:02:37.836Z</time></trkpt><trkpt lat="45.359505" lon="10.957105"><ele>43.0</ele><time>2026-04-12T12:02:38.836Z</time></trkpt><trkpt lat="45.3596317" lon="10.957135"><ele>43.0</ele><time>2026-04-12T12:02:39.836Z</time></trkpt><trkpt lat="45.359755" lon="10.9571633"><ele>43.0</ele><time>2026-04-12T12:02:40.836Z</time></trkpt><trkpt lat="45.359885" lon="10.9571933"><ele>43.0</ele><time>2026-04-12T12:02:41.836Z</time></trkpt><trkpt lat="45.3600167" lon="10.9572233"><ele>43.0</ele><time>2026-04-12T12:02:42.836Z</time></trkpt><trkpt lat="45.3601483" lon="10.957255"><ele>43.0</ele><time>2026-04-12T12:02:43.836Z</time></trkpt><trkpt lat="45.360285" lon="10.957295"><ele>43.0</ele><time>2026-04-12T12:02:44.836Z</time></trkpt><trkpt lat="45.3604183" lon="10.95733"><ele>43.0</ele><time>2026-04-12T12:02:45.836Z</time></trkpt><trkpt lat="45.3605467" lon="10.9573667"><ele>43.0</ele><time>2026-04-12T12:02:46.836Z</time></trkpt><trkpt lat="45.36068" lon="10.9574017"><ele>43.0</ele><time>2026-04-12T12:02:47.836Z</time></trkpt><trkpt lat="45.360815" lon="10.9574367"><ele>43.25</ele><time>2026-04-12T12:02:48.836Z</time></trkpt><trkpt lat="45.360945" lon="10.9574767"><ele>43.5</ele><time>2026-04-12T12:02:49.836Z</time></trkpt><trkpt lat="45.3610367" lon="10.9575167"><ele>43.75</ele><time>2026-04-12T12:02:50.836Z</time></trkpt><trkpt lat="45.361165" lon="10.9575417"><ele>44.0</ele><time>2026-04-12T12:02:51.836Z</time></trkpt><trkpt lat="45.36128" lon="10.9575767"><ele>44.0</ele><time>2026-04-12T12:02:52.836Z</time></trkpt><trkpt lat="45.361415" lon="10.9576067"><ele>44.0</ele><time>2026-04-12T12:02:53.836Z</time></trkpt><trkpt lat="45.361535" lon="10.9576217"><ele>44.0</ele><time>2026-04-12T12:02:54.836Z</time></trkpt><trkpt lat="45.3616517" lon="10.957635"><ele>44.0</ele><time>2026-04-12T12:02:55.836Z</time></trkpt><trkpt lat="45.3617783" lon="10.9576583"><ele>44.0</ele><time>2026-04-12T12:02:56.836Z</time></trkpt><trkpt lat="45.36191" lon="10.9576833"><ele>44.0</ele><time>2026-04-12T12:02:57.836Z</time></trkpt><trkpt lat="45.3620017" lon="10.9577017"><ele>44.0</ele><time>2026-04-12T12:02:58.836Z</time></trkpt><trkpt lat="45.3621283" lon="10.957735"><ele>44.0</ele><time>2026-04-12T12:02:59.836Z</time></trkpt><trkpt lat="45.3622383" lon="10.9577667"><ele>44.0</ele><time>2026-04-12T12:03:00.836Z</time></trkpt><trkpt lat="45.3623617" lon="10.9578"><ele>44.0</ele><time>2026-04-12T12:03:01.836Z</time></trkpt><trkpt lat="45.3624917" lon="10.9578433"><ele>44.0</ele><time>2026-04-12T12:03:02.836Z</time></trkpt><trkpt lat="45.3626217" lon="10.9578983"><ele>44.0</ele><time>2026-04-12T12:03:03.836Z</time></trkpt><trkpt lat="45.3627383" lon="10.9579583"><ele>44.0</ele><time>2026-04-12T12:03:04.836Z</time></trkpt><trkpt lat="45.3628233" lon="10.958015"><ele>44.0</ele><time>2026-04-12T12:03:05.836Z</time></trkpt><trkpt lat="45.3629333" lon="10.958065"><ele>44.0</ele><time>2026-04-12T12:03:06.836Z</time></trkpt><trkpt lat="45.363055" lon="10.9581417"><ele>44.0</ele><time>2026-04-12T12:03:07.836Z</time></trkpt><trkpt lat="45.3631883" lon="10.9582167"><ele>44.25</ele><time>2026-04-12T12:03:08.836Z</time></trkpt><trkpt lat="45.3633317" lon="10.9582883"><ele>44.5</ele><time>2026-04-12T12:03:09.836Z</time></trkpt><trkpt lat="45.3634633" lon="10.9583717"><ele>44.75</ele><time>2026-04-12T12:03:10.836Z</time></trkpt><trkpt lat="45.3635817" lon="10.9584733"><ele>45.0</ele><time>2026-04-12T12:03:11.836Z</time></trkpt><trkpt lat="45.3636917" lon="10.958565"><ele>45.0</ele><time>2026-04-12T12:03:12.836Z</time></trkpt><trkpt lat="45.3638033" lon="10.95866"><ele>45.0</ele><time>2026-04-12T12:03:13.836Z</time></trkpt><trkpt lat="45.36392" lon="10.9587533"><ele>45.0</ele><time>2026-04-12T12:03:14.836Z</time></trkpt><trkpt lat="45.364035" lon="10.95884"><ele>45.0</ele><time>2026-04-12T12:03:15.836Z</time></trkpt><trkpt lat="45.364135" lon="10.95891"><ele>45.0</ele><time>2026-04-12T12:03:16.836Z</time></trkpt><trkpt lat="45.364235" lon="10.9589967"><ele>45.0</ele><time>2026-04-12T12:03:17.836Z</time></trkpt><trkpt lat="45.3643233" lon="10.9590683"><ele>45.0</ele><time>2026-04-12T12:03:18.836Z</time></trkpt><trkpt lat="45.3644233" lon="10.959155"><ele>45.0</ele><time>2026-04-12T12:03:19.836Z</time></trkpt><trkpt lat="45.36453" lon="10.9592633"><ele>45.0</ele><time>2026-04-12T12:03:20.836Z</time></trkpt><trkpt lat="45.364645" lon="10.9593733"><ele>45.0</ele><time>2026-04-12T12:03:21.836Z</time></trkpt><trkpt lat="45.3647533" lon="10.959475"><ele>45.0</ele><time>2026-04-12T12:03:22.836Z</time></trkpt><trkpt lat="45.364865" lon="10.959565"><ele>45.0</ele><time>2026-04-12T12:03:23.836Z</time></trkpt><trkpt lat="45.3649683" lon="10.9596583"><ele>45.25</ele><time>2026-04-12T12:03:24.836Z</time></trkpt><trkpt lat="45.3650733" lon="10.9597583"><ele>45.5</ele><time>2026-04-12T12:03:25.836Z</time></trkpt><trkpt lat="45.365165" lon="10.9598483"><ele>45.75</ele><time>2026-04-12T12:03:26.836Z</time></trkpt><trkpt lat="45.3652667" lon="10.95994"><ele>46.0</ele><time>2026-04-12T12:03:27.836Z</time></trkpt><trkpt lat="45.3653733" lon="10.9600317"><ele>46.0</ele><time>2026-04-12T12:03:28.836Z</time></trkpt><trkpt lat="45.3654833" lon="10.9601217"><ele>46.0</ele><time>2026-04-12T12:03:29.836Z</time></trkpt><trkpt lat="45.365595" lon="10.960215"><ele>46.0</ele><time>2026-04-12T12:03:30.836Z</time></trkpt><trkpt lat="45.36573" lon="10.96032"><ele>46.0</ele><time>2026-04-12T12:03:31.836Z</time></trkpt><trkpt lat="45.3658517" lon="10.9604317"><ele>46.333333333333336</ele><time>2026-04-12T12:03:32.836Z</time></trkpt><trkpt lat="45.3659917" lon="10.9605283"><ele>46.666666666666664</ele><time>2026-04-12T12:03:33.836Z</time></trkpt><trkpt lat="45.3661067" lon="10.9606467"><ele>47.0</ele><time>2026-04-12T12:03:34.836Z</time></trkpt><trkpt lat="45.36624" lon="10.9607583"><ele>46.666666666666664</ele><time>2026-04-12T12:03:35.836Z</time></trkpt><trkpt lat="45.3663717" lon="10.9608717"><ele>46.333333333333336</ele><time>2026-04-12T12:03:36.836Z</time></trkpt><trkpt lat="45.3664967" lon="10.9609867"><ele>46.0</ele><time>2026-04-12T12:03:37.835Z</time></trkpt><trkpt lat="45.3666233" lon="10.9611"><ele>46.0</ele><time>2026-04-12T12:03:38.836Z</time></trkpt><trkpt lat="45.3667433" lon="10.961205"><ele>46.0</ele><time>2026-04-12T12:03:39.836Z</time></trkpt><trkpt lat="45.3668633" lon="10.9613133"><ele>46.0</ele><time>2026-04-12T12:03:40.836Z</time></trkpt><trkpt lat="45.3669783" lon="10.9614133"><ele>46.0</ele><time>2026-04-12T12:03:41.836Z</time></trkpt><trkpt lat="45.3671" lon="10.9615167"><ele>46.0</ele><time>2026-04-12T12:03:42.836Z</time></trkpt><trkpt lat="45.3672017" lon="10.9616117"><ele>46.0</ele><time>2026-04-12T12:03:43.836Z</time></trkpt><trkpt lat="45.3672783" lon="10.9617083"><ele>46.0</ele><time>2026-04-12T12:03:44.836Z</time></trkpt><trkpt lat="45.367345" lon="10.9618117"><ele>46.0</ele><time>2026-04-12T12:03:45.836Z</time></trkpt><trkpt lat="45.367405" lon="10.9619183"><ele>46.0</ele><time>2026-04-12T12:03:46.836Z</time></trkpt><trkpt lat="45.36746" lon="10.96201"><ele>46.0</ele><time>2026-04-12T12:03:47.836Z</time></trkpt><trkpt lat="45.367525" lon="10.96207"><ele>46.0</ele><time>2026-04-12T12:03:48.836Z</time></trkpt><trkpt lat="45.3676083" lon="10.9620917"><ele>46.0</ele><time>2026-04-12T12:03:49.836Z</time></trkpt><trkpt lat="45.367705" lon="10.9621183"><ele>46.0</ele><time>2026-04-12T12:03:50.836Z</time></trkpt><trkpt lat="45.3678033" lon="10.96217"><ele>46.0</ele><time>2026-04-12T12:03:51.835Z</time></trkpt><trkpt lat="45.367915" lon="10.9622517"><ele>46.0</ele><time>2026-04-12T12:03:52.836Z</time></trkpt><trkpt lat="45.368035" lon="10.962355"><ele>46.0</ele><time>2026-04-12T12:03:53.836Z</time></trkpt><trkpt lat="45.3681517" lon="10.9624667"><ele>46.0</ele><time>2026-04-12T12:03:54.836Z</time></trkpt><trkpt lat="45.3682717" lon="10.962575"><ele>46.0</ele><time>2026-04-12T12:03:55.835Z</time></trkpt><trkpt lat="45.3683917" lon="10.962665"><ele>46.0</ele><time>2026-04-12T12:03:56.836Z</time></trkpt><trkpt lat="45.3685217" lon="10.962755"><ele>46.0</ele><time>2026-04-12T12:03:57.836Z</time></trkpt><trkpt lat="45.368655" lon="10.9628317"><ele>46.0</ele><time>2026-04-12T12:03:58.836Z</time></trkpt><trkpt lat="45.3687917" lon="10.9629133"><ele>46.0</ele><time>2026-04-12T12:03:59.836Z</time></trkpt><trkpt lat="45.36892" lon="10.9629767"><ele>46.25</ele><time>2026-04-12T12:04:00.836Z</time></trkpt><trkpt lat="45.3690433" lon="10.9630383"><ele>46.5</ele><time>2026-04-12T12:04:01.836Z</time></trkpt><trkpt lat="45.3691667" lon="10.9631083"><ele>46.75</ele><time>2026-04-12T12:04:02.836Z</time></trkpt><trkpt lat="45.36929" lon="10.963185"><ele>47.0</ele><time>2026-04-12T12:04:03.836Z</time></trkpt><trkpt lat="45.3694217" lon="10.9632567"><ele>47.0</ele><time>2026-04-12T12:04:04.836Z</time></trkpt><trkpt lat="45.36955" lon="10.9633283"><ele>47.0</ele><time>2026-04-12T12:04:05.836Z</time></trkpt><trkpt lat="45.369675" lon="10.9633933"><ele>47.0</ele><time>2026-04-12T12:04:06.836Z</time></trkpt><trkpt lat="45.3698083" lon="10.9634567"><ele>47.0</ele><time>2026-04-12T12:04:07.836Z</time></trkpt><trkpt lat="45.3699433" lon="10.9635233"><ele>46.5</ele><time>2026-04-12T12:04:08.836Z</time></trkpt><trkpt lat="45.3700717" lon="10.96359"><ele>46.0</ele><time>2026-04-12T12:04:09.836Z</time></trkpt><trkpt lat="45.3702017" lon="10.963655"><ele>45.5</ele><time>2026-04-12T12:04:10.836Z</time></trkpt><trkpt lat="45.370335" lon="10.96372"><ele>45.0</ele><time>2026-04-12T12:04:11.836Z</time></trkpt><trkpt lat="45.3704767" lon="10.963785"><ele>44.75</ele><time>2026-04-12T12:04:12.836Z</time></trkpt><trkpt lat="45.3706117" lon="10.9638467"><ele>44.5</ele><time>2026-04-12T12:04:13.836Z</time></trkpt><trkpt lat="45.37075" lon="10.9639133"><ele>44.25</ele><time>2026-04-12T12:04:14.836Z</time></trkpt><trkpt lat="45.370885" lon="10.96398"><ele>44.0</ele><time>2026-04-12T12:04:15.836Z</time></trkpt><trkpt lat="45.3710217" lon="10.9640517"><ele>44.0</ele><time>2026-04-12T12:04:16.836Z</time></trkpt><trkpt lat="45.3711517" lon="10.9641233"><ele>44.0</ele><time>2026-04-12T12:04:17.836Z</time></trkpt><trkpt lat="45.371285" lon="10.9641883"><ele>44.0</ele><time>2026-04-12T12:04:18.836Z</time></trkpt><trkpt lat="45.3714317" lon="10.9642533"><ele>44.0</ele><time>2026-04-12T12:04:19.836Z</time></trkpt><trkpt lat="45.3715767" lon="10.9643233"><ele>45.0</ele><time>2026-04-12T12:04:20.836Z</time></trkpt><trkpt lat="45.3717233" lon="10.9644017"><ele>46.0</ele><time>2026-04-12T12:04:21.836Z</time></trkpt><trkpt lat="45.3718583" lon="10.9644683"><ele>47.0</ele><time>2026-04-12T12:04:22.836Z</time></trkpt><trkpt lat="45.3719983" lon="10.9645367"><ele>48.0</ele><time>2026-04-12T12:04:23.836Z</time></trkpt><trkpt lat="45.372135" lon="10.9646033"><ele>47.75</ele><time>2026-04-12T12:04:24.836Z</time></trkpt><trkpt lat="45.372265" lon="10.9646733"><ele>47.5</ele><time>2026-04-12T12:04:25.836Z</time></trkpt><trkpt lat="45.3723933" lon="10.9647483"><ele>47.25</ele><time>2026-04-12T12:04:26.836Z</time></trkpt><trkpt lat="45.37252" lon="10.9648233"><ele>47.0</ele><time>2026-04-12T12:04:27.836Z</time></trkpt><trkpt lat="45.37265" lon="10.964885"><ele>47.0</ele><time>2026-04-12T12:04:28.836Z</time></trkpt><trkpt lat="45.372785" lon="10.9649483"><ele>47.0</ele><time>2026-04-12T12:04:29.836Z</time></trkpt><trkpt lat="45.3729217" lon="10.9650217"><ele>47.0</ele><time>2026-04-12T12:04:30.836Z</time></trkpt><trkpt lat="45.373045" lon="10.9650833"><ele>47.0</ele><time>2026-04-12T12:04:31.836Z</time></trkpt><trkpt lat="45.3731667" lon="10.965155"><ele>47.0</ele><time>2026-04-12T12:04:32.836Z</time></trkpt><trkpt lat="45.3732983" lon="10.96522"><ele>47.0</ele><time>2026-04-12T12:04:33.836Z</time></trkpt><trkpt lat="45.373435" lon="10.9652867"><ele>47.0</ele><time>2026-04-12T12:04:34.836Z</time></trkpt><trkpt lat="45.3735733" lon="10.96536"><ele>47.0</ele><time>2026-04-12T12:04:35.836Z</time></trkpt><trkpt lat="45.3737133" lon="10.9654367"><ele>47.33333333333333</ele><time>2026-04-12T12:04:36.836Z</time></trkpt><trkpt lat="45.3738633" lon="10.9655033"><ele>47.666666666666664</ele><time>2026-04-12T12:04:37.836Z</time></trkpt><trkpt lat="45.374015" lon="10.965575"><ele>48.0</ele><time>2026-04-12T12:04:38.836Z</time></trkpt><trkpt lat="45.3741617" lon="10.96565"><ele>48.0</ele><time>2026-04-12T12:04:39.836Z</time></trkpt><trkpt lat="45.3743067" lon="10.9657367"><ele>48.0</ele><time>2026-04-12T12:04:40.836Z</time></trkpt><trkpt lat="45.3744517" lon="10.965815"><ele>48.0</ele><time>2026-04-12T12:04:41.836Z</time></trkpt><trkpt lat="45.37459" lon="10.9659"><ele>48.0</ele><time>2026-04-12T12:04:42.836Z</time></trkpt><trkpt lat="45.37473" lon="10.9659817"><ele>48.0</ele><time>2026-04-12T12:04:43.836Z</time></trkpt><trkpt lat="45.3748717" lon="10.9660667"><ele>48.0</ele><time>2026-04-12T12:04:44.836Z</time></trkpt><trkpt lat="45.3750117" lon="10.9661467"><ele>48.0</ele><time>2026-04-12T12:04:45.836Z</time></trkpt><trkpt lat="45.3751483" lon="10.966235"><ele>48.0</ele><time>2026-04-12T12:04:46.836Z</time></trkpt><trkpt lat="45.3752783" lon="10.9663233"><ele>48.0</ele><time>2026-04-12T12:04:47.836Z</time></trkpt><trkpt lat="45.3754033" lon="10.9664033"><ele>48.0</ele><time>2026-04-12T12:04:48.836Z</time></trkpt><trkpt lat="45.3755233" lon="10.9664833"><ele>47.75</ele><time>2026-04-12T12:04:49.836Z</time></trkpt><trkpt lat="45.3756417" lon="10.96656"><ele>47.5</ele><time>2026-04-12T12:04:50.836Z</time></trkpt><trkpt lat="45.37576" lon="10.9666317"><ele>47.25</ele><time>2026-04-12T12:04:51.836Z</time></trkpt><trkpt lat="45.375875" lon="10.9667033"><ele>47.0</ele><time>2026-04-12T12:04:52.836Z</time></trkpt><trkpt lat="45.37599" lon="10.96677"><ele>47.0</ele><time>2026-04-12T12:04:53.836Z</time></trkpt><trkpt lat="45.3760983" lon="10.9668367"><ele>47.0</ele><time>2026-04-12T12:04:54.836Z</time></trkpt><trkpt lat="45.3761967" lon="10.9668933"><ele>47.0</ele><time>2026-04-12T12:04:55.836Z</time></trkpt><trkpt lat="45.376285" lon="10.966945"><ele>47.0</ele><time>2026-04-12T12:04:56.836Z</time></trkpt><trkpt lat="45.3763683" lon="10.9669917"><ele>47.0</ele><time>2026-04-12T12:04:57.836Z</time></trkpt><trkpt lat="45.3764433" lon="10.96705"><ele>47.400000000000006</ele><time>2026-04-12T12:04:58.836Z</time></trkpt><trkpt lat="45.3765267" lon="10.9671167"><ele>47.800000000000004</ele><time>2026-04-12T12:04:59.836Z</time></trkpt><trkpt lat="45.3766167" lon="10.9671833"><ele>48.2</ele><time>2026-04-12T12:05:00.836Z</time></trkpt><trkpt lat="45.3767183" lon="10.9672417"><ele>48.6</ele><time>2026-04-12T12:05:01.836Z</time></trkpt><trkpt lat="45.376835" lon="10.9673067"><ele>49.0</ele><time>2026-04-12T12:05:02.836Z</time></trkpt><trkpt lat="45.3769733" lon="10.9673817"><ele>49.0</ele><time>2026-04-12T12:05:03.836Z</time></trkpt><trkpt lat="45.37711" lon="10.96746"><ele>49.0</ele><time>2026-04-12T12:05:04.836Z</time></trkpt><trkpt lat="45.3772533" lon="10.9675567"><ele>49.0</ele><time>2026-04-12T12:05:05.836Z</time></trkpt><trkpt lat="45.3773917" lon="10.96765"><ele>48.33333333333333</ele><time>2026-04-12T12:05:06.836Z</time></trkpt><trkpt lat="45.3775367" lon="10.9677433"><ele>47.666666666666664</ele><time>2026-04-12T12:05:07.836Z</time></trkpt><trkpt lat="45.3776933" lon="10.96784"><ele>47.0</ele><time>2026-04-12T12:05:08.836Z</time></trkpt><trkpt lat="45.3778517" lon="10.96794"><ele>47.0</ele><time>2026-04-12T12:05:09.836Z</time></trkpt><trkpt lat="45.378005" lon="10.968035"><ele>47.0</ele><time>2026-04-12T12:05:10.836Z</time></trkpt><trkpt lat="45.3781483" lon="10.9681233"><ele>47.0</ele><time>2026-04-12T12:05:11.836Z</time></trkpt><trkpt lat="45.378295" lon="10.968205"><ele>47.666666666666664</ele><time>2026-04-12T12:05:12.836Z</time></trkpt><trkpt lat="45.3784567" lon="10.9682417"><ele>48.33333333333333</ele><time>2026-04-12T12:05:13.836Z</time></trkpt><trkpt lat="45.3786283" lon="10.9682367"><ele>49.0</ele><time>2026-04-12T12:05:14.836Z</time></trkpt><trkpt lat="45.37879" lon="10.9681967"><ele>48.666666666666664</ele><time>2026-04-12T12:05:15.836Z</time></trkpt><trkpt lat="45.378945" lon="10.9681183"><ele>48.33333333333333</ele><time>2026-04-12T12:05:16.836Z</time></trkpt><trkpt lat="45.3791067" lon="10.9680183"><ele>48.0</ele><time>2026-04-12T12:05:17.836Z</time></trkpt><trkpt lat="45.3792717" lon="10.9679183"><ele>48.0</ele><time>2026-04-12T12:05:18.836Z</time></trkpt><trkpt lat="45.37945" lon="10.9678217"><ele>48.0</ele><time>2026-04-12T12:05:19.836Z</time></trkpt><trkpt lat="45.3796267" lon="10.9677317"><ele>48.0</ele><time>2026-04-12T12:05:20.836Z</time></trkpt><trkpt lat="45.379825" lon="10.9676317"><ele>48.0</ele><time>2026-04-12T12:05:21.836Z</time></trkpt><trkpt lat="45.380015" lon="10.9675217"><ele>48.0</ele><time>2026-04-12T12:05:22.836Z</time></trkpt><trkpt lat="45.3802017" lon="10.9674183"><ele>48.0</ele><time>2026-04-12T12:05:23.836Z</time></trkpt><trkpt lat="45.3803833" lon="10.96732"><ele>48.33333333333333</ele><time>2026-04-12T12:05:24.836Z</time></trkpt><trkpt lat="45.3805417" lon="10.96723"><ele>48.666666666666664</ele><time>2026-04-12T12:05:25.836Z</time></trkpt><trkpt lat="45.3806917" lon="10.9671483"><ele>49.0</ele><time>2026-04-12T12:05:26.836Z</time></trkpt><trkpt lat="45.380835" lon="10.9670867"><ele>49.0</ele><time>2026-04-12T12:05:27.836Z</time></trkpt><trkpt lat="45.3809633" lon="10.9670583"><ele>49.0</ele><time>2026-04-12T12:05:28.836Z</time></trkpt><trkpt lat="45.38109" lon="10.9670933"><ele>49.0</ele><time>2026-04-12T12:05:29.836Z</time></trkpt><trkpt lat="45.381215" lon="10.967175"><ele>49.0</ele><time>2026-04-12T12:05:30.835Z</time></trkpt><trkpt lat="45.38133" lon="10.9673033"><ele>49.0</ele><time>2026-04-12T12:05:31.836Z</time></trkpt><trkpt lat="45.3814167" lon="10.9674533"><ele>49.0</ele><time>2026-04-12T12:05:32.836Z</time></trkpt><trkpt lat="45.3815017" lon="10.96764"><ele>49.0</ele><time>2026-04-12T12:05:33.836Z</time></trkpt><trkpt lat="45.38157" lon="10.9678617"><ele>49.0</ele><time>2026-04-12T12:05:34.836Z</time></trkpt><trkpt lat="45.3816283" lon="10.9681117"><ele>49.0</ele><time>2026-04-12T12:05:35.836Z</time></trkpt><trkpt lat="45.3816833" lon="10.9683667"><ele>49.0</ele><time>2026-04-12T12:05:36.836Z</time></trkpt><trkpt lat="45.38174" lon="10.9686283"><ele>49.0</ele><time>2026-04-12T12:05:37.836Z</time></trkpt><trkpt lat="45.3818017" lon="10.9688867"><ele>49.0</ele><time>2026-04-12T12:05:38.836Z</time></trkpt><trkpt lat="45.3818583" lon="10.9691417"><ele>49.0</ele><time>2026-04-12T12:05:39.836Z</time></trkpt><trkpt lat="45.3819117" lon="10.9694"><ele>49.0</ele><time>2026-04-12T12:05:40.836Z</time></trkpt><trkpt lat="45.3819667" lon="10.969645"><ele>49.0</ele><time>2026-04-12T12:05:41.836Z</time></trkpt><trkpt lat="45.3820233" lon="10.96988"><ele>49.0</ele><time>2026-04-12T12:05:42.836Z</time></trkpt><trkpt lat="45.38207" lon="10.9700933"><ele>49.0</ele><time>2026-04-12T12:05:43.835Z</time></trkpt><trkpt lat="45.3821167" lon="10.9702867"><ele>49.0</ele><time>2026-04-12T12:05:44.836Z</time></trkpt><trkpt lat="45.3821783" lon="10.9704483"><ele>49.0</ele><time>2026-04-12T12:05:45.836Z</time></trkpt><trkpt lat="45.3822733" lon="10.97059"><ele>49.0</ele><time>2026-04-12T12:05:46.836Z</time></trkpt><trkpt lat="45.3823867" lon="10.970685"><ele>49.666666666666664</ele><time>2026-04-12T12:05:47.836Z</time></trkpt><trkpt lat="45.38254" lon="10.9707667"><ele>50.33333333333333</ele><time>2026-04-12T12:05:48.836Z</time></trkpt><trkpt lat="45.3827033" lon="10.9708483"><ele>51.0</ele><time>2026-04-12T12:05:49.836Z</time></trkpt><trkpt lat="45.38288" lon="10.9709467"><ele>50.66666666666667</ele><time>2026-04-12T12:05:50.836Z</time></trkpt><trkpt lat="45.3830567" lon="10.9710433"><ele>50.333333333333336</ele><time>2026-04-12T12:05:51.836Z</time></trkpt><trkpt lat="45.3832317" lon="10.9711383"><ele>50.0</ele><time>2026-04-12T12:05:52.836Z</time></trkpt><trkpt lat="45.38341" lon="10.97124"><ele>50.0</ele><time>2026-04-12T12:05:53.836Z</time></trkpt><trkpt lat="45.38359" lon="10.971345"><ele>50.0</ele><time>2026-04-12T12:05:54.836Z</time></trkpt><trkpt lat="45.3837633" lon="10.9714517"><ele>50.0</ele><time>2026-04-12T12:05:55.836Z</time></trkpt><trkpt lat="45.383935" lon="10.9715483"><ele>50.0</ele><time>2026-04-12T12:05:56.836Z</time></trkpt><trkpt lat="45.384105" lon="10.9716367"><ele>50.0</ele><time>2026-04-12T12:05:57.836Z</time></trkpt><trkpt lat="45.38427" lon="10.971735"><ele>50.0</ele><time>2026-04-12T12:05:58.836Z</time></trkpt><trkpt lat="45.3844117" lon="10.971825"><ele>50.0</ele><time>2026-04-12T12:05:59.836Z</time></trkpt><trkpt lat="45.3845417" lon="10.9719067"><ele>50.0</ele><time>2026-04-12T12:06:00.836Z</time></trkpt><trkpt lat="45.38466" lon="10.9719733"><ele>50.0</ele><time>2026-04-12T12:06:01.836Z</time></trkpt><trkpt lat="45.3847733" lon="10.9720233"><ele>50.0</ele><time>2026-04-12T12:06:02.836Z</time></trkpt><trkpt lat="45.38488" lon="10.9720683"><ele>50.0</ele><time>2026-04-12T12:06:03.836Z</time></trkpt><trkpt lat="45.38498" lon="10.9721333"><ele>50.0</ele><time>2026-04-12T12:06:04.836Z</time></trkpt><trkpt lat="45.3850767" lon="10.972215"><ele>50.0</ele><time>2026-04-12T12:06:05.836Z</time></trkpt><trkpt lat="45.3851667" lon="10.972285"><ele>50.0</ele><time>2026-04-12T12:06:06.836Z</time></trkpt><trkpt lat="45.3852683" lon="10.9723317"><ele>50.0</ele><time>2026-04-12T12:06:07.836Z</time></trkpt><trkpt lat="45.385375" lon="10.97238"><ele>50.0</ele><time>2026-04-12T12:06:08.835Z</time></trkpt><trkpt lat="45.3854883" lon="10.972465"><ele>50.0</ele><time>2026-04-12T12:06:09.836Z</time></trkpt><trkpt lat="45.3856033" lon="10.97256"><ele>50.0</ele><time>2026-04-12T12:06:10.836Z</time></trkpt><trkpt lat="45.3857467" lon="10.9726483"><ele>50.0</ele><time>2026-04-12T12:06:11.836Z</time></trkpt><trkpt lat="45.3858867" lon="10.9727383"><ele>50.0</ele><time>2026-04-12T12:06:12.836Z</time></trkpt><trkpt lat="45.3860367" lon="10.9728283"><ele>50.0</ele><time>2026-04-12T12:06:13.836Z</time></trkpt><trkpt lat="45.3862" lon="10.9729267"><ele>50.0</ele><time>2026-04-12T12:06:14.836Z</time></trkpt><trkpt lat="45.386365" lon="10.97302"><ele>49.66666666666667</ele><time>2026-04-12T12:06:15.836Z</time></trkpt><trkpt lat="45.38652" lon="10.9731167"><ele>49.33333333333333</ele><time>2026-04-12T12:06:16.836Z</time></trkpt><trkpt lat="45.3866733" lon="10.9732133"><ele>49.0</ele><time>2026-04-12T12:06:17.836Z</time></trkpt><trkpt lat="45.3868317" lon="10.9733133"><ele>49.33333333333333</ele><time>2026-04-12T12:06:18.836Z</time></trkpt><trkpt lat="45.3869883" lon="10.97341"><ele>49.66666666666667</ele><time>2026-04-12T12:06:19.836Z</time></trkpt><trkpt lat="45.387145" lon="10.973495"><ele>50.0</ele><time>2026-04-12T12:06:20.836Z</time></trkpt><trkpt lat="45.387295" lon="10.9735817"><ele>50.0</ele><time>2026-04-12T12:06:21.836Z</time></trkpt><trkpt lat="45.3874383" lon="10.9736683"><ele>50.0</ele><time>2026-04-12T12:06:22.836Z</time></trkpt><trkpt lat="45.38757" lon="10.9737417"><ele>50.0</ele><time>2026-04-12T12:06:23.836Z</time></trkpt><trkpt lat="45.3876983" lon="10.9737883"><ele>50.0</ele><time>2026-04-12T12:06:24.836Z</time></trkpt><trkpt lat="45.387845" lon="10.9738233"><ele>50.0</ele><time>2026-04-12T12:06:25.836Z</time></trkpt><trkpt lat="45.387985" lon="10.9738333"><ele>50.0</ele><time>2026-04-12T12:06:26.836Z</time></trkpt><trkpt lat="45.388125" lon="10.973865"><ele>50.0</ele><time>2026-04-12T12:06:27.836Z</time></trkpt><trkpt lat="45.3882633" lon="10.973935"><ele>50.0</ele><time>2026-04-12T12:06:28.836Z</time></trkpt><trkpt lat="45.3884117" lon="10.9740233"><ele>50.0</ele><time>2026-04-12T12:06:29.836Z</time></trkpt><trkpt lat="45.3885583" lon="10.974115"><ele>50.0</ele><time>2026-04-12T12:06:30.836Z</time></trkpt><trkpt lat="45.38871" lon="10.9742033"><ele>50.0</ele><time>2026-04-12T12:06:31.836Z</time></trkpt><trkpt lat="45.3888517" lon="10.9742867"><ele>50.0</ele><time>2026-04-12T12:06:32.836Z</time></trkpt><trkpt lat="45.3889817" lon="10.97438"><ele>50.0</ele><time>2026-04-12T12:06:33.836Z</time></trkpt><trkpt lat="45.3891067" lon="10.97449"><ele>50.0</ele><time>2026-04-12T12:06:34.836Z</time></trkpt><trkpt lat="45.3892317" lon="10.9746183"><ele>50.0</ele><time>2026-04-12T12:06:35.836Z</time></trkpt><trkpt lat="45.3893433" lon="10.974735"><ele>50.0</ele><time>2026-04-12T12:06:36.836Z</time></trkpt><trkpt lat="45.389455" lon="10.9748433"><ele>50.0</ele><time>2026-04-12T12:06:37.836Z</time></trkpt><trkpt lat="45.3895683" lon="10.974925"><ele>50.0</ele><time>2026-04-12T12:06:38.836Z</time></trkpt><trkpt lat="45.38967" lon="10.975005"><ele>50.0</ele><time>2026-04-12T12:06:39.836Z</time></trkpt><trkpt lat="45.3897583" lon="10.9750667"><ele>50.0</ele><time>2026-04-12T12:06:40.836Z</time></trkpt><trkpt lat="45.3898517" lon="10.9751283"><ele>50.0</ele><time>2026-04-12T12:06:41.836Z</time></trkpt><trkpt lat="45.38992" lon="10.9752"><ele>50.0</ele><time>2026-04-12T12:06:42.836Z</time></trkpt><trkpt lat="45.389985" lon="10.9752833"><ele>50.0</ele><time>2026-04-12T12:06:43.836Z</time></trkpt><trkpt lat="45.39006" lon="10.9753683"><ele>50.0</ele><time>2026-04-12T12:06:44.836Z</time></trkpt><trkpt lat="45.3901333" lon="10.9754333"><ele>50.0</ele><time>2026-04-12T12:06:45.836Z</time></trkpt><trkpt lat="45.390225" lon="10.9754617"><ele>50.0</ele><time>2026-04-12T12:06:46.836Z</time></trkpt><trkpt lat="45.3903317" lon="10.9754783"><ele>50.0</ele><time>2026-04-12T12:06:47.836Z</time></trkpt><trkpt lat="45.3904433" lon="10.9755033"><ele>50.0</ele><time>2026-04-12T12:06:48.836Z</time></trkpt><trkpt lat="45.3905583" lon="10.9755417"><ele>50.0</ele><time>2026-04-12T12:06:49.836Z</time></trkpt><trkpt lat="45.3906667" lon="10.9755967"><ele>50.25</ele><time>2026-04-12T12:06:50.836Z</time></trkpt><trkpt lat="45.3907767" lon="10.9756633"><ele>50.5</ele><time>2026-04-12T12:06:51.836Z</time></trkpt><trkpt lat="45.3908917" lon="10.9757383"><ele>50.75</ele><time>2026-04-12T12:06:52.836Z</time></trkpt><trkpt lat="45.391005" lon="10.975815"><ele>51.0</ele><time>2026-04-12T12:06:53.836Z</time></trkpt><trkpt lat="45.39112" lon="10.9758967"><ele>51.0</ele><time>2026-04-12T12:06:54.836Z</time></trkpt><trkpt lat="45.3912433" lon="10.97597"><ele>51.0</ele><time>2026-04-12T12:06:55.835Z</time></trkpt><trkpt lat="45.3913667" lon="10.97604"><ele>51.0</ele><time>2026-04-12T12:06:56.836Z</time></trkpt><trkpt lat="45.391495" lon="10.97611"><ele>51.0</ele><time>2026-04-12T12:06:57.836Z</time></trkpt><trkpt lat="45.391625" lon="10.9761783"><ele>50.75</ele><time>2026-04-12T12:06:58.836Z</time></trkpt><trkpt lat="45.3917633" lon="10.9762567"><ele>50.5</ele><time>2026-04-12T12:06:59.836Z</time></trkpt><trkpt lat="45.391895" lon="10.97633"><ele>50.25</ele><time>2026-04-12T12:07:00.836Z</time></trkpt><trkpt lat="45.392025" lon="10.97641"><ele>50.0</ele><time>2026-04-12T12:07:01.835Z</time></trkpt><trkpt lat="45.3921517" lon="10.97649"><ele>50.25</ele><time>2026-04-12T12:07:02.836Z</time></trkpt><trkpt lat="45.3922783" lon="10.976565"><ele>50.5</ele><time>2026-04-12T12:07:03.835Z</time></trkpt><trkpt lat="45.3924" lon="10.97664"><ele>50.75</ele><time>2026-04-12T12:07:04.836Z</time></trkpt><trkpt lat="45.3925267" lon="10.9767233"><ele>51.0</ele><time>2026-04-12T12:07:05.836Z</time></trkpt><trkpt lat="45.3926433" lon="10.9768"><ele>51.0</ele><time>2026-04-12T12:07:06.836Z</time></trkpt><trkpt lat="45.3927567" lon="10.97687"><ele>51.0</ele><time>2026-04-12T12:07:07.836Z</time></trkpt><trkpt lat="45.39287" lon="10.97694"><ele>51.0</ele><time>2026-04-12T12:07:08.836Z</time></trkpt><trkpt lat="45.3929817" lon="10.9770017"><ele>51.0</ele><time>2026-04-12T12:07:09.836Z</time></trkpt><trkpt lat="45.393105" lon="10.9770733"><ele>51.25</ele><time>2026-04-12T12:07:10.836Z</time></trkpt><trkpt lat="45.3932317" lon="10.9771483"><ele>51.5</ele><time>2026-04-12T12:07:11.836Z</time></trkpt><trkpt lat="45.393355" lon="10.9772217"><ele>51.75</ele><time>2026-04-12T12:07:12.836Z</time></trkpt><trkpt lat="45.3934767" lon="10.9772883"><ele>52.0</ele><time>2026-04-12T12:07:13.836Z</time></trkpt><trkpt lat="45.393605" lon="10.9773683"><ele>52.0</ele><time>2026-04-12T12:07:14.836Z</time></trkpt><trkpt lat="45.3937233" lon="10.9774383"><ele>52.0</ele><time>2026-04-12T12:07:15.836Z</time></trkpt><trkpt lat="45.3938483" lon="10.97752"><ele>52.0</ele><time>2026-04-12T12:07:16.836Z</time></trkpt><trkpt lat="45.3939683" lon="10.9775967"><ele>52.0</ele><time>2026-04-12T12:07:17.836Z</time></trkpt><trkpt lat="45.39408" lon="10.9776617"><ele>52.0</ele><time>2026-04-12T12:07:18.836Z</time></trkpt><trkpt lat="45.3941817" lon="10.9777217"><ele>52.0</ele><time>2026-04-12T12:07:19.836Z</time></trkpt><trkpt lat="45.3942667" lon="10.9777717"><ele>52.0</ele><time>2026-04-12T12:07:20.836Z</time></trkpt><trkpt lat="45.3943483" lon="10.9778167"><ele>52.0</ele><time>2026-04-12T12:07:21.836Z</time></trkpt><trkpt lat="45.3944133" lon="10.9778517"><ele>52.0</ele><time>2026-04-12T12:07:22.836Z</time></trkpt><trkpt lat="45.3945083" lon="10.97792"><ele>52.0</ele><time>2026-04-12T12:07:24.836Z</time></trkpt><trkpt lat="45.3945733" lon="10.977955"><ele>52.0</ele><time>2026-04-12T12:07:27.836Z</time></trkpt><trkpt lat="45.3946517" lon="10.9780067"><ele>52.0</ele><time>2026-04-12T12:07:53.836Z</time></trkpt><trkpt lat="45.394745" lon="10.97808"><ele>52.0</ele><time>2026-04-12T12:07:55.836Z</time></trkpt><trkpt lat="45.3947733" lon="10.9781867"><ele>52.0</ele><time>2026-04-12T12:07:57.836Z</time></trkpt><trkpt lat="45.394725" lon="10.9783417"><ele>51.8</ele><time>2026-04-12T12:07:59.836Z</time></trkpt><trkpt lat="45.3946817" lon="10.97846"><ele>51.6</ele><time>2026-04-12T12:08:00.836Z</time></trkpt><trkpt lat="45.3946333" lon="10.9785983"><ele>51.4</ele><time>2026-04-12T12:08:01.836Z</time></trkpt><trkpt lat="45.394585" lon="10.9787317"><ele>51.199999999999996</ele><time>2026-04-12T12:08:02.836Z</time></trkpt><trkpt lat="45.3945567" lon="10.9788333"><ele>51.0</ele><time>2026-04-12T12:08:03.836Z</time></trkpt><trkpt lat="45.39453" lon="10.9789433"><ele>51.199999999999996</ele><time>2026-04-12T12:08:04.836Z</time></trkpt><trkpt lat="45.3945083" lon="10.97904"><ele>51.4</ele><time>2026-04-12T12:08:05.836Z</time></trkpt><trkpt lat="45.3945267" lon="10.9792017"><ele>51.6</ele><time>2026-04-12T12:08:07.836Z</time></trkpt><trkpt lat="45.39464" lon="10.9792467"><ele>51.8</ele><time>2026-04-12T12:08:09.836Z</time></trkpt><trkpt lat="45.394715" lon="10.9792467"><ele>52.0</ele><time>2026-04-12T12:08:10.836Z</time></trkpt><trkpt lat="45.3948117" lon="10.9792567"><ele>52.0</ele><time>2026-04-12T12:08:11.836Z</time></trkpt><trkpt lat="45.3949133" lon="10.97928"><ele>52.0</ele><time>2026-04-12T12:08:12.836Z</time></trkpt><trkpt lat="45.3950167" lon="10.979315"><ele>52.0</ele><time>2026-04-12T12:08:13.836Z</time></trkpt><trkpt lat="45.3951217" lon="10.979375"><ele>52.0</ele><time>2026-04-12T12:08:14.836Z</time></trkpt><trkpt lat="45.3952333" lon="10.9794583"><ele>52.0</ele><time>2026-04-12T12:08:15.836Z</time></trkpt><trkpt lat="45.3953567" lon="10.9795517"><ele>52.0</ele><time>2026-04-12T12:08:16.836Z</time></trkpt><trkpt lat="45.3954883" lon="10.9796517"><ele>52.0</ele><time>2026-04-12T12:08:17.836Z</time></trkpt><trkpt lat="45.3956183" lon="10.9797533"><ele>52.0</ele><time>2026-04-12T12:08:18.836Z</time></trkpt><trkpt lat="45.3957533" lon="10.9798467"><ele>52.0</ele><time>2026-04-12T12:08:19.836Z</time></trkpt><trkpt lat="45.3958917" lon="10.9799383"><ele>51.5</ele><time>2026-04-12T12:08:20.836Z</time></trkpt><trkpt lat="45.3960217" lon="10.9800267"><ele>51.0</ele><time>2026-04-12T12:08:21.836Z</time></trkpt><trkpt lat="45.3961533" lon="10.9801133"><ele>50.5</ele><time>2026-04-12T12:08:22.836Z</time></trkpt><trkpt lat="45.396285" lon="10.9802033"><ele>50.0</ele><time>2026-04-12T12:08:23.836Z</time></trkpt><trkpt lat="45.3964083" lon="10.9803033"><ele>50.0</ele><time>2026-04-12T12:08:24.835Z</time></trkpt><trkpt lat="45.3965117" lon="10.9804267"><ele>50.0</ele><time>2026-04-12T12:08:25.836Z</time></trkpt><trkpt lat="45.3965983" lon="10.9805683"><ele>50.0</ele><time>2026-04-12T12:08:26.836Z</time></trkpt><trkpt lat="45.3966767" lon="10.980735"><ele>50.0</ele><time>2026-04-12T12:08:27.835Z</time></trkpt><trkpt lat="45.3967183" lon="10.9809233"><ele>50.0</ele><time>2026-04-12T12:08:28.836Z</time></trkpt><trkpt lat="45.3967417" lon="10.9811517"><ele>50.0</ele><time>2026-04-12T12:08:29.836Z</time></trkpt><trkpt lat="45.3967633" lon="10.981385"><ele>50.0</ele><time>2026-04-12T12:08:30.835Z</time></trkpt><trkpt lat="45.39678" lon="10.9816317"><ele>50.0</ele><time>2026-04-12T12:08:31.836Z</time></trkpt><trkpt lat="45.3968" lon="10.9818983"><ele>50.0</ele><time>2026-04-12T12:08:32.836Z</time></trkpt><trkpt lat="45.396825" lon="10.9821783"><ele>50.0</ele><time>2026-04-12T12:08:33.836Z</time></trkpt><trkpt lat="45.3968483" lon="10.9824667"><ele>50.66666666666667</ele><time>2026-04-12T12:08:34.836Z</time></trkpt><trkpt lat="45.39687" lon="10.98275"><ele>51.33333333333333</ele><time>2026-04-12T12:08:35.836Z</time></trkpt><trkpt lat="45.3968917" lon="10.983045"><ele>52.0</ele><time>2026-04-12T12:08:36.836Z</time></trkpt><trkpt lat="45.3969167" lon="10.98335"><ele>54.0</ele><time>2026-04-12T12:08:37.836Z</time></trkpt><trkpt lat="45.3969417" lon="10.983665"><ele>56.0</ele><time>2026-04-12T12:08:38.836Z</time></trkpt><trkpt lat="45.39698" lon="10.9839917"><ele>55.0</ele><time>2026-04-12T12:08:39.836Z</time></trkpt><trkpt lat="45.3970167" lon="10.984325"><ele>54.0</ele><time>2026-04-12T12:08:40.836Z</time></trkpt><trkpt lat="45.397055" lon="10.984655"><ele>54.0</ele><time>2026-04-12T12:08:41.836Z</time></trkpt><trkpt lat="45.3970967" lon="10.9850033"><ele>54.0</ele><time>2026-04-12T12:08:42.836Z</time></trkpt><trkpt lat="45.397135" lon="10.9853483"><ele>55.5</ele><time>2026-04-12T12:08:43.836Z</time></trkpt><trkpt lat="45.3971817" lon="10.985705"><ele>57.0</ele><time>2026-04-12T12:08:44.836Z</time></trkpt><trkpt lat="45.3972333" lon="10.98606"><ele>57.0</ele><time>2026-04-12T12:08:45.836Z</time></trkpt><trkpt lat="45.3972683" lon="10.9864283"><ele>57.0</ele><time>2026-04-12T12:08:46.836Z</time></trkpt><trkpt lat="45.3973267" lon="10.9868"><ele>57.0</ele><time>2026-04-12T12:08:47.836Z</time></trkpt><trkpt lat="45.3973767" lon="10.9871733"><ele>57.0</ele><time>2026-04-12T12:08:48.836Z</time></trkpt><trkpt lat="45.39743" lon="10.9875533"><ele>56.5</ele><time>2026-04-12T12:08:49.836Z</time></trkpt><trkpt lat="45.3974867" lon="10.9879333"><ele>56.0</ele><time>2026-04-12T12:08:50.836Z</time></trkpt><trkpt lat="45.39755" lon="10.98831"><ele>55.0</ele><time>2026-04-12T12:08:51.836Z</time></trkpt><trkpt lat="45.3976017" lon="10.9887033"><ele>54.0</ele><time>2026-04-12T12:08:52.836Z</time></trkpt><trkpt lat="45.3976633" lon="10.9890933"><ele>53.0</ele><time>2026-04-12T12:08:53.836Z</time></trkpt><trkpt lat="45.39772" lon="10.9894883"><ele>52.0</ele><time>2026-04-12T12:08:54.836Z</time></trkpt><trkpt lat="45.3977833" lon="10.9898767"><ele>51.5</ele><time>2026-04-12T12:08:55.836Z</time></trkpt><trkpt lat="45.3978483" lon="10.99028"><ele>51.0</ele><time>2026-04-12T12:08:56.836Z</time></trkpt><trkpt lat="45.3979083" lon="10.99068"><ele>51.5</ele><time>2026-04-12T12:08:57.836Z</time></trkpt><trkpt lat="45.3979767" lon="10.9910767"><ele>52.0</ele><time>2026-04-12T12:08:58.836Z</time></trkpt><trkpt lat="45.3980367" lon="10.9914783"><ele>54.0</ele><time>2026-04-12T12:08:59.836Z</time></trkpt><trkpt lat="45.3980733" lon="10.9918917"><ele>56.0</ele><time>2026-04-12T12:09:00.836Z</time></trkpt><trkpt lat="45.39811" lon="10.992295"><ele>55.5</ele><time>2026-04-12T12:09:01.836Z</time></trkpt><trkpt lat="45.39815" lon="10.9927033"><ele>55.0</ele><time>2026-04-12T12:09:02.836Z</time></trkpt><trkpt lat="45.3981883" lon="10.9931117"><ele>55.0</ele><time>2026-04-12T12:09:03.836Z</time></trkpt><trkpt lat="45.3982267" lon="10.9935217"><ele>55.0</ele><time>2026-04-12T12:09:04.836Z</time></trkpt><trkpt lat="45.3982617" lon="10.9939283"><ele>55.0</ele><time>2026-04-12T12:09:05.836Z</time></trkpt><trkpt lat="45.3982983" lon="10.994335"><ele>55.0</ele><time>2026-04-12T12:09:06.836Z</time></trkpt><trkpt lat="45.3983383" lon="10.994745"><ele>55.0</ele><time>2026-04-12T12:09:07.836Z</time></trkpt><trkpt lat="45.398375" lon="10.9951533"><ele>55.0</ele><time>2026-04-12T12:09:08.836Z</time></trkpt><trkpt lat="45.398405" lon="10.995565"><ele>55.0</ele><time>2026-04-12T12:09:09.836Z</time></trkpt><trkpt lat="45.39844" lon="10.99597"><ele>55.0</ele><time>2026-04-12T12:09:10.836Z</time></trkpt><trkpt lat="45.3984683" lon="10.9963833"><ele>53.5</ele><time>2026-04-12T12:09:11.836Z</time></trkpt><trkpt lat="45.3984983" lon="10.996795"><ele>52.0</ele><time>2026-04-12T12:09:12.836Z</time></trkpt><trkpt lat="45.3985283" lon="10.9972117"><ele>50.5</ele><time>2026-04-12T12:09:13.836Z</time></trkpt><trkpt lat="45.39856" lon="10.9976183"><ele>49.0</ele><time>2026-04-12T12:09:14.836Z</time></trkpt><trkpt lat="45.3985833" lon="10.9980383"><ele>49.0</ele><time>2026-04-12T12:09:15.836Z</time></trkpt><trkpt lat="45.39861" lon="10.998455"><ele>49.0</ele><time>2026-04-12T12:09:16.836Z</time></trkpt><trkpt lat="45.3986383" lon="10.9988717"><ele>48.5</ele><time>2026-04-12T12:09:17.836Z</time></trkpt><trkpt lat="45.398665" lon="10.9992733"><ele>48.0</ele><time>2026-04-12T12:09:18.836Z</time></trkpt><trkpt lat="45.3986967" lon="10.9996817"><ele>48.0</ele><time>2026-04-12T12:09:19.836Z</time></trkpt><trkpt lat="45.3987317" lon="11.0000983"><ele>48.0</ele><time>2026-04-12T12:09:20.836Z</time></trkpt><trkpt lat="45.3987717" lon="11.0005117"><ele>47.5</ele><time>2026-04-12T12:09:21.836Z</time></trkpt><trkpt lat="45.3988083" lon="11.00092"><ele>47.0</ele><time>2026-04-12T12:09:22.836Z</time></trkpt><trkpt lat="45.3988367" lon="11.0013317"><ele>49.0</ele><time>2026-04-12T12:09:23.836Z</time></trkpt><trkpt lat="45.3988733" lon="11.00174"><ele>51.0</ele><time>2026-04-12T12:09:24.836Z</time></trkpt><trkpt lat="45.3989183" lon="11.00214"><ele>52.0</ele><time>2026-04-12T12:09:25.836Z</time></trkpt><trkpt lat="45.39896" lon="11.002535"><ele>53.0</ele><time>2026-04-12T12:09:26.836Z</time></trkpt><trkpt lat="45.3990017" lon="11.0029417"><ele>52.0</ele><time>2026-04-12T12:09:27.836Z</time></trkpt><trkpt lat="45.3990433" lon="11.003355"><ele>51.0</ele><time>2026-04-12T12:09:28.836Z</time></trkpt><trkpt lat="45.3990783" lon="11.0037683"><ele>51.5</ele><time>2026-04-12T12:09:29.836Z</time></trkpt><trkpt lat="45.3991167" lon="11.0041717"><ele>52.0</ele><time>2026-04-12T12:09:30.836Z</time></trkpt><trkpt lat="45.3991583" lon="11.004585"><ele>51.5</ele><time>2026-04-12T12:09:31.836Z</time></trkpt><trkpt lat="45.3992" lon="11.0049967"><ele>51.0</ele><time>2026-04-12T12:09:32.836Z</time></trkpt><trkpt lat="45.3992433" lon="11.00541"><ele>51.0</ele><time>2026-04-12T12:09:33.836Z</time></trkpt><trkpt lat="45.3992883" lon="11.0058283"><ele>51.0</ele><time>2026-04-12T12:09:34.836Z</time></trkpt><trkpt lat="45.3993267" lon="11.0062317"><ele>50.0</ele><time>2026-04-12T12:09:35.836Z</time></trkpt><trkpt lat="45.39937" lon="11.00663"><ele>49.0</ele><time>2026-04-12T12:09:36.836Z</time></trkpt><trkpt lat="45.39941" lon="11.0070367"><ele>49.0</ele><time>2026-04-12T12:09:37.836Z</time></trkpt><trkpt lat="45.3994467" lon="11.00744"><ele>49.0</ele><time>2026-04-12T12:09:38.836Z</time></trkpt><trkpt lat="45.3994833" lon="11.0078383"><ele>49.5</ele><time>2026-04-12T12:09:39.836Z</time></trkpt><trkpt lat="45.399525" lon="11.0082567"><ele>50.0</ele><time>2026-04-12T12:09:40.836Z</time></trkpt><trkpt lat="45.39957" lon="11.0086633"><ele>50.0</ele><time>2026-04-12T12:09:41.836Z</time></trkpt><trkpt lat="45.39961" lon="11.00907"><ele>50.0</ele><time>2026-04-12T12:09:42.836Z</time></trkpt><trkpt lat="45.399655" lon="11.0094817"><ele>51.0</ele><time>2026-04-12T12:09:43.836Z</time></trkpt><trkpt lat="45.39969" lon="11.0098883"><ele>52.0</ele><time>2026-04-12T12:09:44.836Z</time></trkpt><trkpt lat="45.399725" lon="11.0102883"><ele>52.5</ele><time>2026-04-12T12:09:45.836Z</time></trkpt><trkpt lat="45.399765" lon="11.0106883"><ele>53.0</ele><time>2026-04-12T12:09:46.836Z</time></trkpt><trkpt lat="45.3998117" lon="11.011085"><ele>53.0</ele><time>2026-04-12T12:09:47.836Z</time></trkpt><trkpt lat="45.3998533" lon="11.0114933"><ele>53.0</ele><time>2026-04-12T12:09:48.836Z</time></trkpt><trkpt lat="45.3998917" lon="11.0118967"><ele>51.5</ele><time>2026-04-12T12:09:49.836Z</time></trkpt><trkpt lat="45.3999233" lon="11.0123067"><ele>50.0</ele><time>2026-04-12T12:09:50.836Z</time></trkpt><trkpt lat="45.399955" lon="11.0127133"><ele>49.0</ele><time>2026-04-12T12:09:51.836Z</time></trkpt><trkpt lat="45.3999967" lon="11.013115"><ele>48.0</ele><time>2026-04-12T12:09:52.836Z</time></trkpt><trkpt lat="45.40003" lon="11.0135183"><ele>48.0</ele><time>2026-04-12T12:09:53.836Z</time></trkpt><trkpt lat="45.4000717" lon="11.0139167"><ele>48.0</ele><time>2026-04-12T12:09:54.836Z</time></trkpt><trkpt lat="45.4001133" lon="11.01432"><ele>48.5</ele><time>2026-04-12T12:09:55.836Z</time></trkpt><trkpt lat="45.400155" lon="11.0147217"><ele>49.0</ele><time>2026-04-12T12:09:56.836Z</time></trkpt><trkpt lat="45.4001983" lon="11.015125"><ele>49.5</ele><time>2026-04-12T12:09:57.836Z</time></trkpt><trkpt lat="45.4002333" lon="11.015535"><ele>50.0</ele><time>2026-04-12T12:09:58.836Z</time></trkpt><trkpt lat="45.400275" lon="11.0159417"><ele>49.5</ele><time>2026-04-12T12:09:59.836Z</time></trkpt><trkpt lat="45.4003167" lon="11.0163433"><ele>49.0</ele><time>2026-04-12T12:10:00.836Z</time></trkpt><trkpt lat="45.400355" lon="11.01675"><ele>49.0</ele><time>2026-04-12T12:10:01.836Z</time></trkpt><trkpt lat="45.4004017" lon="11.017155"><ele>49.0</ele><time>2026-04-12T12:10:02.836Z</time></trkpt><trkpt lat="45.4004517" lon="11.0175633"><ele>48.5</ele><time>2026-04-12T12:10:03.836Z</time></trkpt><trkpt lat="45.4004967" lon="11.017975"><ele>48.0</ele><time>2026-04-12T12:10:04.836Z</time></trkpt><trkpt lat="45.400545" lon="11.01839"><ele>51.0</ele><time>2026-04-12T12:10:05.836Z</time></trkpt><trkpt lat="45.4005867" lon="11.0187867"><ele>54.0</ele><time>2026-04-12T12:10:06.836Z</time></trkpt><trkpt lat="45.4006183" lon="11.0192117"><ele>54.0</ele><time>2026-04-12T12:10:07.836Z</time></trkpt><trkpt lat="45.4006467" lon="11.019635"><ele>54.0</ele><time>2026-04-12T12:10:08.836Z</time></trkpt><trkpt lat="45.4006817" lon="11.020055"><ele>53.5</ele><time>2026-04-12T12:10:09.836Z</time></trkpt><trkpt lat="45.400715" lon="11.020475"><ele>53.0</ele><time>2026-04-12T12:10:10.836Z</time></trkpt><trkpt lat="45.4007517" lon="11.0208933"><ele>52.0</ele><time>2026-04-12T12:10:11.836Z</time></trkpt><trkpt lat="45.4007883" lon="11.0213"><ele>51.0</ele><time>2026-04-12T12:10:12.836Z</time></trkpt><trkpt lat="45.4008317" lon="11.0217267"><ele>51.0</ele><time>2026-04-12T12:10:13.836Z</time></trkpt><trkpt lat="45.4008683" lon="11.0221417"><ele>51.0</ele><time>2026-04-12T12:10:14.836Z</time></trkpt><trkpt lat="45.4009133" lon="11.0225567"><ele>51.5</ele><time>2026-04-12T12:10:15.836Z</time></trkpt><trkpt lat="45.4009517" lon="11.022985"><ele>52.0</ele><time>2026-04-12T12:10:16.836Z</time></trkpt><trkpt lat="45.4009933" lon="11.023405"><ele>52.5</ele><time>2026-04-12T12:10:17.836Z</time></trkpt><trkpt lat="45.4010417" lon="11.0238267"><ele>53.0</ele><time>2026-04-12T12:10:18.836Z</time></trkpt><trkpt lat="45.4010933" lon="11.02424"><ele>53.5</ele><time>2026-04-12T12:10:19.836Z</time></trkpt><trkpt lat="45.4011617" lon="11.0246533"><ele>54.0</ele><time>2026-04-12T12:10:20.836Z</time></trkpt><trkpt lat="45.4012267" lon="11.025055"><ele>53.0</ele><time>2026-04-12T12:10:21.836Z</time></trkpt><trkpt lat="45.4012933" lon="11.025475"><ele>52.0</ele><time>2026-04-12T12:10:22.836Z</time></trkpt><trkpt lat="45.401355" lon="11.0258967"><ele>52.0</ele><time>2026-04-12T12:10:23.836Z</time></trkpt><trkpt lat="45.4014117" lon="11.0263083"><ele>52.0</ele><time>2026-04-12T12:10:24.836Z</time></trkpt><trkpt lat="45.4014667" lon="11.0267267"><ele>52.0</ele><time>2026-04-12T12:10:25.836Z</time></trkpt><trkpt lat="45.4015267" lon="11.0271467"><ele>52.0</ele><time>2026-04-12T12:10:26.836Z</time></trkpt><trkpt lat="45.4015767" lon="11.0275617"><ele>51.0</ele><time>2026-04-12T12:10:27.836Z</time></trkpt><trkpt lat="45.40162" lon="11.0279867"><ele>50.0</ele><time>2026-04-12T12:10:28.836Z</time></trkpt><trkpt lat="45.40167" lon="11.0284083"><ele>49.5</ele><time>2026-04-12T12:10:29.836Z</time></trkpt><trkpt lat="45.40171" lon="11.0288317"><ele>49.0</ele><time>2026-04-12T12:10:30.836Z</time></trkpt><trkpt lat="45.4017583" lon="11.0292683"><ele>47.5</ele><time>2026-04-12T12:10:31.836Z</time></trkpt><trkpt lat="45.40181" lon="11.0297017"><ele>46.0</ele><time>2026-04-12T12:10:32.836Z</time></trkpt><trkpt lat="45.401855" lon="11.0301267"><ele>45.5</ele><time>2026-04-12T12:10:33.836Z</time></trkpt><trkpt lat="45.401905" lon="11.03055"><ele>45.0</ele><time>2026-04-12T12:10:34.836Z</time></trkpt><trkpt lat="45.4019517" lon="11.030965"><ele>44.0</ele><time>2026-04-12T12:10:35.836Z</time></trkpt><trkpt lat="45.401995" lon="11.0313967"><ele>43.0</ele><time>2026-04-12T12:10:36.836Z</time></trkpt><trkpt lat="45.4020367" lon="11.0318267"><ele>40.0</ele><time>2026-04-12T12:10:37.836Z</time></trkpt><trkpt lat="45.4020733" lon="11.032255"><ele>37.0</ele><time>2026-04-12T12:10:38.836Z</time></trkpt><trkpt lat="45.402115" lon="11.032685"><ele>37.0</ele><time>2026-04-12T12:10:39.836Z</time></trkpt><trkpt lat="45.4021567" lon="11.0331117"><ele>37.0</ele><time>2026-04-12T12:10:40.836Z</time></trkpt><trkpt lat="45.4021933" lon="11.033535"><ele>39.0</ele><time>2026-04-12T12:10:41.836Z</time></trkpt><trkpt lat="45.4022317" lon="11.0339533"><ele>41.0</ele><time>2026-04-12T12:10:42.836Z</time></trkpt><trkpt lat="45.4022767" lon="11.0343767"><ele>41.0</ele><time>2026-04-12T12:10:43.836Z</time></trkpt><trkpt lat="45.4023133" lon="11.0347967"><ele>41.0</ele><time>2026-04-12T12:10:44.836Z</time></trkpt><trkpt lat="45.4023417" lon="11.0352167"><ele>40.5</ele><time>2026-04-12T12:10:45.836Z</time></trkpt><trkpt lat="45.4023583" lon="11.035635"><ele>40.0</ele><time>2026-04-12T12:10:46.836Z</time></trkpt><trkpt lat="45.4023683" lon="11.036055"><ele>39.5</ele><time>2026-04-12T12:10:47.836Z</time></trkpt><trkpt lat="45.4023617" lon="11.0364717"><ele>39.0</ele><time>2026-04-12T12:10:48.836Z</time></trkpt><trkpt lat="45.4023517" lon="11.036885"><ele>40.0</ele><time>2026-04-12T12:10:49.836Z</time></trkpt><trkpt lat="45.4023283" lon="11.0372767"><ele>41.0</ele><time>2026-04-12T12:10:50.836Z</time></trkpt><trkpt lat="45.4022983" lon="11.0376367"><ele>41.5</ele><time>2026-04-12T12:10:51.836Z</time></trkpt><trkpt lat="45.402265" lon="11.03796"><ele>42.0</ele><time>2026-04-12T12:10:52.835Z</time></trkpt><trkpt lat="45.40223" lon="11.0382783"><ele>43.0</ele><time>2026-04-12T12:10:53.836Z</time></trkpt><trkpt lat="45.40219" lon="11.0385983"><ele>44.0</ele><time>2026-04-12T12:10:54.836Z</time></trkpt><trkpt lat="45.4021367" lon="11.0389267"><ele>40.5</ele><time>2026-04-12T12:10:55.836Z</time></trkpt><trkpt lat="45.4020933" lon="11.0392683"><ele>37.0</ele><time>2026-04-12T12:10:56.836Z</time></trkpt><trkpt lat="45.4020517" lon="11.0396217"><ele>38.5</ele><time>2026-04-12T12:10:57.836Z</time></trkpt><trkpt lat="45.402025" lon="11.03999"><ele>40.0</ele><time>2026-04-12T12:10:58.836Z</time></trkpt><trkpt lat="45.4020217" lon="11.040365"><ele>40.0</ele><time>2026-04-12T12:10:59.836Z</time></trkpt><trkpt lat="45.40204" lon="11.04075"><ele>40.0</ele><time>2026-04-12T12:11:00.836Z</time></trkpt><trkpt lat="45.4020933" lon="11.0411217"><ele>39.0</ele><time>2026-04-12T12:11:01.836Z</time></trkpt><trkpt lat="45.4021867" lon="11.0414767"><ele>38.0</ele><time>2026-04-12T12:11:02.836Z</time></trkpt><trkpt lat="45.4023117" lon="11.0418083"><ele>38.0</ele><time>2026-04-12T12:11:03.836Z</time></trkpt><trkpt lat="45.402465" lon="11.0421317"><ele>38.0</ele><time>2026-04-12T12:11:04.836Z</time></trkpt><trkpt lat="45.4026217" lon="11.0424467"><ele>38.0</ele><time>2026-04-12T12:11:05.836Z</time></trkpt><trkpt lat="45.402755" lon="11.0427883"><ele>38.0</ele><time>2026-04-12T12:11:06.836Z</time></trkpt><trkpt lat="45.4028383" lon="11.0431367"><ele>38.0</ele><time>2026-04-12T12:11:07.836Z</time></trkpt><trkpt lat="45.4029083" lon="11.04353"><ele>38.0</ele><time>2026-04-12T12:11:08.836Z</time></trkpt><trkpt lat="45.4029433" lon="11.0439233"><ele>38.0</ele><time>2026-04-12T12:11:09.836Z</time></trkpt><trkpt lat="45.4029833" lon="11.0443283"><ele>38.0</ele><time>2026-04-12T12:11:10.836Z</time></trkpt><trkpt lat="45.40303" lon="11.0447333"><ele>39.5</ele><time>2026-04-12T12:11:11.836Z</time></trkpt><trkpt lat="45.4030767" lon="11.0451533"><ele>41.0</ele><time>2026-04-12T12:11:12.836Z</time></trkpt><trkpt lat="45.403125" lon="11.0455783"><ele>40.0</ele><time>2026-04-12T12:11:13.836Z</time></trkpt><trkpt lat="45.4031683" lon="11.046015"><ele>39.0</ele><time>2026-04-12T12:11:14.836Z</time></trkpt><trkpt lat="45.40321" lon="11.046445"><ele>38.0</ele><time>2026-04-12T12:11:15.836Z</time></trkpt><trkpt lat="45.4032517" lon="11.04688"><ele>37.0</ele><time>2026-04-12T12:11:16.836Z</time></trkpt><trkpt lat="45.4032917" lon="11.04733"><ele>37.0</ele><time>2026-04-12T12:11:17.836Z</time></trkpt><trkpt lat="45.4033267" lon="11.0477767"><ele>37.0</ele><time>2026-04-12T12:11:18.836Z</time></trkpt><trkpt lat="45.4033717" lon="11.0482267"><ele>37.0</ele><time>2026-04-12T12:11:19.836Z</time></trkpt><trkpt lat="45.4034183" lon="11.048685"><ele>37.0</ele><time>2026-04-12T12:11:20.836Z</time></trkpt><trkpt lat="45.4034633" lon="11.04914"><ele>37.0</ele><time>2026-04-12T12:11:21.836Z</time></trkpt><trkpt lat="45.4035117" lon="11.0495983"><ele>37.0</ele><time>2026-04-12T12:11:22.836Z</time></trkpt><trkpt lat="45.4035567" lon="11.0500583"><ele>37.0</ele><time>2026-04-12T12:11:23.836Z</time></trkpt><trkpt lat="45.4036033" lon="11.050515"><ele>37.0</ele><time>2026-04-12T12:11:24.836Z</time></trkpt><trkpt lat="45.4036417" lon="11.0509717"><ele>36.5</ele><time>2026-04-12T12:11:25.836Z</time></trkpt><trkpt lat="45.4036933" lon="11.05143"><ele>36.0</ele><time>2026-04-12T12:11:26.836Z</time></trkpt><trkpt lat="45.40374" lon="11.051895"><ele>36.0</ele><time>2026-04-12T12:11:27.836Z</time></trkpt><trkpt lat="45.4037883" lon="11.0523517"><ele>36.0</ele><time>2026-04-12T12:11:28.836Z</time></trkpt><trkpt lat="45.4038283" lon="11.052815"><ele>37.0</ele><time>2026-04-12T12:11:29.836Z</time></trkpt><trkpt lat="45.4038667" lon="11.05328"><ele>38.0</ele><time>2026-04-12T12:11:30.836Z</time></trkpt><trkpt lat="45.4039083" lon="11.0537417"><ele>37.5</ele><time>2026-04-12T12:11:31.836Z</time></trkpt><trkpt lat="45.40395" lon="11.0541967"><ele>37.0</ele><time>2026-04-12T12:11:32.836Z</time></trkpt><trkpt lat="45.4039967" lon="11.05466"><ele>36.5</ele><time>2026-04-12T12:11:33.836Z</time></trkpt><trkpt lat="45.40403" lon="11.0551183"><ele>36.0</ele><time>2026-04-12T12:11:34.836Z</time></trkpt><trkpt lat="45.4040633" lon="11.0555783"><ele>37.5</ele><time>2026-04-12T12:11:35.836Z</time></trkpt><trkpt lat="45.4040967" lon="11.0560367"><ele>39.0</ele><time>2026-04-12T12:11:36.836Z</time></trkpt><trkpt lat="45.4041317" lon="11.056495"><ele>38.5</ele><time>2026-04-12T12:11:37.836Z</time></trkpt><trkpt lat="45.404165" lon="11.0569517"><ele>38.0</ele><time>2026-04-12T12:11:38.836Z</time></trkpt><trkpt lat="45.4042117" lon="11.0574033"><ele>38.0</ele><time>2026-04-12T12:11:39.836Z</time></trkpt><trkpt lat="45.404255" lon="11.05786"><ele>38.0</ele><time>2026-04-12T12:11:40.836Z</time></trkpt><trkpt lat="45.4042883" lon="11.058325"><ele>37.5</ele><time>2026-04-12T12:11:41.836Z</time></trkpt><trkpt lat="45.40433" lon="11.0587833"><ele>37.0</ele><time>2026-04-12T12:11:42.836Z</time></trkpt><trkpt lat="45.4043717" lon="11.0592383"><ele>37.0</ele><time>2026-04-12T12:11:43.836Z</time></trkpt><trkpt lat="45.40441" lon="11.0596967"><ele>37.0</ele><time>2026-04-12T12:11:44.836Z</time></trkpt><trkpt lat="45.4044517" lon="11.06015"><ele>37.0</ele><time>2026-04-12T12:11:45.836Z</time></trkpt><trkpt lat="45.4044883" lon="11.0606083"><ele>37.0</ele><time>2026-04-12T12:11:46.836Z</time></trkpt><trkpt lat="45.40452" lon="11.06107"><ele>37.0</ele><time>2026-04-12T12:11:47.836Z</time></trkpt><trkpt lat="45.4045567" lon="11.06153"><ele>37.0</ele><time>2026-04-12T12:11:48.836Z</time></trkpt><trkpt lat="45.4046" lon="11.0619917"><ele>36.5</ele><time>2026-04-12T12:11:49.836Z</time></trkpt><trkpt lat="45.40464" lon="11.0624533"><ele>36.0</ele><time>2026-04-12T12:11:50.836Z</time></trkpt><trkpt lat="45.4046717" lon="11.0629117"><ele>36.5</ele><time>2026-04-12T12:11:51.836Z</time></trkpt><trkpt lat="45.404705" lon="11.0633683"><ele>37.0</ele><time>2026-04-12T12:11:52.836Z</time></trkpt><trkpt lat="45.4047483" lon="11.0638267"><ele>36.5</ele><time>2026-04-12T12:11:53.836Z</time></trkpt><trkpt lat="45.4047833" lon="11.0642833"><ele>36.0</ele><time>2026-04-12T12:11:54.836Z</time></trkpt><trkpt lat="45.40482" lon="11.0647467"><ele>35.5</ele><time>2026-04-12T12:11:55.836Z</time></trkpt><trkpt lat="45.4048617" lon="11.0652083"><ele>35.0</ele><time>2026-04-12T12:11:56.836Z</time></trkpt><trkpt lat="45.404895" lon="11.0656667"><ele>36.0</ele><time>2026-04-12T12:11:57.836Z</time></trkpt><trkpt lat="45.40493" lon="11.0661183"><ele>37.0</ele><time>2026-04-12T12:11:58.836Z</time></trkpt><trkpt lat="45.4049733" lon="11.0665733"><ele>37.0</ele><time>2026-04-12T12:11:59.836Z</time></trkpt><trkpt lat="45.4050117" lon="11.067025"><ele>37.0</ele><time>2026-04-12T12:12:00.836Z</time></trkpt><trkpt lat="45.4050483" lon="11.06747"><ele>37.0</ele><time>2026-04-12T12:12:01.836Z</time></trkpt><trkpt lat="45.405095" lon="11.06792"><ele>37.0</ele><time>2026-04-12T12:12:02.836Z</time></trkpt><trkpt lat="45.405135" lon="11.0683633"><ele>38.0</ele><time>2026-04-12T12:12:03.836Z</time></trkpt><trkpt lat="45.4051683" lon="11.06881"><ele>39.0</ele><time>2026-04-12T12:12:04.836Z</time></trkpt><trkpt lat="45.4052033" lon="11.0692533"><ele>39.5</ele><time>2026-04-12T12:12:05.836Z</time></trkpt><trkpt lat="45.4052367" lon="11.0697133"><ele>40.0</ele><time>2026-04-12T12:12:06.836Z</time></trkpt><trkpt lat="45.40527" lon="11.070155"><ele>40.5</ele><time>2026-04-12T12:12:07.836Z</time></trkpt><trkpt lat="45.4053067" lon="11.0706083"><ele>41.0</ele><time>2026-04-12T12:12:08.836Z</time></trkpt><trkpt lat="45.4053417" lon="11.07106"><ele>41.5</ele><time>2026-04-12T12:12:09.836Z</time></trkpt><trkpt lat="45.4053767" lon="11.0715117"><ele>42.0</ele><time>2026-04-12T12:12:10.836Z</time></trkpt><trkpt lat="45.40541" lon="11.07196"><ele>42.0</ele><time>2026-04-12T12:12:11.835Z</time></trkpt><trkpt lat="45.40545" lon="11.07241"><ele>42.0</ele><time>2026-04-12T12:12:12.836Z</time></trkpt><trkpt lat="45.4054983" lon="11.07286"><ele>41.5</ele><time>2026-04-12T12:12:13.836Z</time></trkpt><trkpt lat="45.40556" lon="11.0733033"><ele>41.0</ele><time>2026-04-12T12:12:14.836Z</time></trkpt><trkpt lat="45.405635" lon="11.073745"><ele>41.0</ele><time>2026-04-12T12:12:15.836Z</time></trkpt><trkpt lat="45.405715" lon="11.0741767"><ele>41.0</ele><time>2026-04-12T12:12:16.836Z</time></trkpt><trkpt lat="45.4058083" lon="11.0745983"><ele>41.0</ele><time>2026-04-12T12:12:17.836Z</time></trkpt><trkpt lat="45.4059017" lon="11.0750433"><ele>41.0</ele><time>2026-04-12T12:12:18.836Z</time></trkpt><trkpt lat="45.4060083" lon="11.0754783"><ele>40.5</ele><time>2026-04-12T12:12:19.836Z</time></trkpt><trkpt lat="45.4061283" lon="11.0758833"><ele>40.0</ele><time>2026-04-12T12:12:20.836Z</time></trkpt><trkpt lat="45.406255" lon="11.0763067"><ele>40.5</ele><time>2026-04-12T12:12:21.836Z</time></trkpt><trkpt lat="45.406395" lon="11.0767333"><ele>41.0</ele><time>2026-04-12T12:12:22.836Z</time></trkpt><trkpt lat="45.4065517" lon="11.0771467"><ele>41.5</ele><time>2026-04-12T12:12:23.836Z</time></trkpt><trkpt lat="45.4067133" lon="11.0775417"><ele>42.0</ele><time>2026-04-12T12:12:24.836Z</time></trkpt><trkpt lat="45.4068817" lon="11.0779383"><ele>41.5</ele><time>2026-04-12T12:12:25.836Z</time></trkpt><trkpt lat="45.4070483" lon="11.0783367"><ele>41.0</ele><time>2026-04-12T12:12:26.836Z</time></trkpt><trkpt lat="45.4072117" lon="11.078735"><ele>40.5</ele><time>2026-04-12T12:12:27.836Z</time></trkpt><trkpt lat="45.4073733" lon="11.079135"><ele>40.0</ele><time>2026-04-12T12:12:28.836Z</time></trkpt><trkpt lat="45.40752" lon="11.0795383"><ele>40.0</ele><time>2026-04-12T12:12:29.836Z</time></trkpt><trkpt lat="45.407655" lon="11.079965"><ele>40.0</ele><time>2026-04-12T12:12:30.836Z</time></trkpt><trkpt lat="45.4077817" lon="11.080385"><ele>40.0</ele><time>2026-04-12T12:12:31.836Z</time></trkpt><trkpt lat="45.4078917" lon="11.0808117"><ele>40.0</ele><time>2026-04-12T12:12:32.836Z</time></trkpt><trkpt lat="45.4080033" lon="11.0812367"><ele>41.5</ele><time>2026-04-12T12:12:33.836Z</time></trkpt><trkpt lat="45.4081133" lon="11.0816617"><ele>43.0</ele><time>2026-04-12T12:12:34.836Z</time></trkpt><trkpt lat="45.408225" lon="11.08208"><ele>44.0</ele><time>2026-04-12T12:12:35.836Z</time></trkpt><trkpt lat="45.4083383" lon="11.0825067"><ele>45.0</ele><time>2026-04-12T12:12:36.836Z</time></trkpt><trkpt lat="45.4084533" lon="11.0829183"><ele>44.0</ele><time>2026-04-12T12:12:37.836Z</time></trkpt><trkpt lat="45.4085583" lon="11.08333"><ele>43.0</ele><time>2026-04-12T12:12:38.836Z</time></trkpt><trkpt lat="45.40867" lon="11.0837483"><ele>43.0</ele><time>2026-04-12T12:12:39.836Z</time></trkpt><trkpt lat="45.4087817" lon="11.0841617"><ele>43.0</ele><time>2026-04-12T12:12:40.836Z</time></trkpt><trkpt lat="45.4088983" lon="11.084585"><ele>43.5</ele><time>2026-04-12T12:12:41.836Z</time></trkpt><trkpt lat="45.4090117" lon="11.0850067"><ele>44.0</ele><time>2026-04-12T12:12:42.836Z</time></trkpt><trkpt lat="45.4091267" lon="11.085425"><ele>44.0</ele><time>2026-04-12T12:12:43.836Z</time></trkpt><trkpt lat="45.40924" lon="11.0858367"><ele>44.0</ele><time>2026-04-12T12:12:44.836Z</time></trkpt><trkpt lat="45.40935" lon="11.0862467"><ele>44.0</ele><time>2026-04-12T12:12:45.836Z</time></trkpt><trkpt lat="45.4094683" lon="11.086655"><ele>44.0</ele><time>2026-04-12T12:12:46.836Z</time></trkpt><trkpt lat="45.4095717" lon="11.087055"><ele>44.5</ele><time>2026-04-12T12:12:47.836Z</time></trkpt><trkpt lat="45.4096617" lon="11.0874783"><ele>45.0</ele><time>2026-04-12T12:12:48.836Z</time></trkpt><trkpt lat="45.4097183" lon="11.087895"><ele>44.5</ele><time>2026-04-12T12:12:49.836Z</time></trkpt><trkpt lat="45.4097367" lon="11.08831"><ele>44.0</ele><time>2026-04-12T12:12:50.836Z</time></trkpt><trkpt lat="45.4096983" lon="11.0887133"><ele>44.5</ele><time>2026-04-12T12:12:51.836Z</time></trkpt><trkpt lat="45.4096183" lon="11.0891217"><ele>45.0</ele><time>2026-04-12T12:12:52.836Z</time></trkpt><trkpt lat="45.4095367" lon="11.0895333"><ele>46.0</ele><time>2026-04-12T12:12:53.836Z</time></trkpt><trkpt lat="45.4094283" lon="11.0899283"><ele>47.0</ele><time>2026-04-12T12:12:54.836Z</time></trkpt><trkpt lat="45.4093183" lon="11.0902967"><ele>47.0</ele><time>2026-04-12T12:12:55.836Z</time></trkpt><trkpt lat="45.4092267" lon="11.09067"><ele>47.0</ele><time>2026-04-12T12:12:56.836Z</time></trkpt><trkpt lat="45.4091617" lon="11.091045"><ele>46.5</ele><time>2026-04-12T12:12:57.836Z</time></trkpt><trkpt lat="45.4091317" lon="11.091405"><ele>46.0</ele><time>2026-04-12T12:12:58.836Z</time></trkpt><trkpt lat="45.409135" lon="11.0917717"><ele>44.5</ele><time>2026-04-12T12:12:59.836Z</time></trkpt><trkpt lat="45.4091633" lon="11.09215"><ele>43.0</ele><time>2026-04-12T12:13:00.836Z</time></trkpt><trkpt lat="45.4092117" lon="11.0925233"><ele>43.0</ele><time>2026-04-12T12:13:01.836Z</time></trkpt><trkpt lat="45.409305" lon="11.0928783"><ele>43.0</ele><time>2026-04-12T12:13:02.836Z</time></trkpt><trkpt lat="45.4094217" lon="11.093215"><ele>42.5</ele><time>2026-04-12T12:13:03.836Z</time></trkpt><trkpt lat="45.4095717" lon="11.0935183"><ele>42.0</ele><time>2026-04-12T12:13:04.836Z</time></trkpt><trkpt lat="45.4097433" lon="11.0938033"><ele>42.0</ele><time>2026-04-12T12:13:05.836Z</time></trkpt><trkpt lat="45.4099483" lon="11.09407"><ele>42.0</ele><time>2026-04-12T12:13:06.836Z</time></trkpt><trkpt lat="45.41017" lon="11.0942883"><ele>42.0</ele><time>2026-04-12T12:13:07.836Z</time></trkpt><trkpt lat="45.4104017" lon="11.09449"><ele>42.0</ele><time>2026-04-12T12:13:08.836Z</time></trkpt><trkpt lat="45.41065" lon="11.094675"><ele>42.0</ele><time>2026-04-12T12:13:09.836Z</time></trkpt><trkpt lat="45.4109067" lon="11.0948483"><ele>42.0</ele><time>2026-04-12T12:13:10.836Z</time></trkpt><trkpt lat="45.4111533" lon="11.0950417"><ele>45.0</ele><time>2026-04-12T12:13:11.836Z</time></trkpt><trkpt lat="45.4113867" lon="11.0952667"><ele>48.0</ele><time>2026-04-12T12:13:12.836Z</time></trkpt><trkpt lat="45.4116017" lon="11.0955217"><ele>45.5</ele><time>2026-04-12T12:13:13.836Z</time></trkpt><trkpt lat="45.4117883" lon="11.0958083"><ele>43.0</ele><time>2026-04-12T12:13:14.836Z</time></trkpt><trkpt lat="45.411945" lon="11.09613"><ele>43.0</ele><time>2026-04-12T12:13:15.836Z</time></trkpt><trkpt lat="45.4120767" lon="11.0964783"><ele>43.0</ele><time>2026-04-12T12:13:16.836Z</time></trkpt><trkpt lat="45.412185" lon="11.0968483"><ele>44.0</ele><time>2026-04-12T12:13:17.836Z</time></trkpt><trkpt lat="45.4123" lon="11.097225"><ele>45.0</ele><time>2026-04-12T12:13:18.836Z</time></trkpt><trkpt lat="45.4124017" lon="11.097605"><ele>45.0</ele><time>2026-04-12T12:13:19.836Z</time></trkpt><trkpt lat="45.4125083" lon="11.0979983"><ele>45.0</ele><time>2026-04-12T12:13:20.836Z</time></trkpt><trkpt lat="45.4126117" lon="11.098395"><ele>44.0</ele><time>2026-04-12T12:13:21.836Z</time></trkpt><trkpt lat="45.412715" lon="11.0987867"><ele>43.0</ele><time>2026-04-12T12:13:22.836Z</time></trkpt><trkpt lat="45.4128233" lon="11.0991817"><ele>43.5</ele><time>2026-04-12T12:13:23.836Z</time></trkpt><trkpt lat="45.41293" lon="11.099565"><ele>44.0</ele><time>2026-04-12T12:13:24.836Z</time></trkpt><trkpt lat="45.4130367" lon="11.09995"><ele>44.0</ele><time>2026-04-12T12:13:25.836Z</time></trkpt><trkpt lat="45.4131283" lon="11.1003317"><ele>44.0</ele><time>2026-04-12T12:13:26.836Z</time></trkpt><trkpt lat="45.4132267" lon="11.1007"><ele>43.5</ele><time>2026-04-12T12:13:27.836Z</time></trkpt><trkpt lat="45.4133067" lon="11.1010683"><ele>43.0</ele><time>2026-04-12T12:13:28.836Z</time></trkpt><trkpt lat="45.413375" lon="11.1014467"><ele>43.5</ele><time>2026-04-12T12:13:29.836Z</time></trkpt><trkpt lat="45.41343" lon="11.10183"><ele>44.0</ele><time>2026-04-12T12:13:30.836Z</time></trkpt><trkpt lat="45.41344" lon="11.1022267"><ele>42.5</ele><time>2026-04-12T12:13:31.836Z</time></trkpt><trkpt lat="45.41343" lon="11.1026083"><ele>41.0</ele><time>2026-04-12T12:13:32.836Z</time></trkpt><trkpt lat="45.413405" lon="11.1029867"><ele>40.0</ele><time>2026-04-12T12:13:33.836Z</time></trkpt><trkpt lat="45.4133867" lon="11.1033667"><ele>39.0</ele><time>2026-04-12T12:13:34.836Z</time></trkpt><trkpt lat="45.4133983" lon="11.1037467"><ele>39.5</ele><time>2026-04-12T12:13:35.836Z</time></trkpt><trkpt lat="45.4134367" lon="11.104115"><ele>40.0</ele><time>2026-04-12T12:13:36.836Z</time></trkpt><trkpt lat="45.4135117" lon="11.1044733"><ele>40.0</ele><time>2026-04-12T12:13:37.836Z</time></trkpt><trkpt lat="45.4136183" lon="11.1048017"><ele>40.0</ele><time>2026-04-12T12:13:38.836Z</time></trkpt><trkpt lat="45.413765" lon="11.10511"><ele>42.0</ele><time>2026-04-12T12:13:39.836Z</time></trkpt><trkpt lat="45.4139383" lon="11.1053833"><ele>44.0</ele><time>2026-04-12T12:13:40.836Z</time></trkpt><trkpt lat="45.41414" lon="11.1056167"><ele>44.0</ele><time>2026-04-12T12:13:41.836Z</time></trkpt><trkpt lat="45.414365" lon="11.1058167"><ele>44.0</ele><time>2026-04-12T12:13:42.836Z</time></trkpt><trkpt lat="45.4145917" lon="11.105975"><ele>44.0</ele><time>2026-04-12T12:13:43.836Z</time></trkpt><trkpt lat="45.4148317" lon="11.10613"><ele>44.0</ele><time>2026-04-12T12:13:44.836Z</time></trkpt><trkpt lat="45.4150733" lon="11.1062817"><ele>44.0</ele><time>2026-04-12T12:13:45.836Z</time></trkpt><trkpt lat="45.4153067" lon="11.1064317"><ele>44.0</ele><time>2026-04-12T12:13:46.836Z</time></trkpt><trkpt lat="45.4155217" lon="11.106585"><ele>43.5</ele><time>2026-04-12T12:13:47.836Z</time></trkpt><trkpt lat="45.415735" lon="11.106755"><ele>43.0</ele><time>2026-04-12T12:13:48.836Z</time></trkpt><trkpt lat="45.41592" lon="11.1069633"><ele>43.0</ele><time>2026-04-12T12:13:49.836Z</time></trkpt><trkpt lat="45.4160833" lon="11.1071967"><ele>43.0</ele><time>2026-04-12T12:13:50.836Z</time></trkpt><trkpt lat="45.4162133" lon="11.1074667"><ele>42.0</ele><time>2026-04-12T12:13:51.836Z</time></trkpt><trkpt lat="45.4163267" lon="11.1077867"><ele>41.0</ele><time>2026-04-12T12:13:52.836Z</time></trkpt><trkpt lat="45.4164133" lon="11.1081317"><ele>41.0</ele><time>2026-04-12T12:13:53.836Z</time></trkpt><trkpt lat="45.41647" lon="11.1084867"><ele>41.0</ele><time>2026-04-12T12:13:54.836Z</time></trkpt><trkpt lat="45.41649" lon="11.1088617"><ele>41.5</ele><time>2026-04-12T12:13:55.836Z</time></trkpt><trkpt lat="45.416485" lon="11.1092383"><ele>42.0</ele><time>2026-04-12T12:13:56.836Z</time></trkpt><trkpt lat="45.416485" lon="11.1096017"><ele>42.0</ele><time>2026-04-12T12:13:57.836Z</time></trkpt><trkpt lat="45.4165033" lon="11.1099833"><ele>42.0</ele><time>2026-04-12T12:13:58.836Z</time></trkpt><trkpt lat="45.416545" lon="11.1103583"><ele>42.0</ele><time>2026-04-12T12:13:59.836Z</time></trkpt><trkpt lat="45.41662" lon="11.1107383"><ele>42.0</ele><time>2026-04-12T12:14:00.836Z</time></trkpt><trkpt lat="45.4167217" lon="11.1110983"><ele>42.0</ele><time>2026-04-12T12:14:01.836Z</time></trkpt><trkpt lat="45.4168467" lon="11.11144"><ele>42.0</ele><time>2026-04-12T12:14:02.836Z</time></trkpt><trkpt lat="45.4169717" lon="11.1117867"><ele>42.0</ele><time>2026-04-12T12:14:03.836Z</time></trkpt><trkpt lat="45.4171" lon="11.1121267"><ele>42.0</ele><time>2026-04-12T12:14:04.836Z</time></trkpt><trkpt lat="45.4172167" lon="11.1124683"><ele>43.0</ele><time>2026-04-12T12:14:05.836Z</time></trkpt><trkpt lat="45.417335" lon="11.1128133"><ele>44.0</ele><time>2026-04-12T12:14:06.836Z</time></trkpt><trkpt lat="45.4174533" lon="11.1131567"><ele>45.0</ele><time>2026-04-12T12:14:07.836Z</time></trkpt><trkpt lat="45.4175717" lon="11.1135"><ele>46.0</ele><time>2026-04-12T12:14:08.836Z</time></trkpt><trkpt lat="45.4176917" lon="11.1138417"><ele>45.5</ele><time>2026-04-12T12:14:09.836Z</time></trkpt><trkpt lat="45.417815" lon="11.1141767"><ele>45.0</ele><time>2026-04-12T12:14:10.836Z</time></trkpt><trkpt lat="45.4179317" lon="11.1145083"><ele>45.0</ele><time>2026-04-12T12:14:11.836Z</time></trkpt><trkpt lat="45.4180467" lon="11.1148367"><ele>45.0</ele><time>2026-04-12T12:14:12.836Z</time></trkpt><trkpt lat="45.41816" lon="11.1151633"><ele>46.0</ele><time>2026-04-12T12:14:13.836Z</time></trkpt><trkpt lat="45.418275" lon="11.1155017"><ele>47.0</ele><time>2026-04-12T12:14:14.836Z</time></trkpt><trkpt lat="45.4183817" lon="11.1158417"><ele>47.5</ele><time>2026-04-12T12:14:15.836Z</time></trkpt><trkpt lat="45.4184917" lon="11.1161667"><ele>48.0</ele><time>2026-04-12T12:14:16.836Z</time></trkpt><trkpt lat="45.418615" lon="11.1164867"><ele>47.5</ele><time>2026-04-12T12:14:17.836Z</time></trkpt><trkpt lat="45.4187317" lon="11.1168067"><ele>47.0</ele><time>2026-04-12T12:14:18.836Z</time></trkpt><trkpt lat="45.418835" lon="11.11712"><ele>46.5</ele><time>2026-04-12T12:14:19.836Z</time></trkpt><trkpt lat="45.41894" lon="11.1174133"><ele>46.0</ele><time>2026-04-12T12:14:20.836Z</time></trkpt><trkpt lat="45.4190517" lon="11.1177067"><ele>46.0</ele><time>2026-04-12T12:14:21.836Z</time></trkpt><trkpt lat="45.4191617" lon="11.1179933"><ele>46.0</ele><time>2026-04-12T12:14:22.836Z</time></trkpt><trkpt lat="45.4192667" lon="11.11825"><ele>46.0</ele><time>2026-04-12T12:14:23.836Z</time></trkpt><trkpt lat="45.4193817" lon="11.1184667"><ele>46.0</ele><time>2026-04-12T12:14:24.836Z</time></trkpt><trkpt lat="45.41952" lon="11.1186467"><ele>46.0</ele><time>2026-04-12T12:14:25.835Z</time></trkpt><trkpt lat="45.4196617" lon="11.1188017"><ele>46.0</ele><time>2026-04-12T12:14:26.836Z</time></trkpt><trkpt lat="45.41982" lon="11.1189433"><ele>46.0</ele><time>2026-04-12T12:14:27.836Z</time></trkpt><trkpt lat="45.4199717" lon="11.1190583"><ele>46.0</ele><time>2026-04-12T12:14:28.836Z</time></trkpt><trkpt lat="45.420105" lon="11.1191967"><ele>46.0</ele><time>2026-04-12T12:14:29.836Z</time></trkpt><trkpt lat="45.4202317" lon="11.1193233"><ele>46.0</ele><time>2026-04-12T12:14:30.836Z</time></trkpt><trkpt lat="45.420325" lon="11.11948"><ele>46.0</ele><time>2026-04-12T12:14:31.836Z</time></trkpt><trkpt lat="45.420395" lon="11.119645"><ele>46.0</ele><time>2026-04-12T12:14:32.836Z</time></trkpt><trkpt lat="45.4204367" lon="11.119845"><ele>46.0</ele><time>2026-04-12T12:14:33.836Z</time></trkpt><trkpt lat="45.4204683" lon="11.12005"><ele>45.25</ele><time>2026-04-12T12:14:34.836Z</time></trkpt><trkpt lat="45.420455" lon="11.1202667"><ele>44.5</ele><time>2026-04-12T12:14:35.836Z</time></trkpt><trkpt lat="45.420445" lon="11.12047"><ele>43.75</ele><time>2026-04-12T12:14:36.836Z</time></trkpt><trkpt lat="45.4204317" lon="11.1206767"><ele>43.0</ele><time>2026-04-12T12:14:37.836Z</time></trkpt><trkpt lat="45.4204217" lon="11.1208733"><ele>42.5</ele><time>2026-04-12T12:14:38.836Z</time></trkpt><trkpt lat="45.4204117" lon="11.121075"><ele>42.0</ele><time>2026-04-12T12:14:39.836Z</time></trkpt><trkpt lat="45.4204067" lon="11.1212733"><ele>41.5</ele><time>2026-04-12T12:14:40.836Z</time></trkpt><trkpt lat="45.4203983" lon="11.12148"><ele>41.0</ele><time>2026-04-12T12:14:41.836Z</time></trkpt><trkpt lat="45.42039" lon="11.1216717"><ele>41.0</ele><time>2026-04-12T12:14:42.836Z</time></trkpt><trkpt lat="45.4203817" lon="11.121855"><ele>41.0</ele><time>2026-04-12T12:14:43.836Z</time></trkpt><trkpt lat="45.42038" lon="11.12203"><ele>41.0</ele><time>2026-04-12T12:14:44.836Z</time></trkpt><trkpt lat="45.420385" lon="11.122225"><ele>41.0</ele><time>2026-04-12T12:14:45.836Z</time></trkpt><trkpt lat="45.4203533" lon="11.1224117"><ele>41.0</ele><time>2026-04-12T12:14:46.836Z</time></trkpt><trkpt lat="45.4203383" lon="11.1225833"><ele>41.0</ele><time>2026-04-12T12:14:47.836Z</time></trkpt><trkpt lat="45.4203233" lon="11.122705"><ele>41.0</ele><time>2026-04-12T12:14:48.836Z</time></trkpt><trkpt lat="45.4203083" lon="11.122805"><ele>41.0</ele><time>2026-04-12T12:14:52.836Z</time></trkpt><trkpt lat="45.4203667" lon="11.1228783"><ele>41.0</ele><time>2026-04-12T12:14:55.836Z</time></trkpt><trkpt lat="45.4204383" lon="11.122845"><ele>41.0</ele><time>2026-04-12T12:14:57.836Z</time></trkpt><trkpt lat="45.4205" lon="11.1227533"><ele>42.75</ele><time>2026-04-12T12:14:59.836Z</time></trkpt><trkpt lat="45.4205783" lon="11.1226367"><ele>44.5</ele><time>2026-04-12T12:15:01.836Z</time></trkpt><trkpt lat="45.4206367" lon="11.1225533"><ele>46.25</ele><time>2026-04-12T12:15:02.836Z</time></trkpt><trkpt lat="45.4207233" lon="11.1224583"><ele>48.0</ele><time>2026-04-12T12:15:03.836Z</time></trkpt><trkpt lat="45.4208317" lon="11.1222733"><ele>48.0</ele><time>2026-04-12T12:15:04.836Z</time></trkpt><trkpt lat="45.4209067" lon="11.1219617"><ele>48.0</ele><time>2026-04-12T12:15:05.836Z</time></trkpt><trkpt lat="45.420965" lon="11.1217467"><ele>48.0</ele><time>2026-04-12T12:15:06.836Z</time></trkpt><trkpt lat="45.4210233" lon="11.121585"><ele>48.5</ele><time>2026-04-12T12:15:07.836Z</time></trkpt><trkpt lat="45.4211033" lon="11.1214517"><ele>49.0</ele><time>2026-04-12T12:15:08.836Z</time></trkpt><trkpt lat="45.421205" lon="11.1213617"><ele>49.5</ele><time>2026-04-12T12:15:09.836Z</time></trkpt><trkpt lat="45.4213167" lon="11.1213067"><ele>50.0</ele><time>2026-04-12T12:15:10.836Z</time></trkpt><trkpt lat="45.4214417" lon="11.12125"><ele>50.0</ele><time>2026-04-12T12:15:11.836Z</time></trkpt><trkpt lat="45.4215683" lon="11.1212017"><ele>50.0</ele><time>2026-04-12T12:15:12.836Z</time></trkpt><trkpt lat="45.4217033" lon="11.1211617"><ele>50.0</ele><time>2026-04-12T12:15:13.836Z</time></trkpt><trkpt lat="45.4218383" lon="11.12112"><ele>50.0</ele><time>2026-04-12T12:15:14.836Z</time></trkpt><trkpt lat="45.4219767" lon="11.1210683"><ele>50.0</ele><time>2026-04-12T12:15:15.836Z</time></trkpt><trkpt lat="45.4220967" lon="11.1210383"><ele>50.0</ele><time>2026-04-12T12:15:16.836Z</time></trkpt><trkpt lat="45.4222383" lon="11.1210017"><ele>50.0</ele><time>2026-04-12T12:15:17.836Z</time></trkpt><trkpt lat="45.4223733" lon="11.12097"><ele>50.0</ele><time>2026-04-12T12:15:18.836Z</time></trkpt><trkpt lat="45.4225" lon="11.1209517"><ele>51.0</ele><time>2026-04-12T12:15:19.836Z</time></trkpt><trkpt lat="45.42263" lon="11.12093"><ele>52.0</ele><time>2026-04-12T12:15:20.836Z</time></trkpt><trkpt lat="45.4227633" lon="11.1209017"><ele>53.0</ele><time>2026-04-12T12:15:21.836Z</time></trkpt><trkpt lat="45.4228867" lon="11.1208483"><ele>54.0</ele><time>2026-04-12T12:15:22.836Z</time></trkpt><trkpt lat="45.4230017" lon="11.12078"><ele>53.400000000000006</ele><time>2026-04-12T12:15:23.836Z</time></trkpt><trkpt lat="45.423105" lon="11.120695"><ele>52.800000000000004</ele><time>2026-04-12T12:15:24.836Z</time></trkpt><trkpt lat="45.4232083" lon="11.1206133"><ele>52.2</ele><time>2026-04-12T12:15:25.836Z</time></trkpt><trkpt lat="45.4233067" lon="11.1205417"><ele>51.599999999999994</ele><time>2026-04-12T12:15:26.836Z</time></trkpt><trkpt lat="45.4233967" lon="11.1204767"><ele>51.0</ele><time>2026-04-12T12:15:27.836Z</time></trkpt><trkpt lat="45.423475" lon="11.1204167"><ele>51.0</ele><time>2026-04-12T12:15:28.836Z</time></trkpt><trkpt lat="45.4235417" lon="11.120375"><ele>51.0</ele><time>2026-04-12T12:15:29.836Z</time></trkpt><trkpt lat="45.42365" lon="11.1203633"><ele>51.0</ele><time>2026-04-12T12:15:31.836Z</time></trkpt><trkpt lat="45.4237467" lon="11.120455"><ele>51.0</ele><time>2026-04-12T12:15:33.836Z</time></trkpt><trkpt lat="45.4238583" lon="11.1205067"><ele>51.0</ele><time>2026-04-12T12:15:35.836Z</time></trkpt><trkpt lat="45.4239767" lon="11.12055"><ele>52.599999999999994</ele><time>2026-04-12T12:15:37.836Z</time></trkpt><trkpt lat="45.4240817" lon="11.1206283"><ele>54.2</ele><time>2026-04-12T12:15:39.836Z</time></trkpt><trkpt lat="45.424175" lon="11.1207483"><ele>55.800000000000004</ele><time>2026-04-12T12:15:41.836Z</time></trkpt><trkpt lat="45.4242417" lon="11.12086"><ele>57.400000000000006</ele><time>2026-04-12T12:15:42.836Z</time></trkpt><trkpt lat="45.4242933" lon="11.1209817"><ele>59.0</ele><time>2026-04-12T12:15:43.836Z</time></trkpt><trkpt lat="45.424345" lon="11.1211367"><ele>59.0</ele><time>2026-04-12T12:15:44.836Z</time></trkpt><trkpt lat="45.4244167" lon="11.1212717"><ele>59.0</ele><time>2026-04-12T12:15:45.836Z</time></trkpt><trkpt lat="45.42449" lon="11.1214267"><ele>59.0</ele><time>2026-04-12T12:15:46.836Z</time></trkpt><trkpt lat="45.424545" lon="11.1215917"><ele>59.0</ele><time>2026-04-12T12:15:47.836Z</time></trkpt><trkpt lat="45.4246033" lon="11.12178"><ele>59.333333333333336</ele><time>2026-04-12T12:15:48.836Z</time></trkpt><trkpt lat="45.4246617" lon="11.12198"><ele>59.66666666666667</ele><time>2026-04-12T12:15:49.836Z</time></trkpt><trkpt lat="45.4247033" lon="11.122195"><ele>60.0</ele><time>2026-04-12T12:15:50.836Z</time></trkpt><trkpt lat="45.4247333" lon="11.1224133"><ele>60.0</ele><time>2026-04-12T12:15:51.836Z</time></trkpt><trkpt lat="45.4247583" lon="11.122645"><ele>60.0</ele><time>2026-04-12T12:15:52.836Z</time></trkpt><trkpt lat="45.4247767" lon="11.1228833"><ele>60.0</ele><time>2026-04-12T12:15:53.836Z</time></trkpt><trkpt lat="45.4248017" lon="11.1231233"><ele>58.66666666666667</ele><time>2026-04-12T12:15:54.836Z</time></trkpt><trkpt lat="45.424825" lon="11.123365"><ele>57.333333333333336</ele><time>2026-04-12T12:15:55.836Z</time></trkpt><trkpt lat="45.424845" lon="11.1236117"><ele>56.0</ele><time>2026-04-12T12:15:56.836Z</time></trkpt><trkpt lat="45.424875" lon="11.1238617"><ele>55.0</ele><time>2026-04-12T12:15:57.836Z</time></trkpt><trkpt lat="45.424905" lon="11.1241033"><ele>54.0</ele><time>2026-04-12T12:15:58.836Z</time></trkpt><trkpt lat="45.424945" lon="11.1243467"><ele>53.0</ele><time>2026-04-12T12:15:59.836Z</time></trkpt><trkpt lat="45.4249917" lon="11.12458"><ele>53.0</ele><time>2026-04-12T12:16:00.835Z</time></trkpt><trkpt lat="45.4250283" lon="11.1248233"><ele>53.0</ele><time>2026-04-12T12:16:01.836Z</time></trkpt><trkpt lat="45.4250517" lon="11.12507"><ele>53.0</ele><time>2026-04-12T12:16:02.836Z</time></trkpt><trkpt lat="45.4250683" lon="11.1253117"><ele>51.0</ele><time>2026-04-12T12:16:03.836Z</time></trkpt><trkpt lat="45.4250883" lon="11.1255467"><ele>49.0</ele><time>2026-04-12T12:16:04.836Z</time></trkpt><trkpt lat="45.4250933" lon="11.12579"><ele>47.0</ele><time>2026-04-12T12:16:05.836Z</time></trkpt><trkpt lat="45.4250967" lon="11.126035"><ele>46.0</ele><time>2026-04-12T12:16:06.836Z</time></trkpt><trkpt lat="45.4250983" lon="11.1262667"><ele>45.0</ele><time>2026-04-12T12:16:07.836Z</time></trkpt><trkpt lat="45.4250983" lon="11.1264967"><ele>44.0</ele><time>2026-04-12T12:16:08.836Z</time></trkpt><trkpt lat="45.4250933" lon="11.1267233"><ele>43.0</ele><time>2026-04-12T12:16:09.836Z</time></trkpt><trkpt lat="45.42509" lon="11.1269433"><ele>42.0</ele><time>2026-04-12T12:16:10.836Z</time></trkpt><trkpt lat="45.4250867" lon="11.12717"><ele>41.0</ele><time>2026-04-12T12:16:11.836Z</time></trkpt><trkpt lat="45.4250883" lon="11.12739"><ele>41.0</ele><time>2026-04-12T12:16:12.836Z</time></trkpt><trkpt lat="45.4250833" lon="11.1276117"><ele>41.0</ele><time>2026-04-12T12:16:13.836Z</time></trkpt><trkpt lat="45.425075" lon="11.1278183"><ele>41.0</ele><time>2026-04-12T12:16:14.836Z</time></trkpt><trkpt lat="45.4250583" lon="11.1280217"><ele>41.0</ele><time>2026-04-12T12:16:15.836Z</time></trkpt><trkpt lat="45.4250383" lon="11.1282317"><ele>41.25</ele><time>2026-04-12T12:16:16.836Z</time></trkpt><trkpt lat="45.4250217" lon="11.128445"><ele>41.5</ele><time>2026-04-12T12:16:17.835Z</time></trkpt><trkpt lat="45.4249883" lon="11.1286617"><ele>41.75</ele><time>2026-04-12T12:16:18.836Z</time></trkpt><trkpt lat="45.4249567" lon="11.12885"><ele>42.0</ele><time>2026-04-12T12:16:19.836Z</time></trkpt><trkpt lat="45.4249133" lon="11.1290333"><ele>42.75</ele><time>2026-04-12T12:16:20.836Z</time></trkpt><trkpt lat="45.4248533" lon="11.1292183"><ele>43.5</ele><time>2026-04-12T12:16:21.836Z</time></trkpt><trkpt lat="45.4247867" lon="11.1294"><ele>44.25</ele><time>2026-04-12T12:16:22.836Z</time></trkpt><trkpt lat="45.4247233" lon="11.1295967"><ele>45.0</ele><time>2026-04-12T12:16:23.836Z</time></trkpt><trkpt lat="45.4246583" lon="11.1297933"><ele>45.0</ele><time>2026-04-12T12:16:24.836Z</time></trkpt><trkpt lat="45.4245867" lon="11.12999"><ele>45.0</ele><time>2026-04-12T12:16:25.836Z</time></trkpt><trkpt lat="45.42451" lon="11.1301933"><ele>45.0</ele><time>2026-04-12T12:16:26.836Z</time></trkpt><trkpt lat="45.4244333" lon="11.1303967"><ele>45.0</ele><time>2026-04-12T12:16:27.836Z</time></trkpt><trkpt lat="45.4243567" lon="11.13061"><ele>45.0</ele><time>2026-04-12T12:16:28.836Z</time></trkpt><trkpt lat="45.424285" lon="11.1308183"><ele>45.0</ele><time>2026-04-12T12:16:29.836Z</time></trkpt><trkpt lat="45.42421" lon="11.13103"><ele>46.33333333333333</ele><time>2026-04-12T12:16:30.836Z</time></trkpt><trkpt lat="45.4241317" lon="11.1312317"><ele>47.666666666666664</ele><time>2026-04-12T12:16:31.836Z</time></trkpt><trkpt lat="45.4240717" lon="11.13144"><ele>49.0</ele><time>2026-04-12T12:16:32.836Z</time></trkpt><trkpt lat="45.4240283" lon="11.1316633"><ele>49.666666666666664</ele><time>2026-04-12T12:16:33.836Z</time></trkpt><trkpt lat="45.4239983" lon="11.1318867"><ele>50.33333333333333</ele><time>2026-04-12T12:16:34.836Z</time></trkpt><trkpt lat="45.42397" lon="11.1321067"><ele>51.0</ele><time>2026-04-12T12:16:35.836Z</time></trkpt><trkpt lat="45.42395" lon="11.132325"><ele>52.66666666666667</ele><time>2026-04-12T12:16:36.836Z</time></trkpt><trkpt lat="45.42393" lon="11.13255"><ele>54.333333333333336</ele><time>2026-04-12T12:16:37.836Z</time></trkpt><trkpt lat="45.4239283" lon="11.1327633"><ele>56.0</ele><time>2026-04-12T12:16:38.836Z</time></trkpt><trkpt lat="45.4239033" lon="11.132985"><ele>56.0</ele><time>2026-04-12T12:16:39.836Z</time></trkpt><trkpt lat="45.4238833" lon="11.1332017"><ele>56.0</ele><time>2026-04-12T12:16:40.836Z</time></trkpt><trkpt lat="45.4238783" lon="11.1333983"><ele>56.0</ele><time>2026-04-12T12:16:41.836Z</time></trkpt><trkpt lat="45.423855" lon="11.13362"><ele>56.0</ele><time>2026-04-12T12:16:42.836Z</time></trkpt><trkpt lat="45.423845" lon="11.1338383"><ele>56.0</ele><time>2026-04-12T12:16:43.836Z</time></trkpt><trkpt lat="45.42384" lon="11.1340583"><ele>56.0</ele><time>2026-04-12T12:16:44.836Z</time></trkpt><trkpt lat="45.4238483" lon="11.134285"><ele>56.0</ele><time>2026-04-12T12:16:45.836Z</time></trkpt><trkpt lat="45.423875" lon="11.134505"><ele>56.0</ele><time>2026-04-12T12:16:46.836Z</time></trkpt><trkpt lat="45.4239167" lon="11.1347183"><ele>56.0</ele><time>2026-04-12T12:16:47.836Z</time></trkpt><trkpt lat="45.42397" lon="11.1349367"><ele>56.0</ele><time>2026-04-12T12:16:48.836Z</time></trkpt><trkpt lat="45.4240383" lon="11.1351367"><ele>55.0</ele><time>2026-04-12T12:16:49.836Z</time></trkpt><trkpt lat="45.4241133" lon="11.1353317"><ele>54.0</ele><time>2026-04-12T12:16:50.835Z</time></trkpt><trkpt lat="45.4242033" lon="11.1355233"><ele>53.0</ele><time>2026-04-12T12:16:51.836Z</time></trkpt><trkpt lat="45.42429" lon="11.135715"><ele>51.333333333333336</ele><time>2026-04-12T12:16:52.836Z</time></trkpt><trkpt lat="45.4243717" lon="11.1358983"><ele>49.66666666666667</ele><time>2026-04-12T12:16:53.836Z</time></trkpt><trkpt lat="45.4244583" lon="11.136075"><ele>48.0</ele><time>2026-04-12T12:16:54.836Z</time></trkpt><trkpt lat="45.4245433" lon="11.1362533"><ele>48.0</ele><time>2026-04-12T12:16:55.836Z</time></trkpt><trkpt lat="45.4246117" lon="11.1364333"><ele>48.0</ele><time>2026-04-12T12:16:56.836Z</time></trkpt><trkpt lat="45.42468" lon="11.1366067"><ele>48.0</ele><time>2026-04-12T12:16:57.836Z</time></trkpt><trkpt lat="45.4247467" lon="11.136765"><ele>48.0</ele><time>2026-04-12T12:16:58.836Z</time></trkpt><trkpt lat="45.4248017" lon="11.1368967"><ele>48.2</ele><time>2026-04-12T12:16:59.836Z</time></trkpt><trkpt lat="45.42484" lon="11.1370233"><ele>48.4</ele><time>2026-04-12T12:17:00.836Z</time></trkpt><trkpt lat="45.4248617" lon="11.1371667"><ele>48.6</ele><time>2026-04-12T12:17:01.836Z</time></trkpt><trkpt lat="45.4248633" lon="11.1372867"><ele>48.800000000000004</ele><time>2026-04-12T12:17:02.836Z</time></trkpt><trkpt lat="45.42486" lon="11.1374183"><ele>49.0</ele><time>2026-04-12T12:17:03.836Z</time></trkpt><trkpt lat="45.4248717" lon="11.1375483"><ele>49.0</ele><time>2026-04-12T12:17:04.836Z</time></trkpt><trkpt lat="45.424905" lon="11.1376783"><ele>49.0</ele><time>2026-04-12T12:17:05.836Z</time></trkpt><trkpt lat="45.4249633" lon="11.137785"><ele>49.0</ele><time>2026-04-12T12:17:06.836Z</time></trkpt><trkpt lat="45.4250433" lon="11.1378867"><ele>49.0</ele><time>2026-04-12T12:17:07.836Z</time></trkpt><trkpt lat="45.4251133" lon="11.1380033"><ele>49.0</ele><time>2026-04-12T12:17:08.836Z</time></trkpt><trkpt lat="45.425165" lon="11.13815"><ele>48.800000000000004</ele><time>2026-04-12T12:17:09.836Z</time></trkpt><trkpt lat="45.42521" lon="11.1383033"><ele>48.6</ele><time>2026-04-12T12:17:10.836Z</time></trkpt><trkpt lat="45.4252483" lon="11.1384533"><ele>48.4</ele><time>2026-04-12T12:17:11.836Z</time></trkpt><trkpt lat="45.425275" lon="11.138575"><ele>48.2</ele><time>2026-04-12T12:17:12.836Z</time></trkpt><trkpt lat="45.42534" lon="11.138705"><ele>48.0</ele><time>2026-04-12T12:17:14.836Z</time></trkpt><trkpt lat="45.4254067" lon="11.1387867"><ele>48.2</ele><time>2026-04-12T12:17:17.836Z</time></trkpt><trkpt lat="45.425485" lon="11.1388517"><ele>48.4</ele><time>2026-04-12T12:17:19.836Z</time></trkpt><trkpt lat="45.42559" lon="11.1389517"><ele>48.6</ele><time>2026-04-12T12:17:21.836Z</time></trkpt><trkpt lat="45.42567" lon="11.139025"><ele>48.800000000000004</ele><time>2026-04-12T12:17:22.835Z</time></trkpt><trkpt lat="45.425755" lon="11.13911"><ele>49.0</ele><time>2026-04-12T12:17:23.836Z</time></trkpt><trkpt lat="45.425845" lon="11.1392083"><ele>49.0</ele><time>2026-04-12T12:17:24.836Z</time></trkpt><trkpt lat="45.42595" lon="11.1393017"><ele>49.0</ele><time>2026-04-12T12:17:25.836Z</time></trkpt><trkpt lat="45.4260533" lon="11.1393983"><ele>49.0</ele><time>2026-04-12T12:17:26.836Z</time></trkpt><trkpt lat="45.4261583" lon="11.13951"><ele>49.0</ele><time>2026-04-12T12:17:27.836Z</time></trkpt><trkpt lat="45.4262633" lon="11.139625"><ele>49.5</ele><time>2026-04-12T12:17:28.836Z</time></trkpt><trkpt lat="45.4263817" lon="11.139735"><ele>50.0</ele><time>2026-04-12T12:17:29.836Z</time></trkpt><trkpt lat="45.4264967" lon="11.1398533"><ele>50.5</ele><time>2026-04-12T12:17:30.836Z</time></trkpt><trkpt lat="45.4266183" lon="11.1399683"><ele>51.0</ele><time>2026-04-12T12:17:31.836Z</time></trkpt><trkpt lat="45.4267433" lon="11.1400817"><ele>51.0</ele><time>2026-04-12T12:17:32.836Z</time></trkpt><trkpt lat="45.4268667" lon="11.1402083"><ele>51.0</ele><time>2026-04-12T12:17:33.836Z</time></trkpt><trkpt lat="45.4269917" lon="11.1403283"><ele>51.0</ele><time>2026-04-12T12:17:34.836Z</time></trkpt><trkpt lat="45.4271217" lon="11.1404483"><ele>51.0</ele><time>2026-04-12T12:17:35.836Z</time></trkpt><trkpt lat="45.4272483" lon="11.140565"><ele>51.0</ele><time>2026-04-12T12:17:36.836Z</time></trkpt><trkpt lat="45.4273983" lon="11.1406933"><ele>51.0</ele><time>2026-04-12T12:17:37.836Z</time></trkpt><trkpt lat="45.4275317" lon="11.140805"><ele>51.0</ele><time>2026-04-12T12:17:38.836Z</time></trkpt><trkpt lat="45.4276583" lon="11.14092"><ele>51.0</ele><time>2026-04-12T12:17:39.836Z</time></trkpt><trkpt lat="45.427785" lon="11.1410283"><ele>51.0</ele><time>2026-04-12T12:17:40.836Z</time></trkpt><trkpt lat="45.427915" lon="11.1411267"><ele>51.0</ele><time>2026-04-12T12:17:41.836Z</time></trkpt><trkpt lat="45.4280417" lon="11.1412317"><ele>51.0</ele><time>2026-04-12T12:17:42.836Z</time></trkpt><trkpt lat="45.4281483" lon="11.141335"><ele>51.0</ele><time>2026-04-12T12:17:43.836Z</time></trkpt><trkpt lat="45.4282733" lon="11.14146"><ele>51.0</ele><time>2026-04-12T12:17:44.836Z</time></trkpt><trkpt lat="45.4283917" lon="11.1415917"><ele>51.0</ele><time>2026-04-12T12:17:45.836Z</time></trkpt><trkpt lat="45.4285067" lon="11.1417283"><ele>51.0</ele><time>2026-04-12T12:17:46.836Z</time></trkpt><trkpt lat="45.4286217" lon="11.14186"><ele>51.0</ele><time>2026-04-12T12:17:47.836Z</time></trkpt><trkpt lat="45.4287483" lon="11.1419883"><ele>51.0</ele><time>2026-04-12T12:17:48.836Z</time></trkpt><trkpt lat="45.4288767" lon="11.1421117"><ele>50.66666666666667</ele><time>2026-04-12T12:17:49.836Z</time></trkpt><trkpt lat="45.4290133" lon="11.142225"><ele>50.333333333333336</ele><time>2026-04-12T12:17:50.836Z</time></trkpt><trkpt lat="45.4291583" lon="11.14235"><ele>50.0</ele><time>2026-04-12T12:17:51.836Z</time></trkpt><trkpt lat="45.4293117" lon="11.1424733"><ele>50.66666666666667</ele><time>2026-04-12T12:17:52.836Z</time></trkpt><trkpt lat="45.42947" lon="11.1425983"><ele>51.33333333333333</ele><time>2026-04-12T12:17:53.836Z</time></trkpt><trkpt lat="45.4296317" lon="11.14272"><ele>52.0</ele><time>2026-04-12T12:17:54.836Z</time></trkpt><trkpt lat="45.4297767" lon="11.1428483"><ele>52.0</ele><time>2026-04-12T12:17:55.836Z</time></trkpt><trkpt lat="45.4299267" lon="11.1429733"><ele>52.0</ele><time>2026-04-12T12:17:56.836Z</time></trkpt><trkpt lat="45.4300833" lon="11.1431033"><ele>52.0</ele><time>2026-04-12T12:17:57.836Z</time></trkpt><trkpt lat="45.430225" lon="11.1432333"><ele>52.0</ele><time>2026-04-12T12:17:58.836Z</time></trkpt><trkpt lat="45.4303617" lon="11.1433567"><ele>52.0</ele><time>2026-04-12T12:17:59.836Z</time></trkpt><trkpt lat="45.4305117" lon="11.1434717"><ele>52.0</ele><time>2026-04-12T12:18:00.836Z</time></trkpt><trkpt lat="45.4306617" lon="11.1435983"><ele>53.0</ele><time>2026-04-12T12:18:01.836Z</time></trkpt><trkpt lat="45.4308117" lon="11.1437217"><ele>54.0</ele><time>2026-04-12T12:18:02.836Z</time></trkpt><trkpt lat="45.4309583" lon="11.14386"><ele>55.0</ele><time>2026-04-12T12:18:03.836Z</time></trkpt><trkpt lat="45.4311033" lon="11.1439917"><ele>55.0</ele><time>2026-04-12T12:18:04.836Z</time></trkpt><trkpt lat="45.43125" lon="11.1441133"><ele>55.0</ele><time>2026-04-12T12:18:05.836Z</time></trkpt><trkpt lat="45.43139" lon="11.1442433"><ele>55.0</ele><time>2026-04-12T12:18:06.836Z</time></trkpt><trkpt lat="45.43153" lon="11.1443717"><ele>55.666666666666664</ele><time>2026-04-12T12:18:07.836Z</time></trkpt><trkpt lat="45.4316783" lon="11.1444933"><ele>56.33333333333333</ele><time>2026-04-12T12:18:08.836Z</time></trkpt><trkpt lat="45.4318283" lon="11.1446167"><ele>57.0</ele><time>2026-04-12T12:18:09.836Z</time></trkpt><trkpt lat="45.4319683" lon="11.144745"><ele>57.0</ele><time>2026-04-12T12:18:10.836Z</time></trkpt><trkpt lat="45.43212" lon="11.14487"><ele>57.0</ele><time>2026-04-12T12:18:11.836Z</time></trkpt><trkpt lat="45.432265" lon="11.14499"><ele>57.0</ele><time>2026-04-12T12:18:12.836Z</time></trkpt><trkpt lat="45.4324017" lon="11.1451083"><ele>57.66666666666667</ele><time>2026-04-12T12:18:13.836Z</time></trkpt><trkpt lat="45.432545" lon="11.1452267"><ele>58.333333333333336</ele><time>2026-04-12T12:18:14.836Z</time></trkpt><trkpt lat="45.4327" lon="11.1453467"><ele>59.0</ele><time>2026-04-12T12:18:15.835Z</time></trkpt><trkpt lat="45.43285" lon="11.1454667"><ele>59.333333333333336</ele><time>2026-04-12T12:18:16.836Z</time></trkpt><trkpt lat="45.4330117" lon="11.1455833"><ele>59.66666666666667</ele><time>2026-04-12T12:18:17.836Z</time></trkpt><trkpt lat="45.4331717" lon="11.1457017"><ele>60.0</ele><time>2026-04-12T12:18:18.836Z</time></trkpt><trkpt lat="45.4333283" lon="11.145825"><ele>60.33333333333333</ele><time>2026-04-12T12:18:19.836Z</time></trkpt><trkpt lat="45.43349" lon="11.1459333"><ele>60.666666666666664</ele><time>2026-04-12T12:18:20.836Z</time></trkpt><trkpt lat="45.43364" lon="11.146045"><ele>61.0</ele><time>2026-04-12T12:18:21.836Z</time></trkpt><trkpt lat="45.4337967" lon="11.146145"><ele>61.0</ele><time>2026-04-12T12:18:22.836Z</time></trkpt><trkpt lat="45.43396" lon="11.14624"><ele>61.0</ele><time>2026-04-12T12:18:23.835Z</time></trkpt><trkpt lat="45.4341167" lon="11.1463367"><ele>61.0</ele><time>2026-04-12T12:18:24.836Z</time></trkpt><trkpt lat="45.434275" lon="11.146435"><ele>61.0</ele><time>2026-04-12T12:18:25.836Z</time></trkpt><trkpt lat="45.4344183" lon="11.1465383"><ele>61.0</ele><time>2026-04-12T12:18:26.836Z</time></trkpt><trkpt lat="45.434565" lon="11.1466417"><ele>61.0</ele><time>2026-04-12T12:18:27.836Z</time></trkpt><trkpt lat="45.434715" lon="11.1467467"><ele>61.666666666666664</ele><time>2026-04-12T12:18:28.836Z</time></trkpt><trkpt lat="45.4348767" lon="11.1468533"><ele>62.33333333333333</ele><time>2026-04-12T12:18:29.836Z</time></trkpt><trkpt lat="45.435035" lon="11.1469733"><ele>63.0</ele><time>2026-04-12T12:18:30.836Z</time></trkpt><trkpt lat="45.4351983" lon="11.1470883"><ele>63.0</ele><time>2026-04-12T12:18:31.836Z</time></trkpt><trkpt lat="45.4353483" lon="11.14721"><ele>63.0</ele><time>2026-04-12T12:18:32.836Z</time></trkpt><trkpt lat="45.4355017" lon="11.147325"><ele>63.0</ele><time>2026-04-12T12:18:33.836Z</time></trkpt><trkpt lat="45.4356567" lon="11.14744"><ele>64.33333333333333</ele><time>2026-04-12T12:18:34.836Z</time></trkpt><trkpt lat="45.4358133" lon="11.14756"><ele>65.66666666666666</ele><time>2026-04-12T12:18:35.836Z</time></trkpt><trkpt lat="45.4359683" lon="11.1476817"><ele>67.0</ele><time>2026-04-12T12:18:36.836Z</time></trkpt><trkpt lat="45.4361167" lon="11.1477983"><ele>67.0</ele><time>2026-04-12T12:18:37.836Z</time></trkpt><trkpt lat="45.43627" lon="11.1479267"><ele>67.0</ele><time>2026-04-12T12:18:38.836Z</time></trkpt><trkpt lat="45.4364083" lon="11.14806"><ele>67.0</ele><time>2026-04-12T12:18:39.836Z</time></trkpt><trkpt lat="45.4365483" lon="11.1482"><ele>67.66666666666666</ele><time>2026-04-12T12:18:40.836Z</time></trkpt><trkpt lat="45.436675" lon="11.1483517"><ele>68.33333333333333</ele><time>2026-04-12T12:18:41.836Z</time></trkpt><trkpt lat="45.4367967" lon="11.1485117"><ele>69.0</ele><time>2026-04-12T12:18:42.836Z</time></trkpt><trkpt lat="45.4369067" lon="11.14867"><ele>69.0</ele><time>2026-04-12T12:18:43.836Z</time></trkpt><trkpt lat="45.4370167" lon="11.14884"><ele>69.0</ele><time>2026-04-12T12:18:44.836Z</time></trkpt><trkpt lat="45.4371167" lon="11.1490167"><ele>69.0</ele><time>2026-04-12T12:18:45.836Z</time></trkpt><trkpt lat="45.4372183" lon="11.149205"><ele>69.33333333333333</ele><time>2026-04-12T12:18:46.836Z</time></trkpt><trkpt lat="45.43734" lon="11.149395"><ele>69.66666666666666</ele><time>2026-04-12T12:18:47.836Z</time></trkpt><trkpt lat="45.4374533" lon="11.1495867"><ele>70.0</ele><time>2026-04-12T12:18:48.836Z</time></trkpt><trkpt lat="45.4375567" lon="11.149785"><ele>70.66666666666666</ele><time>2026-04-12T12:18:49.836Z</time></trkpt><trkpt lat="45.4376533" lon="11.1499767"><ele>71.33333333333333</ele><time>2026-04-12T12:18:50.836Z</time></trkpt><trkpt lat="45.4377367" lon="11.1501833"><ele>72.0</ele><time>2026-04-12T12:18:51.836Z</time></trkpt><trkpt lat="45.43782" lon="11.15039"><ele>72.0</ele><time>2026-04-12T12:18:52.836Z</time></trkpt><trkpt lat="45.4379033" lon="11.1505933"><ele>72.0</ele><time>2026-04-12T12:18:53.836Z</time></trkpt><trkpt lat="45.4379883" lon="11.15081"><ele>72.0</ele><time>2026-04-12T12:18:54.836Z</time></trkpt><trkpt lat="45.43808" lon="11.15102"><ele>72.66666666666667</ele><time>2026-04-12T12:18:55.836Z</time></trkpt><trkpt lat="45.4381733" lon="11.15123"><ele>73.33333333333334</ele><time>2026-04-12T12:18:56.836Z</time></trkpt><trkpt lat="45.4382583" lon="11.1514267"><ele>74.0</ele><time>2026-04-12T12:18:57.836Z</time></trkpt><trkpt lat="45.4383417" lon="11.1516317"><ele>74.66666666666667</ele><time>2026-04-12T12:18:58.836Z</time></trkpt><trkpt lat="45.4384283" lon="11.1518433"><ele>75.33333333333333</ele><time>2026-04-12T12:18:59.836Z</time></trkpt><trkpt lat="45.4385117" lon="11.15204"><ele>76.0</ele><time>2026-04-12T12:19:00.835Z</time></trkpt><trkpt lat="45.438595" lon="11.1522317"><ele>75.66666666666666</ele><time>2026-04-12T12:19:01.836Z</time></trkpt><trkpt lat="45.43871" lon="11.1524183"><ele>75.33333333333333</ele><time>2026-04-12T12:19:02.836Z</time></trkpt><trkpt lat="45.4388133" lon="11.1526017"><ele>75.0</ele><time>2026-04-12T12:19:03.836Z</time></trkpt><trkpt lat="45.43893" lon="11.1527817"><ele>75.66666666666667</ele><time>2026-04-12T12:19:04.836Z</time></trkpt><trkpt lat="45.4390517" lon="11.152965"><ele>76.33333333333334</ele><time>2026-04-12T12:19:05.836Z</time></trkpt><trkpt lat="45.439185" lon="11.1531383"><ele>77.0</ele><time>2026-04-12T12:19:06.836Z</time></trkpt><trkpt lat="45.43932" lon="11.1533083"><ele>77.0</ele><time>2026-04-12T12:19:07.836Z</time></trkpt><trkpt lat="45.4394517" lon="11.15348"><ele>77.0</ele><time>2026-04-12T12:19:08.836Z</time></trkpt><trkpt lat="45.4395817" lon="11.1536467"><ele>77.0</ele><time>2026-04-12T12:19:09.836Z</time></trkpt><trkpt lat="45.4397233" lon="11.15382"><ele>78.0</ele><time>2026-04-12T12:19:10.836Z</time></trkpt><trkpt lat="45.439855" lon="11.1539683"><ele>79.0</ele><time>2026-04-12T12:19:11.836Z</time></trkpt><trkpt lat="45.4399933" lon="11.15411"><ele>80.0</ele><time>2026-04-12T12:19:12.836Z</time></trkpt><trkpt lat="45.44013" lon="11.15425"><ele>80.0</ele><time>2026-04-12T12:19:13.836Z</time></trkpt><trkpt lat="45.4402733" lon="11.154385"><ele>80.0</ele><time>2026-04-12T12:19:14.836Z</time></trkpt><trkpt lat="45.4404267" lon="11.154505"><ele>80.0</ele><time>2026-04-12T12:19:15.836Z</time></trkpt><trkpt lat="45.440585" lon="11.1546217"><ele>80.33333333333334</ele><time>2026-04-12T12:19:16.836Z</time></trkpt><trkpt lat="45.4407367" lon="11.154735"><ele>80.66666666666667</ele><time>2026-04-12T12:19:17.836Z</time></trkpt><trkpt lat="45.4408717" lon="11.1548317"><ele>81.0</ele><time>2026-04-12T12:19:18.836Z</time></trkpt><trkpt lat="45.441015" lon="11.1549267"><ele>81.66666666666667</ele><time>2026-04-12T12:19:19.836Z</time></trkpt><trkpt lat="45.4411517" lon="11.155025"><ele>82.33333333333334</ele><time>2026-04-12T12:19:20.836Z</time></trkpt><trkpt lat="45.4412833" lon="11.1551367"><ele>83.0</ele><time>2026-04-12T12:19:21.836Z</time></trkpt><trkpt lat="45.4413983" lon="11.1552767"><ele>83.66666666666667</ele><time>2026-04-12T12:19:22.836Z</time></trkpt><trkpt lat="45.4415133" lon="11.1554183"><ele>84.33333333333333</ele><time>2026-04-12T12:19:23.836Z</time></trkpt><trkpt lat="45.4416167" lon="11.1555767"><ele>85.0</ele><time>2026-04-12T12:19:24.836Z</time></trkpt><trkpt lat="45.4417317" lon="11.1557317"><ele>85.66666666666666</ele><time>2026-04-12T12:19:25.836Z</time></trkpt><trkpt lat="45.4418483" lon="11.1558917"><ele>86.33333333333333</ele><time>2026-04-12T12:19:26.836Z</time></trkpt><trkpt lat="45.441975" lon="11.1560483"><ele>87.0</ele><time>2026-04-12T12:19:27.836Z</time></trkpt><trkpt lat="45.4420917" lon="11.1562117"><ele>87.33333333333333</ele><time>2026-04-12T12:19:28.836Z</time></trkpt><trkpt lat="45.4422083" lon="11.1563733"><ele>87.66666666666666</ele><time>2026-04-12T12:19:29.836Z</time></trkpt><trkpt lat="45.4423167" lon="11.1565217"><ele>88.0</ele><time>2026-04-12T12:19:30.836Z</time></trkpt><trkpt lat="45.44243" lon="11.1566617"><ele>88.0</ele><time>2026-04-12T12:19:31.836Z</time></trkpt><trkpt lat="45.4425417" lon="11.1567933"><ele>88.0</ele><time>2026-04-12T12:19:32.836Z</time></trkpt><trkpt lat="45.442645" lon="11.1569183"><ele>88.0</ele><time>2026-04-12T12:19:33.836Z</time></trkpt><trkpt lat="45.4427467" lon="11.1570383"><ele>88.0</ele><time>2026-04-12T12:19:34.836Z</time></trkpt><trkpt lat="45.442835" lon="11.1571717"><ele>88.0</ele><time>2026-04-12T12:19:35.836Z</time></trkpt><trkpt lat="45.4429183" lon="11.1572867"><ele>88.0</ele><time>2026-04-12T12:19:36.836Z</time></trkpt><trkpt lat="45.4430133" lon="11.15739"><ele>88.0</ele><time>2026-04-12T12:19:37.836Z</time></trkpt><trkpt lat="45.44311" lon="11.15748"><ele>88.0</ele><time>2026-04-12T12:19:38.836Z</time></trkpt><trkpt lat="45.4432417" lon="11.1575433"><ele>89.0</ele><time>2026-04-12T12:19:39.836Z</time></trkpt><trkpt lat="45.4433883" lon="11.1576067"><ele>90.0</ele><time>2026-04-12T12:19:40.836Z</time></trkpt><trkpt lat="45.4435383" lon="11.1576617"><ele>91.0</ele><time>2026-04-12T12:19:41.836Z</time></trkpt><trkpt lat="45.4436967" lon="11.1577267"><ele>91.66666666666666</ele><time>2026-04-12T12:19:42.836Z</time></trkpt><trkpt lat="45.443845" lon="11.157795"><ele>92.33333333333333</ele><time>2026-04-12T12:19:43.836Z</time></trkpt><trkpt lat="45.44399" lon="11.1578683"><ele>93.0</ele><time>2026-04-12T12:19:44.836Z</time></trkpt><trkpt lat="45.44414" lon="11.157945"><ele>93.0</ele><time>2026-04-12T12:19:45.836Z</time></trkpt><trkpt lat="45.4442933" lon="11.1580183"><ele>93.0</ele><time>2026-04-12T12:19:46.836Z</time></trkpt><trkpt lat="45.4444567" lon="11.1580883"><ele>93.0</ele><time>2026-04-12T12:19:47.836Z</time></trkpt><trkpt lat="45.4446183" lon="11.15816"><ele>93.66666666666667</ele><time>2026-04-12T12:19:48.836Z</time></trkpt><trkpt lat="45.444775" lon="11.1582367"><ele>94.33333333333334</ele><time>2026-04-12T12:19:49.836Z</time></trkpt><trkpt lat="45.44494" lon="11.15831"><ele>95.0</ele><time>2026-04-12T12:19:50.836Z</time></trkpt><trkpt lat="45.445105" lon="11.1583867"><ele>95.0</ele><time>2026-04-12T12:19:51.836Z</time></trkpt><trkpt lat="45.4452683" lon="11.1584617"><ele>95.0</ele><time>2026-04-12T12:19:52.836Z</time></trkpt><trkpt lat="45.4454183" lon="11.1585483"><ele>95.0</ele><time>2026-04-12T12:19:53.836Z</time></trkpt><trkpt lat="45.4455767" lon="11.1586517"><ele>96.33333333333334</ele><time>2026-04-12T12:19:54.836Z</time></trkpt><trkpt lat="45.4457283" lon="11.1587617"><ele>97.66666666666667</ele><time>2026-04-12T12:19:55.836Z</time></trkpt><trkpt lat="45.44588" lon="11.158895"><ele>99.0</ele><time>2026-04-12T12:19:56.835Z</time></trkpt><trkpt lat="45.4460283" lon="11.1590233"><ele>99.66666666666666</ele><time>2026-04-12T12:19:57.836Z</time></trkpt><trkpt lat="45.4461783" lon="11.1591633"><ele>100.33333333333333</ele><time>2026-04-12T12:19:58.836Z</time></trkpt><trkpt lat="45.4463167" lon="11.1592917"><ele>101.0</ele><time>2026-04-12T12:19:59.836Z</time></trkpt><trkpt lat="45.4464517" lon="11.1594167"><ele>101.33333333333333</ele><time>2026-04-12T12:20:00.836Z</time></trkpt><trkpt lat="45.4465883" lon="11.1595567"><ele>101.66666666666666</ele><time>2026-04-12T12:20:01.836Z</time></trkpt><trkpt lat="45.446715" lon="11.1596917"><ele>102.0</ele><time>2026-04-12T12:20:02.836Z</time></trkpt><trkpt lat="45.4468333" lon="11.1598217"><ele>102.5</ele><time>2026-04-12T12:20:03.836Z</time></trkpt><trkpt lat="45.4469517" lon="11.1599467"><ele>103.0</ele><time>2026-04-12T12:20:04.836Z</time></trkpt><trkpt lat="45.4470567" lon="11.1600617"><ele>103.5</ele><time>2026-04-12T12:20:05.836Z</time></trkpt><trkpt lat="45.4471433" lon="11.1601517"><ele>104.0</ele><time>2026-04-12T12:20:06.836Z</time></trkpt><trkpt lat="45.4472133" lon="11.16023"><ele>103.99999999999999</ele><time>2026-04-12T12:20:07.836Z</time></trkpt><trkpt lat="45.44726" lon="11.1602967"><ele>104.0</ele><time>2026-04-12T12:20:08.836Z</time></trkpt><trkpt lat="45.44728" lon="11.1604083"><ele>104.0</ele><time>2026-04-12T12:20:10.836Z</time></trkpt><trkpt lat="45.4472033" lon="11.1605133"><ele>104.0</ele><time>2026-04-12T12:20:12.836Z</time></trkpt><trkpt lat="45.4471533" lon="11.1605833"><ele>103.99999999999999</ele><time>2026-04-12T12:20:13.836Z</time></trkpt><trkpt lat="45.44711" lon="11.1606817"><ele>104.0</ele><time>2026-04-12T12:20:14.836Z</time></trkpt><trkpt lat="45.44709" lon="11.1607967"><ele>103.99999999999999</ele><time>2026-04-12T12:20:15.836Z</time></trkpt><trkpt lat="45.4470833" lon="11.160925"><ele>104.0</ele><time>2026-04-12T12:20:16.836Z</time></trkpt><trkpt lat="45.4470733" lon="11.1610467"><ele>104.0</ele><time>2026-04-12T12:20:17.836Z</time></trkpt><trkpt lat="45.44708" lon="11.1611817"><ele>104.0</ele><time>2026-04-12T12:20:18.836Z</time></trkpt><trkpt lat="45.4471133" lon="11.1612933"><ele>103.99999999999999</ele><time>2026-04-12T12:20:19.836Z</time></trkpt><trkpt lat="45.4471633" lon="11.1613867"><ele>104.0</ele><time>2026-04-12T12:20:20.836Z</time></trkpt><trkpt lat="45.4472567" lon="11.1614417"><ele>104.4</ele><time>2026-04-12T12:20:21.836Z</time></trkpt><trkpt lat="45.4473567" lon="11.16146"><ele>104.80000000000001</ele><time>2026-04-12T12:20:22.836Z</time></trkpt><trkpt lat="45.447465" lon="11.1614683"><ele>105.19999999999999</ele><time>2026-04-12T12:20:23.836Z</time></trkpt><trkpt lat="45.4475767" lon="11.1614833"><ele>105.6</ele><time>2026-04-12T12:20:24.836Z</time></trkpt><trkpt lat="45.4476917" lon="11.1615083"><ele>106.0</ele><time>2026-04-12T12:20:25.836Z</time></trkpt><trkpt lat="45.4478067" lon="11.1615433"><ele>106.0</ele><time>2026-04-12T12:20:26.836Z</time></trkpt><trkpt lat="45.447925" lon="11.1615733"><ele>106.0</ele><time>2026-04-12T12:20:27.836Z</time></trkpt><trkpt lat="45.4480517" lon="11.1615983"><ele>106.0</ele><time>2026-04-12T12:20:28.836Z</time></trkpt><trkpt lat="45.4481817" lon="11.16162"><ele>106.0</ele><time>2026-04-12T12:20:29.836Z</time></trkpt><trkpt lat="45.44831" lon="11.16164"><ele>106.5</ele><time>2026-04-12T12:20:30.836Z</time></trkpt><trkpt lat="45.4484467" lon="11.1616667"><ele>107.0</ele><time>2026-04-12T12:20:31.835Z</time></trkpt><trkpt lat="45.448585" lon="11.1616867"><ele>107.5</ele><time>2026-04-12T12:20:32.836Z</time></trkpt><trkpt lat="45.4487283" lon="11.1617033"><ele>108.0</ele><time>2026-04-12T12:20:33.836Z</time></trkpt><trkpt lat="45.44886" lon="11.161715"><ele>109.0</ele><time>2026-04-12T12:20:34.836Z</time></trkpt><trkpt lat="45.44901" lon="11.161735"><ele>110.0</ele><time>2026-04-12T12:20:35.836Z</time></trkpt><trkpt lat="45.4491383" lon="11.16175"><ele>111.0</ele><time>2026-04-12T12:20:36.836Z</time></trkpt><trkpt lat="45.44928" lon="11.1617633"><ele>112.0</ele><time>2026-04-12T12:20:37.836Z</time></trkpt><trkpt lat="45.4494267" lon="11.1617633"><ele>112.0</ele><time>2026-04-12T12:20:38.836Z</time></trkpt><trkpt lat="45.4495667" lon="11.1617633"><ele>112.0</ele><time>2026-04-12T12:20:39.836Z</time></trkpt><trkpt lat="45.449705" lon="11.1617617"><ele>112.0</ele><time>2026-04-12T12:20:40.836Z</time></trkpt><trkpt lat="45.44984" lon="11.1617617"><ele>112.0</ele><time>2026-04-12T12:20:41.836Z</time></trkpt><trkpt lat="45.4499733" lon="11.16178"><ele>112.25</ele><time>2026-04-12T12:20:42.836Z</time></trkpt><trkpt lat="45.45011" lon="11.1618117"><ele>112.5</ele><time>2026-04-12T12:20:43.836Z</time></trkpt><trkpt lat="45.4502433" lon="11.16186"><ele>112.75</ele><time>2026-04-12T12:20:44.836Z</time></trkpt><trkpt lat="45.4503817" lon="11.1619283"><ele>113.0</ele><time>2026-04-12T12:20:45.836Z</time></trkpt><trkpt lat="45.4505217" lon="11.162"><ele>113.75</ele><time>2026-04-12T12:20:46.836Z</time></trkpt><trkpt lat="45.45066" lon="11.1620683"><ele>114.5</ele><time>2026-04-12T12:20:47.836Z</time></trkpt><trkpt lat="45.4507917" lon="11.1621333"><ele>115.25</ele><time>2026-04-12T12:20:48.836Z</time></trkpt><trkpt lat="45.45093" lon="11.1621983"><ele>116.0</ele><time>2026-04-12T12:20:49.836Z</time></trkpt><trkpt lat="45.4510683" lon="11.1622717"><ele>116.0</ele><time>2026-04-12T12:20:50.836Z</time></trkpt><trkpt lat="45.451205" lon="11.1623367"><ele>116.0</ele><time>2026-04-12T12:20:51.836Z</time></trkpt><trkpt lat="45.4513467" lon="11.1624067"><ele>116.0</ele><time>2026-04-12T12:20:52.836Z</time></trkpt><trkpt lat="45.4516183" lon="11.1625383"><ele>116.75</ele><time>2026-04-12T12:20:54.836Z</time></trkpt><trkpt lat="45.45176" lon="11.1626083"><ele>117.5</ele><time>2026-04-12T12:20:55.836Z</time></trkpt><trkpt lat="45.4519017" lon="11.162675"><ele>118.25</ele><time>2026-04-12T12:20:56.836Z</time></trkpt><trkpt lat="45.4520417" lon="11.1627417"><ele>119.0</ele><time>2026-04-12T12:20:57.836Z</time></trkpt><trkpt lat="45.452175" lon="11.1628033"><ele>119.5</ele><time>2026-04-12T12:20:58.836Z</time></trkpt><trkpt lat="45.4523083" lon="11.1628667"><ele>120.0</ele><time>2026-04-12T12:20:59.836Z</time></trkpt><trkpt lat="45.452445" lon="11.162935"><ele>120.5</ele><time>2026-04-12T12:21:00.836Z</time></trkpt><trkpt lat="45.45259" lon="11.163005"><ele>121.0</ele><time>2026-04-12T12:21:01.836Z</time></trkpt><trkpt lat="45.45273" lon="11.16307"><ele>121.0</ele><time>2026-04-12T12:21:02.836Z</time></trkpt><trkpt lat="45.4528667" lon="11.1631333"><ele>121.0</ele><time>2026-04-12T12:21:03.836Z</time></trkpt><trkpt lat="45.45299" lon="11.1631933"><ele>121.0</ele><time>2026-04-12T12:21:04.836Z</time></trkpt><trkpt lat="45.4531167" lon="11.1632383"><ele>121.0</ele><time>2026-04-12T12:21:05.836Z</time></trkpt><trkpt lat="45.4532467" lon="11.16327"><ele>121.5</ele><time>2026-04-12T12:21:06.836Z</time></trkpt><trkpt lat="45.4533667" lon="11.1632883"><ele>122.0</ele><time>2026-04-12T12:21:07.836Z</time></trkpt><trkpt lat="45.4534933" lon="11.1632967"><ele>122.5</ele><time>2026-04-12T12:21:08.836Z</time></trkpt><trkpt lat="45.4536183" lon="11.1632783"><ele>123.0</ele><time>2026-04-12T12:21:09.836Z</time></trkpt><trkpt lat="45.4537383" lon="11.163255"><ele>123.2</ele><time>2026-04-12T12:21:10.836Z</time></trkpt><trkpt lat="45.4538517" lon="11.163235"><ele>123.4</ele><time>2026-04-12T12:21:11.836Z</time></trkpt><trkpt lat="45.4539517" lon="11.1632233"><ele>123.60000000000001</ele><time>2026-04-12T12:21:12.836Z</time></trkpt><trkpt lat="45.4540533" lon="11.1632083"><ele>123.80000000000001</ele><time>2026-04-12T12:21:13.836Z</time></trkpt><trkpt lat="45.4541533" lon="11.16319"><ele>124.0</ele><time>2026-04-12T12:21:14.836Z</time></trkpt><trkpt lat="45.4542667" lon="11.1631833"><ele>124.25</ele><time>2026-04-12T12:21:15.836Z</time></trkpt><trkpt lat="45.454385" lon="11.1631717"><ele>124.5</ele><time>2026-04-12T12:21:16.836Z</time></trkpt><trkpt lat="45.4545033" lon="11.1631717"><ele>124.75</ele><time>2026-04-12T12:21:17.836Z</time></trkpt><trkpt lat="45.4546267" lon="11.1631833"><ele>125.0</ele><time>2026-04-12T12:21:18.836Z</time></trkpt><trkpt lat="45.454755" lon="11.1631917"><ele>125.5</ele><time>2026-04-12T12:21:19.836Z</time></trkpt><trkpt lat="45.4548867" lon="11.163205"><ele>126.0</ele><time>2026-04-12T12:21:20.836Z</time></trkpt><trkpt lat="45.4550117" lon="11.163215"><ele>126.5</ele><time>2026-04-12T12:21:21.836Z</time></trkpt><trkpt lat="45.45514" lon="11.16323"><ele>127.0</ele><time>2026-04-12T12:21:22.836Z</time></trkpt><trkpt lat="45.455265" lon="11.16324"><ele>127.0</ele><time>2026-04-12T12:21:23.836Z</time></trkpt><trkpt lat="45.4553967" lon="11.1632483"><ele>127.0</ele><time>2026-04-12T12:21:24.836Z</time></trkpt><trkpt lat="45.4555217" lon="11.1632533"><ele>127.0</ele><time>2026-04-12T12:21:25.836Z</time></trkpt><trkpt lat="45.45565" lon="11.1632633"><ele>127.0</ele><time>2026-04-12T12:21:26.836Z</time></trkpt><trkpt lat="45.4557733" lon="11.1632733"><ele>127.75</ele><time>2026-04-12T12:21:27.836Z</time></trkpt><trkpt lat="45.4558917" lon="11.16328"><ele>128.5</ele><time>2026-04-12T12:21:28.836Z</time></trkpt><trkpt lat="45.4560083" lon="11.1632833"><ele>129.25</ele><time>2026-04-12T12:21:29.836Z</time></trkpt><trkpt lat="45.456135" lon="11.163295"><ele>130.0</ele><time>2026-04-12T12:21:30.836Z</time></trkpt><trkpt lat="45.45625" lon="11.1633033"><ele>130.4</ele><time>2026-04-12T12:21:31.836Z</time></trkpt><trkpt lat="45.4563567" lon="11.163315"><ele>130.8</ele><time>2026-04-12T12:21:32.836Z</time></trkpt><trkpt lat="45.456465" lon="11.163335"><ele>131.2</ele><time>2026-04-12T12:21:33.836Z</time></trkpt><trkpt lat="45.456575" lon="11.1633533"><ele>131.6</ele><time>2026-04-12T12:21:34.836Z</time></trkpt><trkpt lat="45.45668" lon="11.1633867"><ele>132.0</ele><time>2026-04-12T12:21:35.836Z</time></trkpt><trkpt lat="45.45677" lon="11.163445"><ele>132.0</ele><time>2026-04-12T12:21:36.836Z</time></trkpt><trkpt lat="45.4568467" lon="11.16353"><ele>132.0</ele><time>2026-04-12T12:21:37.836Z</time></trkpt><trkpt lat="45.4569117" lon="11.16364"><ele>132.0</ele><time>2026-04-12T12:21:38.836Z</time></trkpt><trkpt lat="45.4569583" lon="11.1637767"><ele>132.0</ele><time>2026-04-12T12:21:39.836Z</time></trkpt><trkpt lat="45.4570017" lon="11.16393"><ele>132.0</ele><time>2026-04-12T12:21:40.836Z</time></trkpt><trkpt lat="45.45705" lon="11.1641033"><ele>132.25</ele><time>2026-04-12T12:21:41.836Z</time></trkpt><trkpt lat="45.4571033" lon="11.1642867"><ele>132.5</ele><time>2026-04-12T12:21:42.836Z</time></trkpt><trkpt lat="45.4571583" lon="11.1644717"><ele>132.75</ele><time>2026-04-12T12:21:43.836Z</time></trkpt><trkpt lat="45.45721" lon="11.1646667"><ele>133.0</ele><time>2026-04-12T12:21:44.836Z</time></trkpt><trkpt lat="45.4572633" lon="11.1648583"><ele>134.0</ele><time>2026-04-12T12:21:45.836Z</time></trkpt><trkpt lat="45.457325" lon="11.165055"><ele>135.0</ele><time>2026-04-12T12:21:46.836Z</time></trkpt><trkpt lat="45.4573933" lon="11.16526"><ele>136.0</ele><time>2026-04-12T12:21:47.836Z</time></trkpt><trkpt lat="45.45745" lon="11.165465"><ele>136.0</ele><time>2026-04-12T12:21:48.836Z</time></trkpt><trkpt lat="45.4575067" lon="11.1656733"><ele>136.0</ele><time>2026-04-12T12:21:49.836Z</time></trkpt><trkpt lat="45.457565" lon="11.16589"><ele>136.0</ele><time>2026-04-12T12:21:50.836Z</time></trkpt><trkpt lat="45.45762" lon="11.1661"><ele>136.0</ele><time>2026-04-12T12:21:51.836Z</time></trkpt><trkpt lat="45.45768" lon="11.1663033"><ele>136.0</ele><time>2026-04-12T12:21:52.836Z</time></trkpt><trkpt lat="45.4577433" lon="11.1665"><ele>136.0</ele><time>2026-04-12T12:21:53.836Z</time></trkpt><trkpt lat="45.4577983" lon="11.166695"><ele>136.0</ele><time>2026-04-12T12:21:54.836Z</time></trkpt><trkpt lat="45.4578567" lon="11.1668967"><ele>136.0</ele><time>2026-04-12T12:21:55.836Z</time></trkpt><trkpt lat="45.45792" lon="11.1671033"><ele>136.0</ele><time>2026-04-12T12:21:56.836Z</time></trkpt><trkpt lat="45.457975" lon="11.1673133"><ele>136.33333333333334</ele><time>2026-04-12T12:21:57.836Z</time></trkpt><trkpt lat="45.45803" lon="11.167525"><ele>136.66666666666666</ele><time>2026-04-12T12:21:58.836Z</time></trkpt><trkpt lat="45.4580883" lon="11.16774"><ele>137.0</ele><time>2026-04-12T12:21:59.836Z</time></trkpt><trkpt lat="45.4581433" lon="11.1679533"><ele>137.0</ele><time>2026-04-12T12:22:00.836Z</time></trkpt><trkpt lat="45.4582033" lon="11.1681633"><ele>137.0</ele><time>2026-04-12T12:22:01.836Z</time></trkpt><trkpt lat="45.458265" lon="11.1683733"><ele>137.0</ele><time>2026-04-12T12:22:02.836Z</time></trkpt><trkpt lat="45.4583267" lon="11.168575"><ele>137.0</ele><time>2026-04-12T12:22:03.836Z</time></trkpt><trkpt lat="45.45838" lon="11.1687767"><ele>137.0</ele><time>2026-04-12T12:22:04.836Z</time></trkpt><trkpt lat="45.4584383" lon="11.1689867"><ele>137.0</ele><time>2026-04-12T12:22:05.836Z</time></trkpt><trkpt lat="45.458495" lon="11.1691883"><ele>137.0</ele><time>2026-04-12T12:22:06.836Z</time></trkpt><trkpt lat="45.458555" lon="11.1693717"><ele>137.0</ele><time>2026-04-12T12:22:07.836Z</time></trkpt><trkpt lat="45.45861" lon="11.169555"><ele>137.0</ele><time>2026-04-12T12:22:08.836Z</time></trkpt><trkpt lat="45.45866" lon="11.16974"><ele>137.0</ele><time>2026-04-12T12:22:09.836Z</time></trkpt><trkpt lat="45.4587117" lon="11.1699267"><ele>137.0</ele><time>2026-04-12T12:22:10.836Z</time></trkpt><trkpt lat="45.4587567" lon="11.17012"><ele>137.0</ele><time>2026-04-12T12:22:11.836Z</time></trkpt><trkpt lat="45.4588083" lon="11.1703133"><ele>137.0</ele><time>2026-04-12T12:22:12.836Z</time></trkpt><trkpt lat="45.4588583" lon="11.1705067"><ele>137.0</ele><time>2026-04-12T12:22:13.836Z</time></trkpt><trkpt lat="45.4589083" lon="11.1706917"><ele>137.75</ele><time>2026-04-12T12:22:14.836Z</time></trkpt><trkpt lat="45.4589683" lon="11.1708767"><ele>138.5</ele><time>2026-04-12T12:22:15.836Z</time></trkpt><trkpt lat="45.4590267" lon="11.17106"><ele>139.25</ele><time>2026-04-12T12:22:16.836Z</time></trkpt><trkpt lat="45.4590883" lon="11.17125"><ele>140.0</ele><time>2026-04-12T12:22:17.836Z</time></trkpt><trkpt lat="45.45915" lon="11.1714317"><ele>140.0</ele><time>2026-04-12T12:22:18.836Z</time></trkpt><trkpt lat="45.459215" lon="11.1716133"><ele>140.0</ele><time>2026-04-12T12:22:19.836Z</time></trkpt><trkpt lat="45.4592933" lon="11.1717917"><ele>140.0</ele><time>2026-04-12T12:22:20.836Z</time></trkpt><trkpt lat="45.45937" lon="11.171965"><ele>140.0</ele><time>2026-04-12T12:22:21.836Z</time></trkpt><trkpt lat="45.45944" lon="11.1721383"><ele>140.0</ele><time>2026-04-12T12:22:22.836Z</time></trkpt><trkpt lat="45.4595083" lon="11.17231"><ele>140.0</ele><time>2026-04-12T12:22:23.836Z</time></trkpt><trkpt lat="45.4595733" lon="11.1724867"><ele>140.0</ele><time>2026-04-12T12:22:24.836Z</time></trkpt><trkpt lat="45.4596367" lon="11.172665"><ele>140.0</ele><time>2026-04-12T12:22:25.836Z</time></trkpt><trkpt lat="45.4597" lon="11.17284"><ele>140.25</ele><time>2026-04-12T12:22:26.836Z</time></trkpt><trkpt lat="45.4597667" lon="11.1730133"><ele>140.5</ele><time>2026-04-12T12:22:27.836Z</time></trkpt><trkpt lat="45.4598283" lon="11.1731817"><ele>140.75</ele><time>2026-04-12T12:22:28.836Z</time></trkpt><trkpt lat="45.4598883" lon="11.1733517"><ele>141.0</ele><time>2026-04-12T12:22:29.836Z</time></trkpt><trkpt lat="45.4599483" lon="11.1735283"><ele>141.25</ele><time>2026-04-12T12:22:30.836Z</time></trkpt><trkpt lat="45.460015" lon="11.1737167"><ele>141.5</ele><time>2026-04-12T12:22:31.836Z</time></trkpt><trkpt lat="45.4600767" lon="11.1738983"><ele>141.75</ele><time>2026-04-12T12:22:32.836Z</time></trkpt><trkpt lat="45.4601433" lon="11.17408"><ele>142.0</ele><time>2026-04-12T12:22:33.836Z</time></trkpt><trkpt lat="45.46021" lon="11.1742583"><ele>142.0</ele><time>2026-04-12T12:22:34.836Z</time></trkpt><trkpt lat="45.4602783" lon="11.17442"><ele>142.0</ele><time>2026-04-12T12:22:35.836Z</time></trkpt><trkpt lat="45.46036" lon="11.1745883"><ele>142.0</ele><time>2026-04-12T12:22:36.836Z</time></trkpt><trkpt lat="45.4604383" lon="11.1747533"><ele>142.0</ele><time>2026-04-12T12:22:37.836Z</time></trkpt><trkpt lat="45.46052" lon="11.1748967"><ele>142.25</ele><time>2026-04-12T12:22:38.835Z</time></trkpt><trkpt lat="45.460615" lon="11.175035"><ele>142.5</ele><time>2026-04-12T12:22:39.836Z</time></trkpt><trkpt lat="45.4607" lon="11.17518"><ele>142.75</ele><time>2026-04-12T12:22:40.836Z</time></trkpt><trkpt lat="45.4607783" lon="11.175325"><ele>143.0</ele><time>2026-04-12T12:22:41.836Z</time></trkpt><trkpt lat="45.4608567" lon="11.1754667"><ele>143.0</ele><time>2026-04-12T12:22:42.836Z</time></trkpt><trkpt lat="45.46093" lon="11.17561"><ele>143.0</ele><time>2026-04-12T12:22:43.836Z</time></trkpt><trkpt lat="45.4610083" lon="11.1757517"><ele>143.0</ele><time>2026-04-12T12:22:44.836Z</time></trkpt><trkpt lat="45.46109" lon="11.175895"><ele>143.0</ele><time>2026-04-12T12:22:45.836Z</time></trkpt><trkpt lat="45.4611633" lon="11.17604"><ele>143.0</ele><time>2026-04-12T12:22:46.836Z</time></trkpt><trkpt lat="45.461225" lon="11.17619"><ele>143.0</ele><time>2026-04-12T12:22:47.836Z</time></trkpt><trkpt lat="45.4612917" lon="11.17634"><ele>143.0</ele><time>2026-04-12T12:22:48.836Z</time></trkpt><trkpt lat="45.46136" lon="11.1764833"><ele>143.0</ele><time>2026-04-12T12:22:49.836Z</time></trkpt><trkpt lat="45.46143" lon="11.176615"><ele>143.6</ele><time>2026-04-12T12:22:50.836Z</time></trkpt><trkpt lat="45.4614917" lon="11.1767383"><ele>144.20000000000002</ele><time>2026-04-12T12:22:51.836Z</time></trkpt><trkpt lat="45.461545" lon="11.17684"><ele>144.8</ele><time>2026-04-12T12:22:52.836Z</time></trkpt><trkpt lat="45.4615917" lon="11.176925"><ele>145.4</ele><time>2026-04-12T12:22:53.836Z</time></trkpt><trkpt lat="45.4616517" lon="11.1770383"><ele>146.0</ele><time>2026-04-12T12:22:55.836Z</time></trkpt><trkpt lat="45.4617167" lon="11.1771517"><ele>146.0</ele><time>2026-04-12T12:22:58.836Z</time></trkpt><trkpt lat="45.4618167" lon="11.17725"><ele>146.0</ele><time>2026-04-12T12:23:00.836Z</time></trkpt><trkpt lat="45.4618833" lon="11.1772983"><ele>146.0</ele><time>2026-04-12T12:23:01.836Z</time></trkpt><trkpt lat="45.4619617" lon="11.1773567"><ele>146.0</ele><time>2026-04-12T12:23:02.836Z</time></trkpt><trkpt lat="45.4620517" lon="11.1774167"><ele>146.0</ele><time>2026-04-12T12:23:03.836Z</time></trkpt><trkpt lat="45.4621433" lon="11.1774817"><ele>146.75</ele><time>2026-04-12T12:23:04.836Z</time></trkpt><trkpt lat="45.4622417" lon="11.17755"><ele>147.5</ele><time>2026-04-12T12:23:05.836Z</time></trkpt><trkpt lat="45.462345" lon="11.1776217"><ele>148.25</ele><time>2026-04-12T12:23:06.836Z</time></trkpt><trkpt lat="45.4624517" lon="11.1776983"><ele>149.0</ele><time>2026-04-12T12:23:07.836Z</time></trkpt><trkpt lat="45.4625617" lon="11.177785"><ele>149.0</ele><time>2026-04-12T12:23:08.836Z</time></trkpt><trkpt lat="45.4626833" lon="11.1778683"><ele>149.0</ele><time>2026-04-12T12:23:09.836Z</time></trkpt><trkpt lat="45.4628017" lon="11.1779517"><ele>149.0</ele><time>2026-04-12T12:23:10.836Z</time></trkpt><trkpt lat="45.4629133" lon="11.1780483"><ele>149.0</ele><time>2026-04-12T12:23:11.836Z</time></trkpt><trkpt lat="45.4630267" lon="11.178145"><ele>149.75</ele><time>2026-04-12T12:23:12.836Z</time></trkpt><trkpt lat="45.46315" lon="11.1782333"><ele>150.5</ele><time>2026-04-12T12:23:13.836Z</time></trkpt><trkpt lat="45.463265" lon="11.1783217"><ele>151.25</ele><time>2026-04-12T12:23:14.836Z</time></trkpt><trkpt lat="45.4633833" lon="11.1784067"><ele>152.0</ele><time>2026-04-12T12:23:15.836Z</time></trkpt><trkpt lat="45.46351" lon="11.178495"><ele>152.0</ele><time>2026-04-12T12:23:16.836Z</time></trkpt><trkpt lat="45.4636333" lon="11.1785833"><ele>152.0</ele><time>2026-04-12T12:23:17.836Z</time></trkpt><trkpt lat="45.46376" lon="11.1786867"><ele>152.0</ele><time>2026-04-12T12:23:18.836Z</time></trkpt><trkpt lat="45.4638917" lon="11.17878"><ele>152.0</ele><time>2026-04-12T12:23:19.836Z</time></trkpt><trkpt lat="45.4640267" lon="11.17887"><ele>152.75</ele><time>2026-04-12T12:23:20.836Z</time></trkpt><trkpt lat="45.4641467" lon="11.1789517"><ele>153.5</ele><time>2026-04-12T12:23:21.836Z</time></trkpt><trkpt lat="45.464275" lon="11.1790383"><ele>154.25</ele><time>2026-04-12T12:23:22.836Z</time></trkpt><trkpt lat="45.4644183" lon="11.1791167"><ele>155.0</ele><time>2026-04-12T12:23:23.836Z</time></trkpt><trkpt lat="45.4645517" lon="11.17919"><ele>155.75</ele><time>2026-04-12T12:23:24.836Z</time></trkpt><trkpt lat="45.46469" lon="11.1792517"><ele>156.5</ele><time>2026-04-12T12:23:25.836Z</time></trkpt><trkpt lat="45.4648333" lon="11.1793033"><ele>157.25</ele><time>2026-04-12T12:23:26.836Z</time></trkpt><trkpt lat="45.4649767" lon="11.1793467"><ele>158.0</ele><time>2026-04-12T12:23:27.836Z</time></trkpt><trkpt lat="45.4651133" lon="11.179405"><ele>158.0</ele><time>2026-04-12T12:23:28.836Z</time></trkpt><trkpt lat="45.4652567" lon="11.1794617"><ele>158.0</ele><time>2026-04-12T12:23:29.836Z</time></trkpt><trkpt lat="45.4653867" lon="11.1795"><ele>158.0</ele><time>2026-04-12T12:23:30.836Z</time></trkpt><trkpt lat="45.465505" lon="11.179535"><ele>158.0</ele><time>2026-04-12T12:23:31.836Z</time></trkpt><trkpt lat="45.465625" lon="11.179575"><ele>158.60000000000002</ele><time>2026-04-12T12:23:32.836Z</time></trkpt><trkpt lat="45.46573" lon="11.1795983"><ele>159.20000000000002</ele><time>2026-04-12T12:23:33.836Z</time></trkpt><trkpt lat="45.4658333" lon="11.17963"><ele>159.8</ele><time>2026-04-12T12:23:34.836Z</time></trkpt><trkpt lat="45.4659267" lon="11.1796567"><ele>160.4</ele><time>2026-04-12T12:23:35.836Z</time></trkpt><trkpt lat="45.466005" lon="11.1796783"><ele>161.0</ele><time>2026-04-12T12:23:36.836Z</time></trkpt><trkpt lat="45.4660733" lon="11.1797033"><ele>161.0</ele><time>2026-04-12T12:23:37.836Z</time></trkpt><trkpt lat="45.4661767" lon="11.179725"><ele>161.0</ele><time>2026-04-12T12:23:39.836Z</time></trkpt><trkpt lat="45.4662683" lon="11.1797367"><ele>161.0</ele><time>2026-04-12T12:23:41.836Z</time></trkpt><trkpt lat="45.4663483" lon="11.17977"><ele>161.0</ele><time>2026-04-12T12:23:43.836Z</time></trkpt><trkpt lat="45.46642" lon="11.1797133"><ele>161.0</ele><time>2026-04-12T12:23:58.836Z</time></trkpt><trkpt lat="45.4665083" lon="11.17971"><ele>161.60000000000002</ele><time>2026-04-12T12:24:01.836Z</time></trkpt><trkpt lat="45.4665967" lon="11.1797367"><ele>162.2</ele><time>2026-04-12T12:24:02.836Z</time></trkpt><trkpt lat="45.4666817" lon="11.17977"><ele>162.8</ele><time>2026-04-12T12:24:03.836Z</time></trkpt><trkpt lat="45.4667867" lon="11.1798133"><ele>163.39999999999998</ele><time>2026-04-12T12:24:04.836Z</time></trkpt><trkpt lat="45.4669033" lon="11.1798617"><ele>164.0</ele><time>2026-04-12T12:24:05.836Z</time></trkpt><trkpt lat="45.467015" lon="11.179915"><ele>164.75</ele><time>2026-04-12T12:24:06.836Z</time></trkpt><trkpt lat="45.4671283" lon="11.1799733"><ele>165.5</ele><time>2026-04-12T12:24:07.836Z</time></trkpt><trkpt lat="45.4672417" lon="11.1800167"><ele>166.25</ele><time>2026-04-12T12:24:08.836Z</time></trkpt><trkpt lat="45.4673583" lon="11.180075"><ele>167.0</ele><time>2026-04-12T12:24:09.836Z</time></trkpt><trkpt lat="45.4674483" lon="11.1800967"><ele>167.0</ele><time>2026-04-12T12:24:10.836Z</time></trkpt><trkpt lat="45.4675533" lon="11.1801317"><ele>167.0</ele><time>2026-04-12T12:24:11.836Z</time></trkpt><trkpt lat="45.467665" lon="11.18014"><ele>167.0</ele><time>2026-04-12T12:24:12.836Z</time></trkpt><trkpt lat="45.4677817" lon="11.1801633"><ele>167.0</ele><time>2026-04-12T12:24:13.836Z</time></trkpt><trkpt lat="45.4678983" lon="11.18017"><ele>167.75</ele><time>2026-04-12T12:24:14.836Z</time></trkpt><trkpt lat="45.46802" lon="11.1801583"><ele>168.5</ele><time>2026-04-12T12:24:15.836Z</time></trkpt><trkpt lat="45.4681567" lon="11.1801517"><ele>169.25</ele><time>2026-04-12T12:24:16.836Z</time></trkpt><trkpt lat="45.4682767" lon="11.1801333"><ele>170.0</ele><time>2026-04-12T12:24:17.836Z</time></trkpt><trkpt lat="45.4684067" lon="11.1801067"><ele>170.0</ele><time>2026-04-12T12:24:18.836Z</time></trkpt><trkpt lat="45.468545" lon="11.1801"><ele>170.0</ele><time>2026-04-12T12:24:19.836Z</time></trkpt><trkpt lat="45.4686783" lon="11.1800967"><ele>170.0</ele><time>2026-04-12T12:24:20.836Z</time></trkpt><trkpt lat="45.4688033" lon="11.1800683"><ele>170.0</ele><time>2026-04-12T12:24:21.836Z</time></trkpt><trkpt lat="45.4689433" lon="11.1800517"><ele>170.75</ele><time>2026-04-12T12:24:22.836Z</time></trkpt><trkpt lat="45.4690983" lon="11.1800517"><ele>171.5</ele><time>2026-04-12T12:24:23.836Z</time></trkpt><trkpt lat="45.4692333" lon="11.18005"><ele>172.25</ele><time>2026-04-12T12:24:24.836Z</time></trkpt><trkpt lat="45.469365" lon="11.1800617"><ele>173.0</ele><time>2026-04-12T12:24:25.836Z</time></trkpt><trkpt lat="45.4694917" lon="11.1800783"><ele>173.5</ele><time>2026-04-12T12:24:26.836Z</time></trkpt><trkpt lat="45.4696233" lon="11.1801117"><ele>174.0</ele><time>2026-04-12T12:24:27.836Z</time></trkpt><trkpt lat="45.4697467" lon="11.18015"><ele>174.5</ele><time>2026-04-12T12:24:28.836Z</time></trkpt><trkpt lat="45.4698717" lon="11.1802083"><ele>175.0</ele><time>2026-04-12T12:24:29.836Z</time></trkpt><trkpt lat="45.4699983" lon="11.1802917"><ele>175.0</ele><time>2026-04-12T12:24:30.836Z</time></trkpt><trkpt lat="45.470135" lon="11.180375"><ele>175.0</ele><time>2026-04-12T12:24:31.836Z</time></trkpt><trkpt lat="45.4702683" lon="11.1804533"><ele>175.0</ele><time>2026-04-12T12:24:32.836Z</time></trkpt><trkpt lat="45.4703967" lon="11.180525"><ele>175.0</ele><time>2026-04-12T12:24:33.836Z</time></trkpt><trkpt lat="45.4705217" lon="11.18058"><ele>175.66666666666669</ele><time>2026-04-12T12:24:34.836Z</time></trkpt><trkpt lat="45.4706633" lon="11.1806583"><ele>176.33333333333334</ele><time>2026-04-12T12:24:35.835Z</time></trkpt><trkpt lat="45.470825" lon="11.18072"><ele>177.0</ele><time>2026-04-12T12:24:36.835Z</time></trkpt><trkpt lat="45.4709667" lon="11.1807617"><ele>177.25</ele><time>2026-04-12T12:24:37.836Z</time></trkpt><trkpt lat="45.4711" lon="11.1808017"><ele>177.5</ele><time>2026-04-12T12:24:38.836Z</time></trkpt><trkpt lat="45.4712383" lon="11.1808417"><ele>177.75</ele><time>2026-04-12T12:24:39.836Z</time></trkpt><trkpt lat="45.471375" lon="11.180865"><ele>178.0</ele><time>2026-04-12T12:24:40.836Z</time></trkpt><trkpt lat="45.471515" lon="11.180865"><ele>178.0</ele><time>2026-04-12T12:24:41.836Z</time></trkpt><trkpt lat="45.4716533" lon="11.1808583"><ele>178.0</ele><time>2026-04-12T12:24:42.836Z</time></trkpt><trkpt lat="45.4717917" lon="11.1808433"><ele>178.0</ele><time>2026-04-12T12:24:43.836Z</time></trkpt><trkpt lat="45.4719283" lon="11.18082"><ele>178.0</ele><time>2026-04-12T12:24:44.836Z</time></trkpt><trkpt lat="45.472055" lon="11.1808217"><ele>178.5</ele><time>2026-04-12T12:24:45.836Z</time></trkpt><trkpt lat="45.4721833" lon="11.18084"><ele>179.0</ele><time>2026-04-12T12:24:46.836Z</time></trkpt><trkpt lat="45.472305" lon="11.18088"><ele>179.5</ele><time>2026-04-12T12:24:47.836Z</time></trkpt><trkpt lat="45.4724233" lon="11.180915"><ele>180.0</ele><time>2026-04-12T12:24:48.836Z</time></trkpt><trkpt lat="45.4725433" lon="11.1809433"><ele>180.0</ele><time>2026-04-12T12:24:49.836Z</time></trkpt><trkpt lat="45.47264" lon="11.1809917"><ele>180.0</ele><time>2026-04-12T12:24:50.836Z</time></trkpt><trkpt lat="45.4727367" lon="11.1810233"><ele>180.0</ele><time>2026-04-12T12:24:51.836Z</time></trkpt><trkpt lat="45.4728167" lon="11.1810533"><ele>180.0</ele><time>2026-04-12T12:24:52.836Z</time></trkpt><trkpt lat="45.4728783" lon="11.1811017"><ele>180.0</ele><time>2026-04-12T12:24:53.836Z</time></trkpt><trkpt lat="45.4729133" lon="11.1811767"><ele>180.0</ele><time>2026-04-12T12:24:54.836Z</time></trkpt><trkpt lat="45.4729383" lon="11.1812683"><ele>180.4</ele><time>2026-04-12T12:24:55.836Z</time></trkpt><trkpt lat="45.4729633" lon="11.1813783"><ele>180.8</ele><time>2026-04-12T12:24:56.836Z</time></trkpt><trkpt lat="45.4729967" lon="11.1815017"><ele>181.2</ele><time>2026-04-12T12:24:57.836Z</time></trkpt><trkpt lat="45.4730417" lon="11.18164"><ele>181.6</ele><time>2026-04-12T12:24:58.836Z</time></trkpt><trkpt lat="45.4731067" lon="11.1817433"><ele>182.0</ele><time>2026-04-12T12:24:59.836Z</time></trkpt><trkpt lat="45.473195" lon="11.18183"><ele>182.0</ele><time>2026-04-12T12:25:00.836Z</time></trkpt><trkpt lat="45.47329" lon="11.18191"><ele>182.0</ele><time>2026-04-12T12:25:01.836Z</time></trkpt><trkpt lat="45.4733933" lon="11.18199"><ele>182.0</ele><time>2026-04-12T12:25:02.836Z</time></trkpt><trkpt lat="45.473495" lon="11.1820767"><ele>182.0</ele><time>2026-04-12T12:25:03.836Z</time></trkpt><trkpt lat="45.4736" lon="11.18219"><ele>182.0</ele><time>2026-04-12T12:25:04.836Z</time></trkpt><trkpt lat="45.4737083" lon="11.182295"><ele>182.0</ele><time>2026-04-12T12:25:05.836Z</time></trkpt><trkpt lat="45.473825" lon="11.1823983"><ele>182.0</ele><time>2026-04-12T12:25:06.836Z</time></trkpt><trkpt lat="45.4739383" lon="11.18251"><ele>182.0</ele><time>2026-04-12T12:25:07.836Z</time></trkpt><trkpt lat="45.4740667" lon="11.1826283"><ele>182.33333333333331</ele><time>2026-04-12T12:25:08.836Z</time></trkpt><trkpt lat="45.4741917" lon="11.182745"><ele>182.66666666666666</ele><time>2026-04-12T12:25:09.836Z</time></trkpt><trkpt lat="45.4743133" lon="11.182865"><ele>183.0</ele><time>2026-04-12T12:25:10.836Z</time></trkpt><trkpt lat="45.4744383" lon="11.18299"><ele>183.0</ele><time>2026-04-12T12:25:11.836Z</time></trkpt><trkpt lat="45.474555" lon="11.1831317"><ele>183.0</ele><time>2026-04-12T12:25:12.836Z</time></trkpt><trkpt lat="45.4746717" lon="11.1832733"><ele>183.0</ele><time>2026-04-12T12:25:13.836Z</time></trkpt><trkpt lat="45.4747733" lon="11.1834133"><ele>183.0</ele><time>2026-04-12T12:25:14.836Z</time></trkpt><trkpt lat="45.4748917" lon="11.183545"><ele>183.5</ele><time>2026-04-12T12:25:15.836Z</time></trkpt><trkpt lat="45.4749883" lon="11.1836467"><ele>184.0</ele><time>2026-04-12T12:25:16.836Z</time></trkpt><trkpt lat="45.4751267" lon="11.1837317"><ele>184.5</ele><time>2026-04-12T12:25:17.836Z</time></trkpt><trkpt lat="45.475265" lon="11.1837967"><ele>185.0</ele><time>2026-04-12T12:25:18.836Z</time></trkpt><trkpt lat="45.4754" lon="11.1838367"><ele>185.4</ele><time>2026-04-12T12:25:19.836Z</time></trkpt><trkpt lat="45.47551" lon="11.1838767"><ele>185.8</ele><time>2026-04-12T12:25:20.836Z</time></trkpt><trkpt lat="45.4755983" lon="11.1839117"><ele>186.2</ele><time>2026-04-12T12:25:21.836Z</time></trkpt><trkpt lat="45.4756733" lon="11.183935"><ele>186.6</ele><time>2026-04-12T12:25:22.836Z</time></trkpt><trkpt lat="45.4757767" lon="11.183885"><ele>187.0</ele><time>2026-04-12T12:25:24.836Z</time></trkpt><trkpt lat="45.475805" lon="11.1837117"><ele>187.0</ele><time>2026-04-12T12:25:26.836Z</time></trkpt><trkpt lat="45.4757967" lon="11.1835967"><ele>187.0</ele><time>2026-04-12T12:25:27.836Z</time></trkpt><trkpt lat="45.4757567" lon="11.1834533"><ele>187.0</ele><time>2026-04-12T12:25:28.836Z</time></trkpt><trkpt lat="45.475715" lon="11.1833"><ele>187.0</ele><time>2026-04-12T12:25:29.835Z</time></trkpt><trkpt lat="45.475675" lon="11.183155"><ele>187.0</ele><time>2026-04-12T12:25:30.836Z</time></trkpt><trkpt lat="45.4756433" lon="11.182995"><ele>187.0</ele><time>2026-04-12T12:25:31.836Z</time></trkpt><trkpt lat="45.4756033" lon="11.1828467"><ele>187.0</ele><time>2026-04-12T12:25:32.836Z</time></trkpt><trkpt lat="45.4755567" lon="11.1826933"><ele>187.0</ele><time>2026-04-12T12:25:33.836Z</time></trkpt><trkpt lat="45.4755167" lon="11.1825417"><ele>187.0</ele><time>2026-04-12T12:25:34.836Z</time></trkpt><trkpt lat="45.47548" lon="11.18239"><ele>187.25</ele><time>2026-04-12T12:25:35.836Z</time></trkpt><trkpt lat="45.47545" lon="11.18222"><ele>187.5</ele><time>2026-04-12T12:25:36.836Z</time></trkpt><trkpt lat="45.47542" lon="11.18205"><ele>187.75</ele><time>2026-04-12T12:25:37.836Z</time></trkpt><trkpt lat="45.4753867" lon="11.181885"><ele>188.0</ele><time>2026-04-12T12:25:38.836Z</time></trkpt><trkpt lat="45.4753583" lon="11.1817183"><ele>187.60000000000002</ele><time>2026-04-12T12:25:39.836Z</time></trkpt><trkpt lat="45.475325" lon="11.1815633"><ele>187.20000000000002</ele><time>2026-04-12T12:25:40.836Z</time></trkpt><trkpt lat="45.4752983" lon="11.181415"><ele>186.8</ele><time>2026-04-12T12:25:41.836Z</time></trkpt><trkpt lat="45.4752817" lon="11.181285"><ele>186.4</ele><time>2026-04-12T12:25:42.836Z</time></trkpt><trkpt lat="45.475265" lon="11.1811867"><ele>186.0</ele><time>2026-04-12T12:25:43.836Z</time></trkpt><trkpt lat="45.4752817" lon="11.18107"><ele>186.0</ele><time>2026-04-12T12:25:45.836Z</time></trkpt><trkpt lat="45.475375" lon="11.181005"><ele>186.0</ele><time>2026-04-12T12:25:49.836Z</time></trkpt><trkpt lat="45.4754917" lon="11.181005"><ele>186.0</ele><time>2026-04-12T12:25:51.836Z</time></trkpt><trkpt lat="45.4755717" lon="11.181015"><ele>186.0</ele><time>2026-04-12T12:25:52.836Z</time></trkpt><trkpt lat="45.47566" lon="11.1810117"><ele>186.0</ele><time>2026-04-12T12:25:53.836Z</time></trkpt><trkpt lat="45.4757567" lon="11.1810167"><ele>186.60000000000002</ele><time>2026-04-12T12:25:54.836Z</time></trkpt><trkpt lat="45.475845" lon="11.181025"><ele>187.2</ele><time>2026-04-12T12:25:55.836Z</time></trkpt><trkpt lat="45.4759483" lon="11.1810217"><ele>187.8</ele><time>2026-04-12T12:25:56.836Z</time></trkpt><trkpt lat="45.4760483" lon="11.1810317"><ele>188.39999999999998</ele><time>2026-04-12T12:25:57.836Z</time></trkpt><trkpt lat="45.47615" lon="11.1810333"><ele>189.0</ele><time>2026-04-12T12:25:58.836Z</time></trkpt><trkpt lat="45.4762567" lon="11.1810267"><ele>189.39999999999998</ele><time>2026-04-12T12:25:59.836Z</time></trkpt><trkpt lat="45.4763583" lon="11.181015"><ele>189.8</ele><time>2026-04-12T12:26:00.836Z</time></trkpt><trkpt lat="45.4764667" lon="11.18099"><ele>190.2</ele><time>2026-04-12T12:26:01.836Z</time></trkpt><trkpt lat="45.4765767" lon="11.180955"><ele>190.60000000000002</ele><time>2026-04-12T12:26:02.836Z</time></trkpt><trkpt lat="45.476685" lon="11.1809217"><ele>191.0</ele><time>2026-04-12T12:26:03.836Z</time></trkpt><trkpt lat="45.4767983" lon="11.18089"><ele>191.0</ele><time>2026-04-12T12:26:04.836Z</time></trkpt><trkpt lat="45.476915" lon="11.1808683"><ele>191.0</ele><time>2026-04-12T12:26:05.836Z</time></trkpt><trkpt lat="45.4770367" lon="11.180845"><ele>191.0</ele><time>2026-04-12T12:26:06.836Z</time></trkpt><trkpt lat="45.4771583" lon="11.180825"><ele>191.0</ele><time>2026-04-12T12:26:07.836Z</time></trkpt><trkpt lat="45.47727" lon="11.1808067"><ele>191.8</ele><time>2026-04-12T12:26:08.836Z</time></trkpt><trkpt lat="45.47739" lon="11.18078"><ele>192.60000000000002</ele><time>2026-04-12T12:26:09.836Z</time></trkpt><trkpt lat="45.477485" lon="11.180745"><ele>193.4</ele><time>2026-04-12T12:26:10.836Z</time></trkpt><trkpt lat="45.4775667" lon="11.1807133"><ele>194.2</ele><time>2026-04-12T12:26:11.836Z</time></trkpt><trkpt lat="45.4776367" lon="11.1806817"><ele>195.0</ele><time>2026-04-12T12:26:12.836Z</time></trkpt><trkpt lat="45.4777367" lon="11.180675"><ele>195.0</ele><time>2026-04-12T12:26:14.836Z</time></trkpt><trkpt lat="45.4777633" lon="11.1807683"><ele>195.0</ele><time>2026-04-12T12:26:16.836Z</time></trkpt><trkpt lat="45.4777533" lon="11.18087"><ele>195.0</ele><time>2026-04-12T12:26:18.836Z</time></trkpt><trkpt lat="45.47776" lon="11.18077"><ele>195.0</ele><time>2026-04-12T12:26:28.835Z</time></trkpt><trkpt lat="45.4777967" lon="11.1806767"><ele>195.0</ele><time>2026-04-12T12:27:03.835Z</time></trkpt><trkpt lat="45.4777733" lon="11.1805833"><ele>195.0</ele><time>2026-04-12T12:27:53.835Z</time></trkpt><trkpt lat="45.4776983" lon="11.1806083"><ele>195.0</ele><time>2026-04-12T12:27:55.835Z</time></trkpt><trkpt lat="45.4775867" lon="11.1806717"><ele>195.0</ele><time>2026-04-12T12:27:57.835Z</time></trkpt><trkpt lat="45.47751" lon="11.1807083"><ele>195.0</ele><time>2026-04-12T12:27:58.835Z</time></trkpt><trkpt lat="45.47742" lon="11.1807433"><ele>195.0</ele><time>2026-04-12T12:27:59.835Z</time></trkpt><trkpt lat="45.4773" lon="11.1807633"><ele>195.0</ele><time>2026-04-12T12:28:00.835Z</time></trkpt><trkpt lat="45.4771883" lon="11.1807867"><ele>195.0</ele><time>2026-04-12T12:28:01.835Z</time></trkpt><trkpt lat="45.4770733" lon="11.1808117"><ele>194.0</ele><time>2026-04-12T12:28:02.835Z</time></trkpt><trkpt lat="45.4769533" lon="11.1808283"><ele>193.0</ele><time>2026-04-12T12:28:03.835Z</time></trkpt><trkpt lat="45.47683" lon="11.1808517"><ele>192.0</ele><time>2026-04-12T12:28:04.835Z</time></trkpt><trkpt lat="45.4767033" lon="11.1808783"><ele>191.0</ele><time>2026-04-12T12:28:05.835Z</time></trkpt><trkpt lat="45.4765783" lon="11.180905"><ele>191.0</ele><time>2026-04-12T12:28:06.835Z</time></trkpt><trkpt lat="45.4764567" lon="11.1809317"><ele>191.0</ele><time>2026-04-12T12:28:07.835Z</time></trkpt><trkpt lat="45.476335" lon="11.180955"><ele>191.0</ele><time>2026-04-12T12:28:08.835Z</time></trkpt><trkpt lat="45.4762117" lon="11.180975"><ele>191.0</ele><time>2026-04-12T12:28:09.835Z</time></trkpt><trkpt lat="45.4760883" lon="11.1809833"><ele>190.5</ele><time>2026-04-12T12:28:10.835Z</time></trkpt><trkpt lat="45.4759667" lon="11.1809867"><ele>190.0</ele><time>2026-04-12T12:28:11.835Z</time></trkpt><trkpt lat="45.4758483" lon="11.1809767"><ele>189.5</ele><time>2026-04-12T12:28:12.835Z</time></trkpt><trkpt lat="45.4757317" lon="11.1809717"><ele>189.0</ele><time>2026-04-12T12:28:13.835Z</time></trkpt><trkpt lat="45.4756083" lon="11.1809667"><ele>189.0</ele><time>2026-04-12T12:28:14.835Z</time></trkpt><trkpt lat="45.4754817" lon="11.1809717"><ele>189.0</ele><time>2026-04-12T12:28:15.835Z</time></trkpt><trkpt lat="45.47535" lon="11.1809733"><ele>189.0</ele><time>2026-04-12T12:28:16.835Z</time></trkpt><trkpt lat="45.4752383" lon="11.180965"><ele>189.0</ele><time>2026-04-12T12:28:17.835Z</time></trkpt><trkpt lat="45.4751167" lon="11.180955"><ele>188.25</ele><time>2026-04-12T12:28:18.835Z</time></trkpt><trkpt lat="45.4749983" lon="11.180945"><ele>187.5</ele><time>2026-04-12T12:28:19.835Z</time></trkpt><trkpt lat="45.4748767" lon="11.18094"><ele>186.75</ele><time>2026-04-12T12:28:20.835Z</time></trkpt><trkpt lat="45.47477" lon="11.1809433"><ele>186.0</ele><time>2026-04-12T12:28:21.835Z</time></trkpt><trkpt lat="45.4746567" lon="11.180945"><ele>185.75</ele><time>2026-04-12T12:28:22.835Z</time></trkpt><trkpt lat="45.4745317" lon="11.1809467"><ele>185.5</ele><time>2026-04-12T12:28:23.834Z</time></trkpt><trkpt lat="45.474405" lon="11.180935"><ele>185.25</ele><time>2026-04-12T12:28:24.835Z</time></trkpt><trkpt lat="45.4742783" lon="11.18092"><ele>185.0</ele><time>2026-04-12T12:28:25.835Z</time></trkpt><trkpt lat="45.47416" lon="11.1809033"><ele>185.0</ele><time>2026-04-12T12:28:26.835Z</time></trkpt><trkpt lat="45.4740367" lon="11.1808933"><ele>185.0</ele><time>2026-04-12T12:28:27.834Z</time></trkpt><trkpt lat="45.4738967" lon="11.1808933"><ele>185.0</ele><time>2026-04-12T12:28:28.835Z</time></trkpt><trkpt lat="45.4737667" lon="11.1808883"><ele>185.0</ele><time>2026-04-12T12:28:29.835Z</time></trkpt><trkpt lat="45.47364" lon="11.1808883"><ele>184.5</ele><time>2026-04-12T12:28:30.835Z</time></trkpt><trkpt lat="45.47351" lon="11.18089"><ele>184.0</ele><time>2026-04-12T12:28:31.835Z</time></trkpt><trkpt lat="45.4733867" lon="11.180905"><ele>183.5</ele><time>2026-04-12T12:28:32.835Z</time></trkpt><trkpt lat="45.4732567" lon="11.1809183"><ele>183.0</ele><time>2026-04-12T12:28:33.835Z</time></trkpt><trkpt lat="45.473135" lon="11.18093"><ele>183.0</ele><time>2026-04-12T12:28:34.835Z</time></trkpt><trkpt lat="45.4730117" lon="11.1809433"><ele>183.0</ele><time>2026-04-12T12:28:35.835Z</time></trkpt><trkpt lat="45.4728867" lon="11.18095"><ele>183.0</ele><time>2026-04-12T12:28:36.835Z</time></trkpt><trkpt lat="45.4727617" lon="11.18095"><ele>183.0</ele><time>2026-04-12T12:28:37.835Z</time></trkpt><trkpt lat="45.4726383" lon="11.18094"><ele>182.25</ele><time>2026-04-12T12:28:38.835Z</time></trkpt><trkpt lat="45.47252" lon="11.1809283"><ele>181.5</ele><time>2026-04-12T12:28:39.835Z</time></trkpt><trkpt lat="45.4724067" lon="11.1809067"><ele>180.75</ele><time>2026-04-12T12:28:40.835Z</time></trkpt><trkpt lat="45.4722967" lon="11.180875"><ele>180.0</ele><time>2026-04-12T12:28:41.835Z</time></trkpt><trkpt lat="45.4721917" lon="11.1808483"><ele>179.5</ele><time>2026-04-12T12:28:42.835Z</time></trkpt><trkpt lat="45.4720833" lon="11.1808033"><ele>179.0</ele><time>2026-04-12T12:28:43.835Z</time></trkpt><trkpt lat="45.4719683" lon="11.1807617"><ele>178.5</ele><time>2026-04-12T12:28:44.835Z</time></trkpt><trkpt lat="45.4718517" lon="11.1807233"><ele>178.0</ele><time>2026-04-12T12:28:45.834Z</time></trkpt><trkpt lat="45.4717433" lon="11.1806867"><ele>178.0</ele><time>2026-04-12T12:28:46.835Z</time></trkpt><trkpt lat="45.4716283" lon="11.1806517"><ele>178.0</ele><time>2026-04-12T12:28:47.835Z</time></trkpt><trkpt lat="45.4715017" lon="11.1806167"><ele>178.0</ele><time>2026-04-12T12:28:48.835Z</time></trkpt><trkpt lat="45.47138" lon="11.1805717"><ele>178.0</ele><time>2026-04-12T12:28:49.835Z</time></trkpt><trkpt lat="45.471265" lon="11.180535"><ele>177.75</ele><time>2026-04-12T12:28:50.835Z</time></trkpt><trkpt lat="45.4711483" lon="11.1804983"><ele>177.5</ele><time>2026-04-12T12:28:51.835Z</time></trkpt><trkpt lat="45.4710333" lon="11.18046"><ele>177.25</ele><time>2026-04-12T12:28:52.835Z</time></trkpt><trkpt lat="45.470915" lon="11.1804283"><ele>177.0</ele><time>2026-04-12T12:28:53.835Z</time></trkpt><trkpt lat="45.4707917" lon="11.1803867"><ele>177.0</ele><time>2026-04-12T12:28:54.835Z</time></trkpt><trkpt lat="45.47067" lon="11.1803533"><ele>177.0</ele><time>2026-04-12T12:28:55.835Z</time></trkpt><trkpt lat="45.4705617" lon="11.1803283"><ele>177.0</ele><time>2026-04-12T12:28:56.835Z</time></trkpt><trkpt lat="45.4704467" lon="11.1802883"><ele>177.0</ele><time>2026-04-12T12:28:57.835Z</time></trkpt><trkpt lat="45.470325" lon="11.1802483"><ele>176.5</ele><time>2026-04-12T12:28:58.835Z</time></trkpt><trkpt lat="45.470205" lon="11.1802033"><ele>176.0</ele><time>2026-04-12T12:28:59.835Z</time></trkpt><trkpt lat="45.4700867" lon="11.1801733"><ele>175.5</ele><time>2026-04-12T12:29:00.835Z</time></trkpt><trkpt lat="45.4699767" lon="11.1801417"><ele>175.0</ele><time>2026-04-12T12:29:01.835Z</time></trkpt><trkpt lat="45.46987" lon="11.1801033"><ele>175.0</ele><time>2026-04-12T12:29:02.835Z</time></trkpt><trkpt lat="45.4697583" lon="11.1800733"><ele>175.0</ele><time>2026-04-12T12:29:03.835Z</time></trkpt><trkpt lat="45.469645" lon="11.180045"><ele>175.0</ele><time>2026-04-12T12:29:04.835Z</time></trkpt><trkpt lat="45.4695267" lon="11.18002"><ele>175.0</ele><time>2026-04-12T12:29:05.835Z</time></trkpt><trkpt lat="45.469395" lon="11.1800067"><ele>174.5</ele><time>2026-04-12T12:29:06.834Z</time></trkpt><trkpt lat="45.469265" lon="11.180005"><ele>174.0</ele><time>2026-04-12T12:29:07.835Z</time></trkpt><trkpt lat="45.4691383" lon="11.180005"><ele>173.5</ele><time>2026-04-12T12:29:08.835Z</time></trkpt><trkpt lat="45.469005" lon="11.1800167"><ele>173.0</ele><time>2026-04-12T12:29:09.835Z</time></trkpt><trkpt lat="45.4688683" lon="11.1800333"><ele>172.25</ele><time>2026-04-12T12:29:10.834Z</time></trkpt><trkpt lat="45.4687383" lon="11.180055"><ele>171.5</ele><time>2026-04-12T12:29:11.835Z</time></trkpt><trkpt lat="45.4686167" lon="11.1800683"><ele>170.75</ele><time>2026-04-12T12:29:12.835Z</time></trkpt><trkpt lat="45.4684867" lon="11.1800783"><ele>170.0</ele><time>2026-04-12T12:29:13.835Z</time></trkpt><trkpt lat="45.468355" lon="11.1801017"><ele>170.0</ele><time>2026-04-12T12:29:14.835Z</time></trkpt><trkpt lat="45.468235" lon="11.1801033"><ele>170.0</ele><time>2026-04-12T12:29:15.835Z</time></trkpt><trkpt lat="45.4681117" lon="11.180125"><ele>170.0</ele><time>2026-04-12T12:29:16.835Z</time></trkpt><trkpt lat="45.4680017" lon="11.1801417"><ele>170.0</ele><time>2026-04-12T12:29:17.835Z</time></trkpt><trkpt lat="45.4678783" lon="11.1801467"><ele>169.25</ele><time>2026-04-12T12:29:18.835Z</time></trkpt><trkpt lat="45.467765" lon="11.180145"><ele>168.5</ele><time>2026-04-12T12:29:19.835Z</time></trkpt><trkpt lat="45.4676417" lon="11.18012"><ele>167.75</ele><time>2026-04-12T12:29:20.835Z</time></trkpt><trkpt lat="45.4675233" lon="11.1800917"><ele>167.0</ele><time>2026-04-12T12:29:21.835Z</time></trkpt><trkpt lat="45.467405" lon="11.1800567"><ele>167.0</ele><time>2026-04-12T12:29:22.835Z</time></trkpt><trkpt lat="45.4672983" lon="11.1800367"><ele>167.0</ele><time>2026-04-12T12:29:23.835Z</time></trkpt><trkpt lat="45.4672017" lon="11.18"><ele>167.0</ele><time>2026-04-12T12:29:24.835Z</time></trkpt><trkpt lat="45.4670967" lon="11.1799717"><ele>167.0</ele><time>2026-04-12T12:29:25.835Z</time></trkpt><trkpt lat="45.4669967" lon="11.179935"><ele>167.0</ele><time>2026-04-12T12:29:26.835Z</time></trkpt><trkpt lat="45.4669033" lon="11.179885"><ele>166.39999999999998</ele><time>2026-04-12T12:29:27.835Z</time></trkpt><trkpt lat="45.4668183" lon="11.1798133"><ele>165.79999999999998</ele><time>2026-04-12T12:29:28.835Z</time></trkpt><trkpt lat="45.4667167" lon="11.1797683"><ele>165.2</ele><time>2026-04-12T12:29:29.835Z</time></trkpt><trkpt lat="45.4666133" lon="11.1797517"><ele>164.6</ele><time>2026-04-12T12:29:30.835Z</time></trkpt><trkpt lat="45.4665083" lon="11.1797283"><ele>164.0</ele><time>2026-04-12T12:29:31.835Z</time></trkpt><trkpt lat="45.46641" lon="11.1797133"><ele>164.0</ele><time>2026-04-12T12:29:32.835Z</time></trkpt><trkpt lat="45.4663167" lon="11.1797"><ele>164.0</ele><time>2026-04-12T12:29:33.835Z</time></trkpt><trkpt lat="45.466225" lon="11.17968"><ele>164.0</ele><time>2026-04-12T12:29:34.835Z</time></trkpt><trkpt lat="45.4661317" lon="11.179665"><ele>164.0</ele><time>2026-04-12T12:29:35.835Z</time></trkpt><trkpt lat="45.4660417" lon="11.1796483"><ele>164.0</ele><time>2026-04-12T12:29:36.834Z</time></trkpt><trkpt lat="45.465965" lon="11.1796283"><ele>164.0</ele><time>2026-04-12T12:29:37.835Z</time></trkpt><trkpt lat="45.4658833" lon="11.179625"><ele>163.6</ele><time>2026-04-12T12:29:39.835Z</time></trkpt><trkpt lat="45.465825" lon="11.1797217"><ele>163.2</ele><time>2026-04-12T12:29:44.835Z</time></trkpt><trkpt lat="45.46582" lon="11.1798667"><ele>162.79999999999998</ele><time>2026-04-12T12:29:46.835Z</time></trkpt><trkpt lat="45.465835" lon="11.1800283"><ele>162.39999999999998</ele><time>2026-04-12T12:29:48.835Z</time></trkpt><trkpt lat="45.4658633" lon="11.180195"><ele>162.0</ele><time>2026-04-12T12:29:50.835Z</time></trkpt><trkpt lat="45.4658817" lon="11.1803333"><ele>162.0</ele><time>2026-04-12T12:29:52.835Z</time></trkpt><trkpt lat="45.4658867" lon="11.180505"><ele>162.0</ele><time>2026-04-12T12:29:54.835Z</time></trkpt><trkpt lat="45.4658817" lon="11.180705"><ele>162.0</ele><time>2026-04-12T12:29:56.835Z</time></trkpt><trkpt lat="45.465875" lon="11.1808883"><ele>162.0</ele><time>2026-04-12T12:29:57.835Z</time></trkpt><trkpt lat="45.46586" lon="11.1810083"><ele>162.0</ele><time>2026-04-12T12:29:58.835Z</time></trkpt><trkpt lat="45.4658483" lon="11.1811083"><ele>162.0</ele><time>2026-04-12T12:29:59.835Z</time></trkpt><trkpt lat="45.465825" lon="11.1812233"><ele>162.0</ele><time>2026-04-12T12:30:00.834Z</time></trkpt><trkpt lat="45.4658117" lon="11.1813233"><ele>162.0</ele><time>2026-04-12T12:30:01.835Z</time></trkpt><trkpt lat="45.4658117" lon="11.181425"><ele>162.0</ele><time>2026-04-12T12:30:02.835Z</time></trkpt><trkpt lat="45.4657933" lon="11.1815433"><ele>162.0</ele><time>2026-04-12T12:30:03.835Z</time></trkpt><trkpt lat="45.465795" lon="11.1816767"><ele>162.0</ele><time>2026-04-12T12:30:04.835Z</time></trkpt><trkpt lat="45.4657883" lon="11.1818133"><ele>162.0</ele><time>2026-04-12T12:30:05.835Z</time></trkpt><trkpt lat="45.465785" lon="11.181955"><ele>162.0</ele><time>2026-04-12T12:30:06.835Z</time></trkpt><trkpt lat="45.4657833" lon="11.1820833"><ele>162.0</ele><time>2026-04-12T12:30:07.835Z</time></trkpt><trkpt lat="45.465775" lon="11.1822233"><ele>162.0</ele><time>2026-04-12T12:30:08.835Z</time></trkpt><trkpt lat="45.46577" lon="11.182365"><ele>161.8</ele><time>2026-04-12T12:30:09.835Z</time></trkpt><trkpt lat="45.465765" lon="11.1825117"><ele>161.6</ele><time>2026-04-12T12:30:10.835Z</time></trkpt><trkpt lat="45.4657667" lon="11.1826617"><ele>161.4</ele><time>2026-04-12T12:30:11.835Z</time></trkpt><trkpt lat="45.4657783" lon="11.182815"><ele>161.20000000000002</ele><time>2026-04-12T12:30:12.835Z</time></trkpt><trkpt lat="45.4657917" lon="11.18297"><ele>161.0</ele><time>2026-04-12T12:30:13.835Z</time></trkpt><trkpt lat="45.465805" lon="11.18313"><ele>160.8</ele><time>2026-04-12T12:30:14.835Z</time></trkpt><trkpt lat="45.46582" lon="11.183275"><ele>160.60000000000002</ele><time>2026-04-12T12:30:15.835Z</time></trkpt><trkpt lat="45.465835" lon="11.1834167"><ele>160.4</ele><time>2026-04-12T12:30:16.835Z</time></trkpt><trkpt lat="45.4658533" lon="11.183565"><ele>160.2</ele><time>2026-04-12T12:30:17.835Z</time></trkpt><trkpt lat="45.465875" lon="11.1836983"><ele>160.0</ele><time>2026-04-12T12:30:18.835Z</time></trkpt><trkpt lat="45.4658833" lon="11.18381"><ele>160.0</ele><time>2026-04-12T12:30:19.835Z</time></trkpt><trkpt lat="45.46591" lon="11.18396"><ele>160.0</ele><time>2026-04-12T12:30:21.835Z</time></trkpt><trkpt lat="45.4659483" lon="11.18412"><ele>160.0</ele><time>2026-04-12T12:30:23.835Z</time></trkpt><trkpt lat="45.4659917" lon="11.18422"><ele>160.0</ele><time>2026-04-12T12:30:24.835Z</time></trkpt><trkpt lat="45.466045" lon="11.1843283"><ele>160.0</ele><time>2026-04-12T12:30:25.835Z</time></trkpt><trkpt lat="45.4661033" lon="11.1844317"><ele>160.0</ele><time>2026-04-12T12:30:26.835Z</time></trkpt><trkpt lat="45.4661483" lon="11.1845417"><ele>160.0</ele><time>2026-04-12T12:30:27.835Z</time></trkpt><trkpt lat="45.4661933" lon="11.1846533"><ele>160.0</ele><time>2026-04-12T12:30:28.835Z</time></trkpt><trkpt lat="45.4662383" lon="11.1847683"><ele>160.0</ele><time>2026-04-12T12:30:29.835Z</time></trkpt><trkpt lat="45.46627" lon="11.1848783"><ele>160.0</ele><time>2026-04-12T12:30:30.835Z</time></trkpt><trkpt lat="45.46628" lon="11.1849867"><ele>160.0</ele><time>2026-04-12T12:30:31.835Z</time></trkpt><trkpt lat="45.4662817" lon="11.1851017"><ele>159.83333333333334</ele><time>2026-04-12T12:30:32.835Z</time></trkpt><trkpt lat="45.4662667" lon="11.1852133"><ele>159.66666666666669</ele><time>2026-04-12T12:30:33.835Z</time></trkpt><trkpt lat="45.4662433" lon="11.1852983"><ele>159.5</ele><time>2026-04-12T12:30:34.835Z</time></trkpt><trkpt lat="45.4662217" lon="11.1854217"><ele>159.33333333333334</ele><time>2026-04-12T12:30:36.835Z</time></trkpt><trkpt lat="45.466215" lon="11.1856"><ele>159.16666666666666</ele><time>2026-04-12T12:30:38.835Z</time></trkpt><trkpt lat="45.466205" lon="11.1857133"><ele>159.0</ele><time>2026-04-12T12:30:39.835Z</time></trkpt><trkpt lat="45.4661933" lon="11.1858317"><ele>159.0</ele><time>2026-04-12T12:30:40.835Z</time></trkpt><trkpt lat="45.4661817" lon="11.1859583"><ele>159.0</ele><time>2026-04-12T12:30:41.835Z</time></trkpt><trkpt lat="45.4661783" lon="11.1860783"><ele>159.0</ele><time>2026-04-12T12:30:42.835Z</time></trkpt><trkpt lat="45.4661717" lon="11.18623"><ele>159.0</ele><time>2026-04-12T12:30:44.835Z</time></trkpt><trkpt lat="45.46616" lon="11.186355"><ele>159.0</ele><time>2026-04-12T12:30:47.835Z</time></trkpt><trkpt lat="45.4661633" lon="11.1864783"><ele>158.8</ele><time>2026-04-12T12:30:49.835Z</time></trkpt><trkpt lat="45.4661367" lon="11.18664"><ele>158.60000000000002</ele><time>2026-04-12T12:30:51.835Z</time></trkpt><trkpt lat="45.4661333" lon="11.1867483"><ele>158.4</ele><time>2026-04-12T12:30:52.835Z</time></trkpt><trkpt lat="45.4661133" lon="11.1868517"><ele>158.20000000000002</ele><time>2026-04-12T12:30:53.835Z</time></trkpt><trkpt lat="45.466105" lon="11.18699"><ele>158.0</ele><time>2026-04-12T12:30:54.835Z</time></trkpt><trkpt lat="45.4660867" lon="11.1871483"><ele>158.0</ele><time>2026-04-12T12:30:55.835Z</time></trkpt><trkpt lat="45.4660667" lon="11.187315"><ele>158.0</ele><time>2026-04-12T12:30:56.835Z</time></trkpt><trkpt lat="45.46605" lon="11.1874933"><ele>158.0</ele><time>2026-04-12T12:30:57.835Z</time></trkpt><trkpt lat="45.4660217" lon="11.187675"><ele>158.0</ele><time>2026-04-12T12:30:58.835Z</time></trkpt><trkpt lat="45.4659867" lon="11.18786"><ele>158.0</ele><time>2026-04-12T12:30:59.835Z</time></trkpt><trkpt lat="45.465955" lon="11.188035"><ele>158.0</ele><time>2026-04-12T12:31:00.835Z</time></trkpt><trkpt lat="45.465925" lon="11.18822"><ele>158.0</ele><time>2026-04-12T12:31:01.834Z</time></trkpt><trkpt lat="45.4659" lon="11.1883833"><ele>158.0</ele><time>2026-04-12T12:31:02.835Z</time></trkpt><trkpt lat="45.465875" lon="11.188545"><ele>158.5</ele><time>2026-04-12T12:31:03.835Z</time></trkpt><trkpt lat="45.4658417" lon="11.1887033"><ele>159.0</ele><time>2026-04-12T12:31:04.835Z</time></trkpt><trkpt lat="45.4657983" lon="11.1888667"><ele>159.5</ele><time>2026-04-12T12:31:05.835Z</time></trkpt><trkpt lat="45.46575" lon="11.1890117"><ele>160.0</ele><time>2026-04-12T12:31:06.835Z</time></trkpt><trkpt lat="45.4656967" lon="11.1891517"><ele>162.0</ele><time>2026-04-12T12:31:07.835Z</time></trkpt><trkpt lat="45.46563" lon="11.1892583"><ele>164.0</ele><time>2026-04-12T12:31:08.835Z</time></trkpt><trkpt lat="45.46558" lon="11.1894017"><ele>166.0</ele><time>2026-04-12T12:31:09.835Z</time></trkpt><trkpt lat="45.465535" lon="11.18954"><ele>168.0</ele><time>2026-04-12T12:31:10.835Z</time></trkpt><trkpt lat="45.4655" lon="11.189685"><ele>170.0</ele><time>2026-04-12T12:31:11.835Z</time></trkpt><trkpt lat="45.4654767" lon="11.1898383"><ele>173.25</ele><time>2026-04-12T12:31:12.835Z</time></trkpt><trkpt lat="45.4654667" lon="11.1899933"><ele>176.5</ele><time>2026-04-12T12:31:13.835Z</time></trkpt><trkpt lat="45.4654717" lon="11.19015"><ele>179.75</ele><time>2026-04-12T12:31:14.835Z</time></trkpt><trkpt lat="45.465485" lon="11.19031"><ele>183.0</ele><time>2026-04-12T12:31:15.835Z</time></trkpt><trkpt lat="45.4654983" lon="11.19048"><ele>183.0</ele><time>2026-04-12T12:31:16.835Z</time></trkpt><trkpt lat="45.4655117" lon="11.1906583"><ele>183.0</ele><time>2026-04-12T12:31:17.835Z</time></trkpt><trkpt lat="45.46552" lon="11.1908233"><ele>183.0</ele><time>2026-04-12T12:31:18.835Z</time></trkpt><trkpt lat="45.46553" lon="11.1909817"><ele>183.0</ele><time>2026-04-12T12:31:19.835Z</time></trkpt><trkpt lat="45.4655417" lon="11.1911317"><ele>184.0</ele><time>2026-04-12T12:31:20.835Z</time></trkpt><trkpt lat="45.4655517" lon="11.1912567"><ele>185.0</ele><time>2026-04-12T12:31:21.835Z</time></trkpt><trkpt lat="45.465555" lon="11.1914117"><ele>186.0</ele><time>2026-04-12T12:31:23.835Z</time></trkpt><trkpt lat="45.465625" lon="11.1914433"><ele>187.0</ele><time>2026-04-12T12:31:26.835Z</time></trkpt><trkpt lat="45.465675" lon="11.1913733"><ele>188.0</ele><time>2026-04-12T12:31:28.835Z</time></trkpt><trkpt lat="45.4657033" lon="11.1912583"><ele>189.0</ele><time>2026-04-12T12:31:30.835Z</time></trkpt><trkpt lat="45.4657017" lon="11.1911567"><ele>189.0</ele><time>2026-04-12T12:31:31.835Z</time></trkpt><trkpt lat="45.4657" lon="11.1910517"><ele>189.0</ele><time>2026-04-12T12:31:32.835Z</time></trkpt><trkpt lat="45.465705" lon="11.1909417"><ele>189.0</ele><time>2026-04-12T12:31:33.835Z</time></trkpt><trkpt lat="45.4657217" lon="11.19085"><ele>189.0</ele><time>2026-04-12T12:31:34.835Z</time></trkpt><trkpt lat="45.4657433" lon="11.1907333"><ele>189.0</ele><time>2026-04-12T12:31:35.835Z</time></trkpt><trkpt lat="45.4657617" lon="11.1906033"><ele>189.0</ele><time>2026-04-12T12:31:36.835Z</time></trkpt><trkpt lat="45.4657817" lon="11.1904633"><ele>188.0</ele><time>2026-04-12T12:31:37.835Z</time></trkpt><trkpt lat="45.4658033" lon="11.1903317"><ele>187.0</ele><time>2026-04-12T12:31:38.835Z</time></trkpt><trkpt lat="45.4658267" lon="11.190215"><ele>186.0</ele><time>2026-04-12T12:31:39.835Z</time></trkpt><trkpt lat="45.4658583" lon="11.1901117"><ele>185.0</ele><time>2026-04-12T12:31:40.835Z</time></trkpt><trkpt lat="45.465875" lon="11.19001"><ele>184.0</ele><time>2026-04-12T12:31:41.835Z</time></trkpt><trkpt lat="45.4659017" lon="11.1898683"><ele>183.0</ele><time>2026-04-12T12:31:43.835Z</time></trkpt><trkpt lat="45.46593" lon="11.1897867"><ele>183.0</ele><time>2026-04-12T12:31:45.835Z</time></trkpt><trkpt lat="45.4659817" lon="11.18987"><ele>183.0</ele><time>2026-04-12T12:31:50.835Z</time></trkpt><trkpt lat="45.465955" lon="11.1900083"><ele>183.0</ele><time>2026-04-12T12:31:52.835Z</time></trkpt><trkpt lat="45.4659433" lon="11.1901017"><ele>183.0</ele><time>2026-04-12T12:31:53.835Z</time></trkpt><trkpt lat="45.4659417" lon="11.1902"><ele>183.0</ele><time>2026-04-12T12:31:54.835Z</time></trkpt><trkpt lat="45.4659517" lon="11.1902933"><ele>183.0</ele><time>2026-04-12T12:31:55.835Z</time></trkpt><trkpt lat="45.4659633" lon="11.1904"><ele>183.0</ele><time>2026-04-12T12:31:56.835Z</time></trkpt><trkpt lat="45.465975" lon="11.19051"><ele>183.0</ele><time>2026-04-12T12:31:57.835Z</time></trkpt><trkpt lat="45.4659817" lon="11.1906333"><ele>183.0</ele><time>2026-04-12T12:31:58.835Z</time></trkpt><trkpt lat="45.4659867" lon="11.1907717"><ele>183.0</ele><time>2026-04-12T12:31:59.835Z</time></trkpt><trkpt lat="45.4660033" lon="11.1909117"><ele>183.0</ele><time>2026-04-12T12:32:00.835Z</time></trkpt><trkpt lat="45.4660217" lon="11.1910533"><ele>184.2</ele><time>2026-04-12T12:32:01.835Z</time></trkpt><trkpt lat="45.4660433" lon="11.1911967"><ele>185.4</ele><time>2026-04-12T12:32:02.835Z</time></trkpt><trkpt lat="45.4660517" lon="11.1913483"><ele>186.6</ele><time>2026-04-12T12:32:03.835Z</time></trkpt><trkpt lat="45.4660633" lon="11.1914967"><ele>187.79999999999998</ele><time>2026-04-12T12:32:04.835Z</time></trkpt><trkpt lat="45.466085" lon="11.1916517"><ele>189.0</ele><time>2026-04-12T12:32:05.835Z</time></trkpt><trkpt lat="45.4661067" lon="11.1918033"><ele>189.2</ele><time>2026-04-12T12:32:06.835Z</time></trkpt><trkpt lat="45.4661417" lon="11.1919467"><ele>189.39999999999998</ele><time>2026-04-12T12:32:07.835Z</time></trkpt><trkpt lat="45.466175" lon="11.1920867"><ele>189.6</ele><time>2026-04-12T12:32:08.835Z</time></trkpt><trkpt lat="45.4662167" lon="11.1922283"><ele>189.8</ele><time>2026-04-12T12:32:09.835Z</time></trkpt><trkpt lat="45.466255" lon="11.1923767"><ele>190.0</ele><time>2026-04-12T12:32:10.835Z</time></trkpt><trkpt lat="45.466295" lon="11.1925133"><ele>195.0</ele><time>2026-04-12T12:32:11.835Z</time></trkpt><trkpt lat="45.4663317" lon="11.1926417"><ele>200.0</ele><time>2026-04-12T12:32:12.835Z</time></trkpt><trkpt lat="45.4663683" lon="11.1927633"><ele>205.0</ele><time>2026-04-12T12:32:13.835Z</time></trkpt><trkpt lat="45.4664083" lon="11.1928917"><ele>210.0</ele><time>2026-04-12T12:32:14.835Z</time></trkpt><trkpt lat="45.4664333" lon="11.1930033"><ele>215.0</ele><time>2026-04-12T12:32:15.835Z</time></trkpt><trkpt lat="45.46644" lon="11.1931417"><ele>215.6</ele><time>2026-04-12T12:32:16.835Z</time></trkpt><trkpt lat="45.4664267" lon="11.1932817"><ele>216.2</ele><time>2026-04-12T12:32:17.835Z</time></trkpt><trkpt lat="45.4663767" lon="11.1934083"><ele>216.8</ele><time>2026-04-12T12:32:18.835Z</time></trkpt><trkpt lat="45.4663" lon="11.19351"><ele>217.4</ele><time>2026-04-12T12:32:19.835Z</time></trkpt><trkpt lat="45.4662117" lon="11.193595"><ele>218.0</ele><time>2026-04-12T12:32:20.835Z</time></trkpt><trkpt lat="45.4661233" lon="11.1936867"><ele>218.2</ele><time>2026-04-12T12:32:21.835Z</time></trkpt><trkpt lat="45.4660383" lon="11.193775"><ele>218.4</ele><time>2026-04-12T12:32:22.835Z</time></trkpt><trkpt lat="45.46595" lon="11.193865"><ele>218.59999999999997</ele><time>2026-04-12T12:32:23.835Z</time></trkpt><trkpt lat="45.4658517" lon="11.1939317"><ele>218.79999999999998</ele><time>2026-04-12T12:32:24.835Z</time></trkpt><trkpt lat="45.46575" lon="11.1939967"><ele>219.0</ele><time>2026-04-12T12:32:25.835Z</time></trkpt><trkpt lat="45.465645" lon="11.1940583"><ele>219.0</ele><time>2026-04-12T12:32:26.835Z</time></trkpt><trkpt lat="45.4655417" lon="11.1941333"><ele>218.99999999999997</ele><time>2026-04-12T12:32:27.835Z</time></trkpt><trkpt lat="45.465455" lon="11.19421"><ele>218.99999999999997</ele><time>2026-04-12T12:32:28.835Z</time></trkpt><trkpt lat="45.4653833" lon="11.194315"><ele>219.0</ele><time>2026-04-12T12:32:29.835Z</time></trkpt><trkpt lat="45.46532" lon="11.194435"><ele>219.0</ele><time>2026-04-12T12:32:30.835Z</time></trkpt><trkpt lat="45.4652533" lon="11.1945567"><ele>218.25</ele><time>2026-04-12T12:32:31.835Z</time></trkpt><trkpt lat="45.4651867" lon="11.1946867"><ele>217.5</ele><time>2026-04-12T12:32:32.835Z</time></trkpt><trkpt lat="45.4651133" lon="11.194815"><ele>216.75</ele><time>2026-04-12T12:32:33.835Z</time></trkpt><trkpt lat="45.4650467" lon="11.194935"><ele>216.0</ele><time>2026-04-12T12:32:34.835Z</time></trkpt><trkpt lat="45.4649717" lon="11.1950567"><ele>216.0</ele><time>2026-04-12T12:32:35.835Z</time></trkpt><trkpt lat="45.464895" lon="11.195175"><ele>216.0</ele><time>2026-04-12T12:32:36.835Z</time></trkpt><trkpt lat="45.4648167" lon="11.1952983"><ele>216.0</ele><time>2026-04-12T12:32:37.835Z</time></trkpt><trkpt lat="45.4647367" lon="11.195415"><ele>216.0</ele><time>2026-04-12T12:32:38.835Z</time></trkpt><trkpt lat="45.4646567" lon="11.1955317"><ele>216.75</ele><time>2026-04-12T12:32:39.835Z</time></trkpt><trkpt lat="45.4645733" lon="11.1956483"><ele>217.5</ele><time>2026-04-12T12:32:40.835Z</time></trkpt><trkpt lat="45.464485" lon="11.1957583"><ele>218.25</ele><time>2026-04-12T12:32:41.835Z</time></trkpt><trkpt lat="45.4643933" lon="11.19585"><ele>219.0</ele><time>2026-04-12T12:32:42.835Z</time></trkpt><trkpt lat="45.4642883" lon="11.1959183"><ele>219.0</ele><time>2026-04-12T12:32:43.835Z</time></trkpt><trkpt lat="45.46418" lon="11.1959783"><ele>219.0</ele><time>2026-04-12T12:32:44.835Z</time></trkpt><trkpt lat="45.46407" lon="11.1960467"><ele>219.0</ele><time>2026-04-12T12:32:45.835Z</time></trkpt><trkpt lat="45.46396" lon="11.1961083"><ele>219.0</ele><time>2026-04-12T12:32:46.835Z</time></trkpt><trkpt lat="45.4638383" lon="11.1961783"><ele>217.5</ele><time>2026-04-12T12:32:47.835Z</time></trkpt><trkpt lat="45.4637183" lon="11.1962483"><ele>216.0</ele><time>2026-04-12T12:32:48.835Z</time></trkpt><trkpt lat="45.4636033" lon="11.1963133"><ele>214.5</ele><time>2026-04-12T12:32:49.835Z</time></trkpt><trkpt lat="45.4634883" lon="11.1963717"><ele>213.0</ele><time>2026-04-12T12:32:50.835Z</time></trkpt><trkpt lat="45.463375" lon="11.1964333"><ele>213.0</ele><time>2026-04-12T12:32:51.835Z</time></trkpt><trkpt lat="45.463255" lon="11.196485"><ele>213.0</ele><time>2026-04-12T12:32:52.835Z</time></trkpt><trkpt lat="45.4631217" lon="11.1965433"><ele>213.0</ele><time>2026-04-12T12:32:53.835Z</time></trkpt><trkpt lat="45.463" lon="11.1966"><ele>213.0</ele><time>2026-04-12T12:32:54.835Z</time></trkpt><trkpt lat="45.462885" lon="11.1966483"><ele>217.75</ele><time>2026-04-12T12:32:55.835Z</time></trkpt><trkpt lat="45.4627733" lon="11.19669"><ele>222.5</ele><time>2026-04-12T12:32:56.835Z</time></trkpt><trkpt lat="45.4626617" lon="11.1967083"><ele>227.25</ele><time>2026-04-12T12:32:57.835Z</time></trkpt><trkpt lat="45.46254" lon="11.1967367"><ele>232.0</ele><time>2026-04-12T12:32:58.835Z</time></trkpt><trkpt lat="45.4624267" lon="11.1967583"><ele>231.99999999999997</ele><time>2026-04-12T12:32:59.835Z</time></trkpt><trkpt lat="45.46233" lon="11.1967833"><ele>232.0</ele><time>2026-04-12T12:33:00.835Z</time></trkpt><trkpt lat="45.46224" lon="11.1968"><ele>232.0</ele><time>2026-04-12T12:33:01.835Z</time></trkpt><trkpt lat="45.4621583" lon="11.1968217"><ele>232.0</ele><time>2026-04-12T12:33:02.835Z</time></trkpt><trkpt lat="45.4620817" lon="11.196835"><ele>231.99999999999997</ele><time>2026-04-12T12:33:03.835Z</time></trkpt><trkpt lat="45.4620067" lon="11.19686"><ele>232.0</ele><time>2026-04-12T12:33:05.835Z</time></trkpt><trkpt lat="45.4619483" lon="11.1969033"><ele>232.99999999999997</ele><time>2026-04-12T12:33:08.835Z</time></trkpt><trkpt lat="45.461935" lon="11.1969917"><ele>234.0</ele><time>2026-04-12T12:33:22.835Z</time></trkpt><trkpt lat="45.4619233" lon="11.197135"><ele>235.0</ele><time>2026-04-12T12:33:25.835Z</time></trkpt><trkpt lat="45.46192" lon="11.1972533"><ele>236.0</ele><time>2026-04-12T12:33:27.835Z</time></trkpt><trkpt lat="45.4619133" lon="11.1973617"><ele>236.99999999999997</ele><time>2026-04-12T12:33:29.835Z</time></trkpt><trkpt lat="45.46191" lon="11.1974717"><ele>238.0</ele><time>2026-04-12T12:33:32.835Z</time></trkpt><trkpt lat="45.4619017" lon="11.197585"><ele>238.0</ele><time>2026-04-12T12:33:34.835Z</time></trkpt><trkpt lat="45.4618783" lon="11.1977183"><ele>238.0</ele><time>2026-04-12T12:33:36.835Z</time></trkpt><trkpt lat="45.46186" lon="11.1978617"><ele>238.0</ele><time>2026-04-12T12:33:38.835Z</time></trkpt><trkpt lat="45.4618433" lon="11.19805"><ele>238.0</ele><time>2026-04-12T12:33:40.835Z</time></trkpt><trkpt lat="45.4618367" lon="11.1981417"><ele>238.0</ele><time>2026-04-12T12:33:41.835Z</time></trkpt><trkpt lat="45.461825" lon="11.1982317"><ele>238.0</ele><time>2026-04-12T12:33:42.835Z</time></trkpt><trkpt lat="45.4618033" lon="11.1983967"><ele>238.0</ele><time>2026-04-12T12:33:44.835Z</time></trkpt><trkpt lat="45.46185" lon="11.1985417"><ele>238.0</ele><time>2026-04-12T12:33:46.834Z</time></trkpt><trkpt lat="45.4620767" lon="11.198675"><ele>238.2</ele><time>2026-04-12T12:33:49.055Z</time></trkpt><trkpt lat="45.4622" lon="11.1986317"><ele>238.4</ele><time>2026-04-12T12:33:51.336Z</time></trkpt><trkpt lat="45.4622783" lon="11.198665"><ele>238.59999999999997</ele><time>2026-04-12T12:33:52.336Z</time></trkpt><trkpt lat="45.46234" lon="11.198685"><ele>238.79999999999998</ele><time>2026-04-12T12:33:53.336Z</time></trkpt><trkpt lat="45.4624233" lon="11.198705"><ele>239.0</ele><time>2026-04-12T12:33:54.836Z</time></trkpt><trkpt lat="45.46253" lon="11.1987283"><ele>239.0</ele><time>2026-04-12T12:33:56.836Z</time></trkpt><trkpt lat="45.4626067" lon="11.19876"><ele>238.99999999999997</ele><time>2026-04-12T12:33:58.836Z</time></trkpt><trkpt lat="45.462555" lon="11.198865"><ele>238.99999999999997</ele><time>2026-04-12T12:34:02.836Z</time></trkpt><trkpt lat="45.4624417" lon="11.19889"><ele>239.0</ele><time>2026-04-12T12:34:04.836Z</time></trkpt><trkpt lat="45.4623217" lon="11.1988883"><ele>239.0</ele><time>2026-04-12T12:34:06.836Z</time></trkpt><trkpt lat="45.4622483" lon="11.1988867"><ele>239.0</ele><time>2026-04-12T12:34:07.836Z</time></trkpt><trkpt lat="45.4621583" lon="11.1988833"><ele>238.99999999999997</ele><time>2026-04-12T12:34:08.836Z</time></trkpt><trkpt lat="45.462065" lon="11.1988433"><ele>238.99999999999997</ele><time>2026-04-12T12:34:09.836Z</time></trkpt><trkpt lat="45.461975" lon="11.198845"><ele>239.0</ele><time>2026-04-12T12:34:10.836Z</time></trkpt><trkpt lat="45.4618867" lon="11.1988383"><ele>239.0</ele><time>2026-04-12T12:34:11.836Z</time></trkpt><trkpt lat="45.461795" lon="11.198845"><ele>238.79999999999998</ele><time>2026-04-12T12:34:12.836Z</time></trkpt><trkpt lat="45.4617017" lon="11.1988433"><ele>238.59999999999997</ele><time>2026-04-12T12:34:13.836Z</time></trkpt><trkpt lat="45.4616083" lon="11.1988367"><ele>238.4</ele><time>2026-04-12T12:34:14.836Z</time></trkpt><trkpt lat="45.4615133" lon="11.19884"><ele>238.2</ele><time>2026-04-12T12:34:15.836Z</time></trkpt><trkpt lat="45.4614167" lon="11.1988283"><ele>238.0</ele><time>2026-04-12T12:34:16.836Z</time></trkpt><trkpt lat="45.4613333" lon="11.1988233"><ele>236.66666666666666</ele><time>2026-04-12T12:34:17.836Z</time></trkpt><trkpt lat="45.46126" lon="11.198815"><ele>235.33333333333331</ele><time>2026-04-12T12:34:18.836Z</time></trkpt><trkpt lat="45.461195" lon="11.198805"><ele>234.0</ele><time>2026-04-12T12:34:19.836Z</time></trkpt><trkpt lat="45.46113" lon="11.1987933"><ele>232.66666666666669</ele><time>2026-04-12T12:34:20.836Z</time></trkpt><trkpt lat="45.4610583" lon="11.1988133"><ele>231.33333333333334</ele><time>2026-04-12T12:34:22.836Z</time></trkpt><trkpt lat="45.4611083" lon="11.198915"><ele>230.0</ele><time>2026-04-12T12:34:25.836Z</time></trkpt><trkpt lat="45.4612033" lon="11.1989517"><ele>231.33333333333334</ele><time>2026-04-12T12:34:27.836Z</time></trkpt><trkpt lat="45.46133" lon="11.198985"><ele>232.66666666666669</ele><time>2026-04-12T12:34:29.836Z</time></trkpt><trkpt lat="45.4614017" lon="11.1990233"><ele>234.0</ele><time>2026-04-12T12:34:30.836Z</time></trkpt><trkpt lat="45.4614633" lon="11.1990617"><ele>235.33333333333331</ele><time>2026-04-12T12:34:31.836Z</time></trkpt><trkpt lat="45.46154" lon="11.199105"><ele>236.66666666666666</ele><time>2026-04-12T12:34:32.836Z</time></trkpt><trkpt lat="45.4616167" lon="11.1991433"><ele>238.0</ele><time>2026-04-12T12:34:33.836Z</time></trkpt><trkpt lat="45.461695" lon="11.19919"><ele>235.66666666666666</ele><time>2026-04-12T12:34:34.836Z</time></trkpt><trkpt lat="45.4617783" lon="11.1992317"><ele>233.33333333333331</ele><time>2026-04-12T12:34:35.836Z</time></trkpt><trkpt lat="45.4618667" lon="11.1992733"><ele>231.0</ele><time>2026-04-12T12:34:36.836Z</time></trkpt><trkpt lat="45.4619483" lon="11.1993183"><ele>228.66666666666669</ele><time>2026-04-12T12:34:37.836Z</time></trkpt><trkpt lat="45.4620267" lon="11.1993533"><ele>226.33333333333334</ele><time>2026-04-12T12:34:38.836Z</time></trkpt><trkpt lat="45.4621067" lon="11.1993917"><ele>224.0</ele><time>2026-04-12T12:34:39.836Z</time></trkpt><trkpt lat="45.46219" lon="11.1994383"><ele>224.0</ele><time>2026-04-12T12:34:40.836Z</time></trkpt><trkpt lat="45.4622683" lon="11.1994783"><ele>223.99999999999997</ele><time>2026-04-12T12:34:41.836Z</time></trkpt><trkpt lat="45.4623467" lon="11.1995267"><ele>223.99999999999997</ele><time>2026-04-12T12:34:42.836Z</time></trkpt><trkpt lat="45.46243" lon="11.1995767"><ele>224.0</ele><time>2026-04-12T12:34:43.836Z</time></trkpt><trkpt lat="45.462525" lon="11.1996083"><ele>224.0</ele><time>2026-04-12T12:34:44.836Z</time></trkpt><trkpt lat="45.4626283" lon="11.199625"><ele>224.0</ele><time>2026-04-12T12:34:45.836Z</time></trkpt><trkpt lat="45.4627217" lon="11.199635"><ele>223.99999999999997</ele><time>2026-04-12T12:34:46.836Z</time></trkpt><trkpt lat="45.4628183" lon="11.1996467"><ele>223.99999999999997</ele><time>2026-04-12T12:34:47.836Z</time></trkpt><trkpt lat="45.4629167" lon="11.1996633"><ele>224.0</ele><time>2026-04-12T12:34:48.836Z</time></trkpt><trkpt lat="45.463" lon="11.1996633"><ele>224.0</ele><time>2026-04-12T12:34:49.836Z</time></trkpt><trkpt lat="45.4630933" lon="11.199655"><ele>224.16666666666669</ele><time>2026-04-12T12:34:50.836Z</time></trkpt><trkpt lat="45.463175" lon="11.1996333"><ele>224.33333333333334</ele><time>2026-04-12T12:34:51.836Z</time></trkpt><trkpt lat="45.4632567" lon="11.1996133"><ele>224.5</ele><time>2026-04-12T12:34:52.836Z</time></trkpt><trkpt lat="45.4633183" lon="11.199585"><ele>224.66666666666669</ele><time>2026-04-12T12:34:53.835Z</time></trkpt><trkpt lat="45.4634" lon="11.1995317"><ele>224.83333333333334</ele><time>2026-04-12T12:34:55.836Z</time></trkpt><trkpt lat="45.46342" lon="11.19962"><ele>225.0</ele><time>2026-04-12T12:34:59.836Z</time></trkpt><trkpt lat="45.463325" lon="11.1996817"><ele>225.0</ele><time>2026-04-12T12:35:01.836Z</time></trkpt><trkpt lat="45.4632583" lon="11.1997133"><ele>225.0</ele><time>2026-04-12T12:35:02.836Z</time></trkpt><trkpt lat="45.4631933" lon="11.1997417"><ele>225.0</ele><time>2026-04-12T12:35:03.836Z</time></trkpt><trkpt lat="45.4631117" lon="11.1997667"><ele>225.0</ele><time>2026-04-12T12:35:04.836Z</time></trkpt><trkpt lat="45.4630283" lon="11.1997817"><ele>225.0</ele><time>2026-04-12T12:35:05.836Z</time></trkpt><trkpt lat="45.4629517" lon="11.1998017"><ele>225.0</ele><time>2026-04-12T12:35:06.836Z</time></trkpt><trkpt lat="45.4628633" lon="11.19983"><ele>224.83333333333334</ele><time>2026-04-12T12:35:07.836Z</time></trkpt><trkpt lat="45.4627683" lon="11.1998383"><ele>224.66666666666669</ele><time>2026-04-12T12:35:08.836Z</time></trkpt><trkpt lat="45.4626717" lon="11.19982"><ele>224.5</ele><time>2026-04-12T12:35:09.836Z</time></trkpt><trkpt lat="45.46259" lon="11.1998"><ele>224.33333333333334</ele><time>2026-04-12T12:35:10.836Z</time></trkpt><trkpt lat="45.462515" lon="11.1997883"><ele>224.16666666666669</ele><time>2026-04-12T12:35:11.836Z</time></trkpt><trkpt lat="45.4624183" lon="11.1997867"><ele>224.0</ele><time>2026-04-12T12:35:13.836Z</time></trkpt><trkpt lat="45.46236" lon="11.1998633"><ele>220.50000000000003</ele><time>2026-04-12T12:35:15.836Z</time></trkpt><trkpt lat="45.4624" lon="11.19995"><ele>217.0</ele><time>2026-04-12T12:35:17.836Z</time></trkpt><trkpt lat="45.4624983" lon="11.1999917"><ele>213.5</ele><time>2026-04-12T12:35:19.836Z</time></trkpt><trkpt lat="45.4625667" lon="11.2"><ele>210.0</ele><time>2026-04-12T12:35:20.836Z</time></trkpt><trkpt lat="45.4626467" lon="11.20001"><ele>206.50000000000003</ele><time>2026-04-12T12:35:21.836Z</time></trkpt><trkpt lat="45.4627317" lon="11.2000117"><ele>203.0</ele><time>2026-04-12T12:35:22.836Z</time></trkpt><trkpt lat="45.462825" lon="11.2000133"><ele>203.00000000000003</ele><time>2026-04-12T12:35:23.836Z</time></trkpt><trkpt lat="45.4629117" lon="11.2000133"><ele>203.0</ele><time>2026-04-12T12:35:24.836Z</time></trkpt><trkpt lat="45.4629883" lon="11.2000083"><ele>203.0</ele><time>2026-04-12T12:35:25.836Z</time></trkpt><trkpt lat="45.4630567" lon="11.1999967"><ele>203.0</ele><time>2026-04-12T12:35:26.836Z</time></trkpt><trkpt lat="45.4631583" lon="11.1999883"><ele>203.00000000000003</ele><time>2026-04-12T12:35:28.836Z</time></trkpt><trkpt lat="45.4631483" lon="11.2000883"><ele>203.0</ele><time>2026-04-12T12:35:33.836Z</time></trkpt><trkpt lat="45.463065" lon="11.20011"><ele>203.00000000000003</ele><time>2026-04-12T12:35:35.836Z</time></trkpt><trkpt lat="45.4629517" lon="11.2001417"><ele>203.0</ele><time>2026-04-12T12:35:37.836Z</time></trkpt><trkpt lat="45.4628883" lon="11.2001533"><ele>203.0</ele><time>2026-04-12T12:35:38.836Z</time></trkpt><trkpt lat="45.4628133" lon="11.2001567"><ele>203.0</ele><time>2026-04-12T12:35:39.836Z</time></trkpt><trkpt lat="45.4627367" lon="11.2001783"><ele>203.00000000000003</ele><time>2026-04-12T12:35:40.836Z</time></trkpt><trkpt lat="45.4626567" lon="11.200195"><ele>203.0</ele><time>2026-04-12T12:35:41.836Z</time></trkpt><trkpt lat="45.4625617" lon="11.2002067"><ele>203.0</ele><time>2026-04-12T12:35:42.836Z</time></trkpt><trkpt lat="45.4624567" lon="11.2002217"><ele>203.0</ele><time>2026-04-12T12:35:43.836Z</time></trkpt><trkpt lat="45.462355" lon="11.2002267"><ele>203.0</ele><time>2026-04-12T12:35:44.836Z</time></trkpt><trkpt lat="45.4622433" lon="11.20023"><ele>203.0</ele><time>2026-04-12T12:35:45.836Z</time></trkpt><trkpt lat="45.4621317" lon="11.2002217"><ele>203.0</ele><time>2026-04-12T12:35:46.836Z</time></trkpt><trkpt lat="45.4620133" lon="11.2002117"><ele>201.5</ele><time>2026-04-12T12:35:47.836Z</time></trkpt><trkpt lat="45.4619" lon="11.2001967"><ele>200.0</ele><time>2026-04-12T12:35:48.836Z</time></trkpt><trkpt lat="45.461785" lon="11.2001767"><ele>198.5</ele><time>2026-04-12T12:35:49.836Z</time></trkpt><trkpt lat="45.4616733" lon="11.2001367"><ele>197.0</ele><time>2026-04-12T12:35:50.836Z</time></trkpt><trkpt lat="45.4615667" lon="11.2000917"><ele>197.0</ele><time>2026-04-12T12:35:51.836Z</time></trkpt><trkpt lat="45.46146" lon="11.2000467"><ele>197.0</ele><time>2026-04-12T12:35:52.836Z</time></trkpt><trkpt lat="45.4613483" lon="11.2000083"><ele>197.0</ele><time>2026-04-12T12:35:53.836Z</time></trkpt><trkpt lat="45.4612267" lon="11.199985"><ele>197.0</ele><time>2026-04-12T12:35:54.836Z</time></trkpt><trkpt lat="45.4611167" lon="11.19996"><ele>194.25</ele><time>2026-04-12T12:35:55.836Z</time></trkpt><trkpt lat="45.460995" lon="11.1999317"><ele>191.5</ele><time>2026-04-12T12:35:56.836Z</time></trkpt><trkpt lat="45.4608583" lon="11.1999183"><ele>188.75</ele><time>2026-04-12T12:35:57.836Z</time></trkpt><trkpt lat="45.4607383" lon="11.1998783"><ele>186.0</ele><time>2026-04-12T12:35:58.836Z</time></trkpt><trkpt lat="45.4606083" lon="11.1998533"><ele>188.0</ele><time>2026-04-12T12:35:59.836Z</time></trkpt><trkpt lat="45.4604733" lon="11.1998267"><ele>190.0</ele><time>2026-04-12T12:36:00.836Z</time></trkpt><trkpt lat="45.4603483" lon="11.199795"><ele>192.0</ele><time>2026-04-12T12:36:01.836Z</time></trkpt><trkpt lat="45.4602217" lon="11.19976"><ele>194.0</ele><time>2026-04-12T12:36:02.836Z</time></trkpt><trkpt lat="45.4601067" lon="11.1997283"><ele>194.0</ele><time>2026-04-12T12:36:03.836Z</time></trkpt><trkpt lat="45.4599867" lon="11.1996933"><ele>194.0</ele><time>2026-04-12T12:36:04.836Z</time></trkpt><trkpt lat="45.4598683" lon="11.1996533"><ele>194.0</ele><time>2026-04-12T12:36:05.836Z</time></trkpt><trkpt lat="45.4597433" lon="11.1996167"><ele>194.0</ele><time>2026-04-12T12:36:06.836Z</time></trkpt><trkpt lat="45.4596167" lon="11.19959"><ele>192.5</ele><time>2026-04-12T12:36:07.836Z</time></trkpt><trkpt lat="45.4594983" lon="11.199585"><ele>191.0</ele><time>2026-04-12T12:36:08.836Z</time></trkpt><trkpt lat="45.4593767" lon="11.19959"><ele>189.5</ele><time>2026-04-12T12:36:09.836Z</time></trkpt><trkpt lat="45.4592633" lon="11.1995983"><ele>188.0</ele><time>2026-04-12T12:36:10.836Z</time></trkpt><trkpt lat="45.4591433" lon="11.19961"><ele>188.0</ele><time>2026-04-12T12:36:11.836Z</time></trkpt><trkpt lat="45.4590233" lon="11.1996017"><ele>188.0</ele><time>2026-04-12T12:36:12.836Z</time></trkpt><trkpt lat="45.4589267" lon="11.19959"><ele>188.0</ele><time>2026-04-12T12:36:13.836Z</time></trkpt><trkpt lat="45.4588533" lon="11.19957"><ele>188.0</ele><time>2026-04-12T12:36:14.836Z</time></trkpt><trkpt lat="45.4587583" lon="11.1995517"><ele>188.0</ele><time>2026-04-12T12:36:16.836Z</time></trkpt><trkpt lat="45.4587017" lon="11.1995967"><ele>188.0</ele><time>2026-04-12T12:36:18.836Z</time></trkpt><trkpt lat="45.4588033" lon="11.1996733"><ele>188.0</ele><time>2026-04-12T12:36:20.836Z</time></trkpt><trkpt lat="45.4588767" lon="11.1996967"><ele>188.0</ele><time>2026-04-12T12:36:21.836Z</time></trkpt><trkpt lat="45.458965" lon="11.1997217"><ele>188.0</ele><time>2026-04-12T12:36:22.836Z</time></trkpt><trkpt lat="45.4590633" lon="11.1997483"><ele>188.0</ele><time>2026-04-12T12:36:23.836Z</time></trkpt><trkpt lat="45.459165" lon="11.1997717"><ele>188.0</ele><time>2026-04-12T12:36:24.836Z</time></trkpt><trkpt lat="45.4592617" lon="11.1997917"><ele>188.0</ele><time>2026-04-12T12:36:25.836Z</time></trkpt><trkpt lat="45.45936" lon="11.1998267"><ele>188.0</ele><time>2026-04-12T12:36:26.836Z</time></trkpt><trkpt lat="45.4594633" lon="11.19986"><ele>188.0</ele><time>2026-04-12T12:36:27.836Z</time></trkpt><trkpt lat="45.45956" lon="11.1998933"><ele>188.0</ele><time>2026-04-12T12:36:28.836Z</time></trkpt><trkpt lat="45.459655" lon="11.199965"><ele>185.2</ele><time>2026-04-12T12:36:29.836Z</time></trkpt><trkpt lat="45.459735" lon="11.2000417"><ele>182.4</ele><time>2026-04-12T12:36:30.836Z</time></trkpt><trkpt lat="45.459815" lon="11.20014"><ele>179.6</ele><time>2026-04-12T12:36:31.836Z</time></trkpt><trkpt lat="45.4598883" lon="11.2002433"><ele>176.79999999999998</ele><time>2026-04-12T12:36:32.836Z</time></trkpt><trkpt lat="45.45996" lon="11.200385"><ele>174.0</ele><time>2026-04-12T12:36:33.836Z</time></trkpt><trkpt lat="45.4600333" lon="11.2005167"><ele>174.0</ele><time>2026-04-12T12:36:34.836Z</time></trkpt><trkpt lat="45.4601067" lon="11.200655"><ele>174.0</ele><time>2026-04-12T12:36:35.836Z</time></trkpt><trkpt lat="45.4601683" lon="11.2007983"><ele>174.0</ele><time>2026-04-12T12:36:36.836Z</time></trkpt><trkpt lat="45.4602333" lon="11.2009233"><ele>174.0</ele><time>2026-04-12T12:36:37.836Z</time></trkpt><trkpt lat="45.460295" lon="11.2010317"><ele>174.0</ele><time>2026-04-12T12:36:38.836Z</time></trkpt><trkpt lat="45.4603583" lon="11.2011283"><ele>172.39999999999998</ele><time>2026-04-12T12:36:39.836Z</time></trkpt><trkpt lat="45.46044" lon="11.201195"><ele>170.8</ele><time>2026-04-12T12:36:40.836Z</time></trkpt><trkpt lat="45.460535" lon="11.20125"><ele>169.2</ele><time>2026-04-12T12:36:41.836Z</time></trkpt><trkpt lat="45.460635" lon="11.2012833"><ele>167.60000000000002</ele><time>2026-04-12T12:36:42.836Z</time></trkpt><trkpt lat="45.4607417" lon="11.2013083"><ele>166.0</ele><time>2026-04-12T12:36:43.836Z</time></trkpt><trkpt lat="45.4608567" lon="11.20134"><ele>166.0</ele><time>2026-04-12T12:36:44.836Z</time></trkpt><trkpt lat="45.4609617" lon="11.2013817"><ele>166.0</ele><time>2026-04-12T12:36:45.836Z</time></trkpt><trkpt lat="45.4610733" lon="11.20142"><ele>166.0</ele><time>2026-04-12T12:36:46.836Z</time></trkpt><trkpt lat="45.4611833" lon="11.2014583"><ele>166.0</ele><time>2026-04-12T12:36:47.836Z</time></trkpt><trkpt lat="45.4612933" lon="11.2014933"><ele>162.0</ele><time>2026-04-12T12:36:48.836Z</time></trkpt><trkpt lat="45.4614017" lon="11.201525"><ele>158.0</ele><time>2026-04-12T12:36:49.836Z</time></trkpt><trkpt lat="45.46151" lon="11.2015633"><ele>154.0</ele><time>2026-04-12T12:36:50.836Z</time></trkpt><trkpt lat="45.46161" lon="11.2016033"><ele>150.0</ele><time>2026-04-12T12:36:51.836Z</time></trkpt><trkpt lat="45.4617067" lon="11.2016483"><ele>146.0</ele><time>2026-04-12T12:36:52.836Z</time></trkpt><trkpt lat="45.4618083" lon="11.2016867"><ele>146.0</ele><time>2026-04-12T12:36:53.836Z</time></trkpt><trkpt lat="45.4619117" lon="11.201725"><ele>146.0</ele><time>2026-04-12T12:36:54.836Z</time></trkpt><trkpt lat="45.4620133" lon="11.2017617"><ele>146.0</ele><time>2026-04-12T12:36:55.836Z</time></trkpt><trkpt lat="45.46212" lon="11.2017867"><ele>146.0</ele><time>2026-04-12T12:36:56.836Z</time></trkpt><trkpt lat="45.4622267" lon="11.2018"><ele>146.0</ele><time>2026-04-12T12:36:57.836Z</time></trkpt><trkpt lat="45.4623283" lon="11.2018117"><ele>147.0</ele><time>2026-04-12T12:36:58.836Z</time></trkpt><trkpt lat="45.4624433" lon="11.2018217"><ele>148.0</ele><time>2026-04-12T12:36:59.836Z</time></trkpt><trkpt lat="45.4625617" lon="11.2018267"><ele>149.0</ele><time>2026-04-12T12:37:00.836Z</time></trkpt><trkpt lat="45.46268" lon="11.2018267"><ele>150.0</ele><time>2026-04-12T12:37:01.836Z</time></trkpt><trkpt lat="45.4627967" lon="11.2018333"><ele>150.0</ele><time>2026-04-12T12:37:02.836Z</time></trkpt><trkpt lat="45.4628967" lon="11.2018433"><ele>150.0</ele><time>2026-04-12T12:37:03.836Z</time></trkpt><trkpt lat="45.463005" lon="11.2018483"><ele>150.0</ele><time>2026-04-12T12:37:04.836Z</time></trkpt><trkpt lat="45.46311" lon="11.20186"><ele>150.0</ele><time>2026-04-12T12:37:05.836Z</time></trkpt><trkpt lat="45.4632217" lon="11.20187"><ele>150.0</ele><time>2026-04-12T12:37:06.835Z</time></trkpt><trkpt lat="45.4633283" lon="11.2018733"><ele>150.0</ele><time>2026-04-12T12:37:07.836Z</time></trkpt><trkpt lat="45.4634383" lon="11.201875"><ele>150.0</ele><time>2026-04-12T12:37:08.836Z</time></trkpt><trkpt lat="45.46355" lon="11.201875"><ele>150.0</ele><time>2026-04-12T12:37:09.835Z</time></trkpt><trkpt lat="45.4636517" lon="11.2018933"><ele>150.0</ele><time>2026-04-12T12:37:10.836Z</time></trkpt><trkpt lat="45.46374" lon="11.20191"><ele>150.0</ele><time>2026-04-12T12:37:11.836Z</time></trkpt><trkpt lat="45.4638067" lon="11.2019233"><ele>150.0</ele><time>2026-04-12T12:37:12.836Z</time></trkpt><trkpt lat="45.4638917" lon="11.20195"><ele>150.0</ele><time>2026-04-12T12:37:14.836Z</time></trkpt><trkpt lat="45.4638633" lon="11.20204"><ele>150.0</ele><time>2026-04-12T12:37:17.836Z</time></trkpt><trkpt lat="45.4637767" lon="11.202035"><ele>150.0</ele><time>2026-04-12T12:37:19.836Z</time></trkpt><trkpt lat="45.4636483" lon="11.2019983"><ele>150.0</ele><time>2026-04-12T12:37:21.836Z</time></trkpt><trkpt lat="45.4635667" lon="11.2020117"><ele>150.0</ele><time>2026-04-12T12:37:22.836Z</time></trkpt><trkpt lat="45.4634783" lon="11.202025"><ele>150.0</ele><time>2026-04-12T12:37:23.836Z</time></trkpt><trkpt lat="45.4633733" lon="11.2020483"><ele>150.0</ele><time>2026-04-12T12:37:24.836Z</time></trkpt><trkpt lat="45.4632583" lon="11.2020683"><ele>150.0</ele><time>2026-04-12T12:37:25.836Z</time></trkpt><trkpt lat="45.4631483" lon="11.2020917"><ele>150.0</ele><time>2026-04-12T12:37:26.836Z</time></trkpt><trkpt lat="45.46304" lon="11.2021033"><ele>150.0</ele><time>2026-04-12T12:37:27.836Z</time></trkpt><trkpt lat="45.4629317" lon="11.20213"><ele>150.0</ele><time>2026-04-12T12:37:28.836Z</time></trkpt><trkpt lat="45.462815" lon="11.2021517"><ele>150.0</ele><time>2026-04-12T12:37:29.836Z</time></trkpt><trkpt lat="45.4626983" lon="11.2021617"><ele>150.0</ele><time>2026-04-12T12:37:30.836Z</time></trkpt><trkpt lat="45.4625933" lon="11.20219"><ele>150.0</ele><time>2026-04-12T12:37:31.836Z</time></trkpt><trkpt lat="45.4624833" lon="11.2022167"><ele>150.0</ele><time>2026-04-12T12:37:32.836Z</time></trkpt><trkpt lat="45.462375" lon="11.2022383"><ele>150.0</ele><time>2026-04-12T12:37:33.836Z</time></trkpt><trkpt lat="45.4622567" lon="11.2022567"><ele>150.0</ele><time>2026-04-12T12:37:34.836Z</time></trkpt><trkpt lat="45.46213" lon="11.202265"><ele>149.0</ele><time>2026-04-12T12:37:35.836Z</time></trkpt><trkpt lat="45.4620017" lon="11.2022717"><ele>148.0</ele><time>2026-04-12T12:37:36.836Z</time></trkpt><trkpt lat="45.4618783" lon="11.20229"><ele>147.0</ele><time>2026-04-12T12:37:37.836Z</time></trkpt><trkpt lat="45.4617633" lon="11.2023133"><ele>146.0</ele><time>2026-04-12T12:37:38.835Z</time></trkpt><trkpt lat="45.46165" lon="11.20234"><ele>140.0</ele><time>2026-04-12T12:37:39.836Z</time></trkpt><trkpt lat="45.4615267" lon="11.2023633"><ele>134.0</ele><time>2026-04-12T12:37:40.836Z</time></trkpt><trkpt lat="45.461405" lon="11.2023817"><ele>128.0</ele><time>2026-04-12T12:37:41.836Z</time></trkpt><trkpt lat="45.461285" lon="11.2023817"><ele>122.0</ele><time>2026-04-12T12:37:42.836Z</time></trkpt><trkpt lat="45.4611683" lon="11.2024017"><ele>121.6</ele><time>2026-04-12T12:37:43.836Z</time></trkpt><trkpt lat="45.4610483" lon="11.2024433"><ele>121.19999999999999</ele><time>2026-04-12T12:37:44.836Z</time></trkpt><trkpt lat="45.460945" lon="11.2025067"><ele>120.8</ele><time>2026-04-12T12:37:45.836Z</time></trkpt><trkpt lat="45.4608433" lon="11.20257"><ele>120.4</ele><time>2026-04-12T12:37:46.836Z</time></trkpt><trkpt lat="45.4607467" lon="11.202615"><ele>120.0</ele><time>2026-04-12T12:37:47.836Z</time></trkpt><trkpt lat="45.4606617" lon="11.20264"><ele>120.0</ele><time>2026-04-12T12:37:48.836Z</time></trkpt><trkpt lat="45.4605833" lon="11.2026283"><ele>120.0</ele><time>2026-04-12T12:37:49.836Z</time></trkpt><trkpt lat="45.4604733" lon="11.2026033"><ele>120.0</ele><time>2026-04-12T12:37:51.836Z</time></trkpt><trkpt lat="45.4604033" lon="11.202615"><ele>120.0</ele><time>2026-04-12T12:37:53.836Z</time></trkpt><trkpt lat="45.4603767" lon="11.2027067"><ele>120.0</ele><time>2026-04-12T12:37:55.836Z</time></trkpt><trkpt lat="45.4604367" lon="11.202735"><ele>120.0</ele><time>2026-04-12T12:37:56.836Z</time></trkpt><trkpt lat="45.4605067" lon="11.2027467"><ele>120.0</ele><time>2026-04-12T12:37:57.836Z</time></trkpt><trkpt lat="45.4605867" lon="11.202755"><ele>120.0</ele><time>2026-04-12T12:37:58.836Z</time></trkpt><trkpt lat="45.460675" lon="11.2027583"><ele>120.0</ele><time>2026-04-12T12:37:59.836Z</time></trkpt><trkpt lat="45.4607617" lon="11.2027583"><ele>120.0</ele><time>2026-04-12T12:38:00.836Z</time></trkpt><trkpt lat="45.460845" lon="11.2027483"><ele>120.0</ele><time>2026-04-12T12:38:01.836Z</time></trkpt><trkpt lat="45.46093" lon="11.202735"><ele>120.0</ele><time>2026-04-12T12:38:02.836Z</time></trkpt><trkpt lat="45.4610167" lon="11.2027167"><ele>120.0</ele><time>2026-04-12T12:38:03.836Z</time></trkpt><trkpt lat="45.461115" lon="11.2027033"><ele>120.0</ele><time>2026-04-12T12:38:04.836Z</time></trkpt><trkpt lat="45.4612017" lon="11.202715"><ele>120.0</ele><time>2026-04-12T12:38:05.836Z</time></trkpt><trkpt lat="45.461295" lon="11.2027467"><ele>120.0</ele><time>2026-04-12T12:38:06.836Z</time></trkpt><trkpt lat="45.4613833" lon="11.20278"><ele>120.0</ele><time>2026-04-12T12:38:07.836Z</time></trkpt><trkpt lat="45.4614667" lon="11.20282"><ele>120.4</ele><time>2026-04-12T12:38:08.836Z</time></trkpt><trkpt lat="45.461555" lon="11.2028483"><ele>120.8</ele><time>2026-04-12T12:38:09.836Z</time></trkpt><trkpt lat="45.4616383" lon="11.2028767"><ele>121.19999999999999</ele><time>2026-04-12T12:38:10.836Z</time></trkpt><trkpt lat="45.461725" lon="11.2029017"><ele>121.6</ele><time>2026-04-12T12:38:11.836Z</time></trkpt><trkpt lat="45.4618283" lon="11.2029167"><ele>122.0</ele><time>2026-04-12T12:38:12.836Z</time></trkpt><trkpt lat="45.4619283" lon="11.2029283"><ele>122.0</ele><time>2026-04-12T12:38:13.836Z</time></trkpt><trkpt lat="45.4620283" lon="11.202945"><ele>121.99999999999999</ele><time>2026-04-12T12:38:14.836Z</time></trkpt><trkpt lat="45.4621267" lon="11.20295"><ele>121.99999999999999</ele><time>2026-04-12T12:38:15.836Z</time></trkpt><trkpt lat="45.46223" lon="11.2029633"><ele>122.0</ele><time>2026-04-12T12:38:16.836Z</time></trkpt><trkpt lat="45.4623333" lon="11.2029767"><ele>122.0</ele><time>2026-04-12T12:38:17.836Z</time></trkpt><trkpt lat="45.46244" lon="11.2029817"><ele>121.6</ele><time>2026-04-12T12:38:18.836Z</time></trkpt><trkpt lat="45.4625433" lon="11.2029883"><ele>121.19999999999999</ele><time>2026-04-12T12:38:19.836Z</time></trkpt><trkpt lat="45.4626467" lon="11.203"><ele>120.8</ele><time>2026-04-12T12:38:20.836Z</time></trkpt><trkpt lat="45.4627433" lon="11.2030083"><ele>120.4</ele><time>2026-04-12T12:38:21.836Z</time></trkpt><trkpt lat="45.4628417" lon="11.20301"><ele>120.0</ele><time>2026-04-12T12:38:22.836Z</time></trkpt><trkpt lat="45.462935" lon="11.2030167"><ele>119.66666666666667</ele><time>2026-04-12T12:38:23.836Z</time></trkpt><trkpt lat="45.4630217" lon="11.20303"><ele>119.33333333333334</ele><time>2026-04-12T12:38:24.836Z</time></trkpt><trkpt lat="45.4631017" lon="11.20307"><ele>119.0</ele><time>2026-04-12T12:38:25.836Z</time></trkpt><trkpt lat="45.4631833" lon="11.2031067"><ele>118.66666666666667</ele><time>2026-04-12T12:38:26.836Z</time></trkpt><trkpt lat="45.4632633" lon="11.2031533"><ele>118.33333333333334</ele><time>2026-04-12T12:38:27.836Z</time></trkpt><trkpt lat="45.4633333" lon="11.2032033"><ele>118.0</ele><time>2026-04-12T12:38:28.836Z</time></trkpt><trkpt lat="45.463395" lon="11.2032517"><ele>113.83333333333334</ele><time>2026-04-12T12:38:29.836Z</time></trkpt><trkpt lat="45.463445" lon="11.2033083"><ele>109.66666666666667</ele><time>2026-04-12T12:38:30.836Z</time></trkpt><trkpt lat="45.4634967" lon="11.2033683"><ele>105.5</ele><time>2026-04-12T12:38:31.836Z</time></trkpt><trkpt lat="45.463565" lon="11.203445"><ele>101.33333333333334</ele><time>2026-04-12T12:38:33.836Z</time></trkpt><trkpt lat="45.463615" lon="11.20357"><ele>97.16666666666667</ele><time>2026-04-12T12:38:42.836Z</time></trkpt><trkpt lat="45.463635" lon="11.2036683"><ele>93.0</ele><time>2026-04-12T12:38:44.836Z</time></trkpt><trkpt lat="45.463635" lon="11.2037767"><ele>93.0</ele><time>2026-04-12T12:38:46.836Z</time></trkpt><trkpt lat="45.46363" lon="11.2039033"><ele>93.0</ele><time>2026-04-12T12:38:48.836Z</time></trkpt><trkpt lat="45.46363" lon="11.204065"><ele>93.0</ele><time>2026-04-12T12:38:50.836Z</time></trkpt><trkpt lat="45.46363" lon="11.204235"><ele>93.0</ele><time>2026-04-12T12:38:52.836Z</time></trkpt><trkpt lat="45.4636283" lon="11.204385"><ele>93.0</ele><time>2026-04-12T12:38:54.836Z</time></trkpt><trkpt lat="45.4636283" lon="11.2044783"><ele>91.0</ele><time>2026-04-12T12:38:56.836Z</time></trkpt><trkpt lat="45.4636467" lon="11.2045683"><ele>89.0</ele><time>2026-04-12T12:39:01.835Z</time></trkpt><trkpt lat="45.463685" lon="11.2046767"><ele>87.0</ele><time>2026-04-12T12:39:22.836Z</time></trkpt><trkpt lat="45.463735" lon="11.2047817"><ele>85.0</ele><time>2026-04-12T12:39:24.836Z</time></trkpt><trkpt lat="45.4638233" lon="11.2048833"><ele>83.0</ele><time>2026-04-12T12:39:26.836Z</time></trkpt><trkpt lat="45.4639217" lon="11.20496"><ele>83.0</ele><time>2026-04-12T12:39:28.836Z</time></trkpt><trkpt lat="45.4640267" lon="11.2050233"><ele>83.0</ele><time>2026-04-12T12:39:30.836Z</time></trkpt><trkpt lat="45.4641083" lon="11.20508"><ele>83.0</ele><time>2026-04-12T12:39:32.836Z</time></trkpt><trkpt lat="45.4641717" lon="11.205115"><ele>83.0</ele><time>2026-04-12T12:39:34.836Z</time></trkpt><trkpt lat="45.4641867" lon="11.20521"><ele>83.0</ele><time>2026-04-12T12:39:59.836Z</time></trkpt><trkpt lat="45.464245" lon="11.2052867"><ele>83.0</ele><time>2026-04-12T12:40:02.836Z</time></trkpt><trkpt lat="45.4643067" lon="11.2053783"><ele>83.0</ele><time>2026-04-12T12:40:04.835Z</time></trkpt><trkpt lat="45.4643767" lon="11.2054883"><ele>83.0</ele><time>2026-04-12T12:40:06.836Z</time></trkpt><trkpt lat="45.4644367" lon="11.205625"><ele>83.0</ele><time>2026-04-12T12:40:08.836Z</time></trkpt><trkpt lat="45.4645083" lon="11.2057517"><ele>83.0</ele><time>2026-04-12T12:40:10.836Z</time></trkpt><trkpt lat="45.4645933" lon="11.20586"><ele>83.0</ele><time>2026-04-12T12:40:12.836Z</time></trkpt><trkpt lat="45.4646533" lon="11.20595"><ele>82.80000000000001</ele><time>2026-04-12T12:40:14.836Z</time></trkpt><trkpt lat="45.4646983" lon="11.2060383"><ele>82.6</ele><time>2026-04-12T12:40:19.836Z</time></trkpt><trkpt lat="45.4647433" lon="11.2061017"><ele>82.4</ele><time>2026-04-12T12:40:21.836Z</time></trkpt><trkpt lat="45.4648283" lon="11.2061833"><ele>82.19999999999999</ele><time>2026-04-12T12:40:23.836Z</time></trkpt><trkpt lat="45.464955" lon="11.2062617"><ele>82.0</ele><time>2026-04-12T12:40:25.836Z</time></trkpt><trkpt lat="45.465035" lon="11.2063033"><ele>82.0</ele><time>2026-04-12T12:40:26.836Z</time></trkpt><trkpt lat="45.4651267" lon="11.2063383"><ele>82.0</ele><time>2026-04-12T12:40:27.836Z</time></trkpt><trkpt lat="45.4652267" lon="11.2063567"><ele>82.0</ele><time>2026-04-12T12:40:28.836Z</time></trkpt><trkpt lat="45.4653233" lon="11.20637"><ele>82.0</ele><time>2026-04-12T12:40:29.836Z</time></trkpt><trkpt lat="45.4654417" lon="11.2063833"><ele>82.0</ele><time>2026-04-12T12:40:30.836Z</time></trkpt><trkpt lat="45.4655583" lon="11.2063833"><ele>82.25</ele><time>2026-04-12T12:40:31.836Z</time></trkpt><trkpt lat="45.4656783" lon="11.2063933"><ele>82.5</ele><time>2026-04-12T12:40:32.836Z</time></trkpt><trkpt lat="45.465805" lon="11.2063917"><ele>82.75</ele><time>2026-04-12T12:40:33.836Z</time></trkpt><trkpt lat="45.46593" lon="11.20638"><ele>83.0</ele><time>2026-04-12T12:40:34.836Z</time></trkpt><trkpt lat="45.466055" lon="11.206365"><ele>83.0</ele><time>2026-04-12T12:40:35.836Z</time></trkpt><trkpt lat="45.4661767" lon="11.2063667"><ele>83.0</ele><time>2026-04-12T12:40:36.836Z</time></trkpt><trkpt lat="45.4663033" lon="11.2063667"><ele>83.0</ele><time>2026-04-12T12:40:37.836Z</time></trkpt><trkpt lat="45.46643" lon="11.2063683"><ele>83.0</ele><time>2026-04-12T12:40:38.836Z</time></trkpt><trkpt lat="45.46655" lon="11.2063717"><ele>83.0</ele><time>2026-04-12T12:40:39.836Z</time></trkpt><trkpt lat="45.46667" lon="11.2063867"><ele>83.0</ele><time>2026-04-12T12:40:40.836Z</time></trkpt><trkpt lat="45.4667817" lon="11.20641"><ele>83.0</ele><time>2026-04-12T12:40:41.836Z</time></trkpt><trkpt lat="45.4669083" lon="11.2064367"><ele>83.0</ele><time>2026-04-12T12:40:42.836Z</time></trkpt><trkpt lat="45.4670283" lon="11.20647"><ele>83.25</ele><time>2026-04-12T12:40:43.836Z</time></trkpt><trkpt lat="45.4671467" lon="11.2065283"><ele>83.5</ele><time>2026-04-12T12:40:44.836Z</time></trkpt><trkpt lat="45.4672667" lon="11.20658"><ele>83.75</ele><time>2026-04-12T12:40:45.836Z</time></trkpt><trkpt lat="45.46739" lon="11.2066283"><ele>84.0</ele><time>2026-04-12T12:40:46.836Z</time></trkpt><trkpt lat="45.4675167" lon="11.206675"><ele>84.0</ele><time>2026-04-12T12:40:47.836Z</time></trkpt><trkpt lat="45.4676383" lon="11.2067317"><ele>84.0</ele><time>2026-04-12T12:40:48.836Z</time></trkpt><trkpt lat="45.4677633" lon="11.2067883"><ele>84.0</ele><time>2026-04-12T12:40:49.836Z</time></trkpt><trkpt lat="45.46788" lon="11.2068483"><ele>84.0</ele><time>2026-04-12T12:40:50.836Z</time></trkpt><trkpt lat="45.4679967" lon="11.20691"><ele>84.75</ele><time>2026-04-12T12:40:51.835Z</time></trkpt><trkpt lat="45.46812" lon="11.20695"><ele>85.5</ele><time>2026-04-12T12:40:52.836Z</time></trkpt><trkpt lat="45.4682383" lon="11.2069867"><ele>86.25</ele><time>2026-04-12T12:40:53.836Z</time></trkpt><trkpt lat="45.4683567" lon="11.2070217"><ele>87.0</ele><time>2026-04-12T12:40:54.836Z</time></trkpt><trkpt lat="45.4684717" lon="11.2070533"><ele>87.0</ele><time>2026-04-12T12:40:55.836Z</time></trkpt><trkpt lat="45.468585" lon="11.2070717"><ele>87.0</ele><time>2026-04-12T12:40:56.836Z</time></trkpt><trkpt lat="45.4687067" lon="11.2070667"><ele>87.0</ele><time>2026-04-12T12:40:57.835Z</time></trkpt><trkpt lat="45.468825" lon="11.20704"><ele>87.0</ele><time>2026-04-12T12:40:58.836Z</time></trkpt><trkpt lat="45.4689483" lon="11.2070167"><ele>87.75</ele><time>2026-04-12T12:40:59.836Z</time></trkpt><trkpt lat="45.469065" lon="11.2069817"><ele>88.5</ele><time>2026-04-12T12:41:00.836Z</time></trkpt><trkpt lat="45.4691767" lon="11.20693"><ele>89.25</ele><time>2026-04-12T12:41:01.836Z</time></trkpt><trkpt lat="45.4692733" lon="11.20687"><ele>90.0</ele><time>2026-04-12T12:41:02.836Z</time></trkpt><trkpt lat="45.4693667" lon="11.2067883"><ele>90.0</ele><time>2026-04-12T12:41:03.836Z</time></trkpt><trkpt lat="45.4694533" lon="11.2067083"><ele>90.0</ele><time>2026-04-12T12:41:04.836Z</time></trkpt><trkpt lat="45.4695383" lon="11.2066217"><ele>90.0</ele><time>2026-04-12T12:41:05.836Z</time></trkpt><trkpt lat="45.4696167" lon="11.206535"><ele>90.0</ele><time>2026-04-12T12:41:06.836Z</time></trkpt><trkpt lat="45.4696917" lon="11.2064417"><ele>90.0</ele><time>2026-04-12T12:41:07.836Z</time></trkpt><trkpt lat="45.4697683" lon="11.206345"><ele>90.8</ele><time>2026-04-12T12:41:08.836Z</time></trkpt><trkpt lat="45.4698433" lon="11.2062517"><ele>91.6</ele><time>2026-04-12T12:41:09.836Z</time></trkpt><trkpt lat="45.4699217" lon="11.2061467"><ele>92.4</ele><time>2026-04-12T12:41:10.836Z</time></trkpt><trkpt lat="45.4699967" lon="11.2060267"><ele>93.2</ele><time>2026-04-12T12:41:11.836Z</time></trkpt><trkpt lat="45.4700633" lon="11.2059217"><ele>94.0</ele><time>2026-04-12T12:41:12.836Z</time></trkpt><trkpt lat="45.4701333" lon="11.2058167"><ele>94.0</ele><time>2026-04-12T12:41:13.836Z</time></trkpt><trkpt lat="45.4702017" lon="11.2057183"><ele>94.0</ele><time>2026-04-12T12:41:14.836Z</time></trkpt><trkpt lat="45.47027" lon="11.205625"><ele>94.0</ele><time>2026-04-12T12:41:15.836Z</time></trkpt><trkpt lat="45.47033" lon="11.20555"><ele>94.0</ele><time>2026-04-12T12:41:16.836Z</time></trkpt><trkpt lat="45.4703883" lon="11.205455"><ele>94.0</ele><time>2026-04-12T12:41:17.836Z</time></trkpt><trkpt lat="45.4704617" lon="11.2053767"><ele>94.2</ele><time>2026-04-12T12:41:18.836Z</time></trkpt><trkpt lat="45.4705317" lon="11.205305"><ele>94.4</ele><time>2026-04-12T12:41:19.836Z</time></trkpt><trkpt lat="45.4705917" lon="11.2052267"><ele>94.6</ele><time>2026-04-12T12:41:20.836Z</time></trkpt><trkpt lat="45.470655" lon="11.205125"><ele>94.8</ele><time>2026-04-12T12:41:21.836Z</time></trkpt><trkpt lat="45.47072" lon="11.20502"><ele>95.0</ele><time>2026-04-12T12:41:22.836Z</time></trkpt><trkpt lat="45.4707883" lon="11.204905"><ele>95.0</ele><time>2026-04-12T12:41:23.836Z</time></trkpt><trkpt lat="45.47085" lon="11.2048017"><ele>95.0</ele><time>2026-04-12T12:41:24.836Z</time></trkpt><trkpt lat="45.4709183" lon="11.204695"><ele>95.0</ele><time>2026-04-12T12:41:25.836Z</time></trkpt><trkpt lat="45.4709933" lon="11.20462"><ele>95.0</ele><time>2026-04-12T12:41:26.836Z</time></trkpt><trkpt lat="45.4710617" lon="11.2045333"><ele>95.0</ele><time>2026-04-12T12:41:27.836Z</time></trkpt><trkpt lat="45.4711367" lon="11.204455"><ele>95.0</ele><time>2026-04-12T12:41:28.836Z</time></trkpt><trkpt lat="45.4712083" lon="11.2043783"><ele>95.0</ele><time>2026-04-12T12:41:29.836Z</time></trkpt><trkpt lat="45.471265" lon="11.2043283"><ele>95.0</ele><time>2026-04-12T12:41:30.836Z</time></trkpt><trkpt lat="45.4713183" lon="11.2042783"><ele>95.0</ele><time>2026-04-12T12:41:31.836Z</time></trkpt><trkpt lat="45.4714017" lon="11.20421"><ele>95.0</ele><time>2026-04-12T12:41:33.836Z</time></trkpt><trkpt lat="45.471465" lon="11.2041817"><ele>95.0</ele><time>2026-04-12T12:41:35.836Z</time></trkpt><trkpt lat="45.4715217" lon="11.204135"><ele>95.0</ele><time>2026-04-12T12:41:39.836Z</time></trkpt><trkpt lat="45.47158" lon="11.20408"><ele>95.33333333333334</ele><time>2026-04-12T12:41:49.836Z</time></trkpt><trkpt lat="45.47164" lon="11.204005"><ele>95.66666666666667</ele><time>2026-04-12T12:41:51.836Z</time></trkpt><trkpt lat="45.4717017" lon="11.2039067"><ele>96.0</ele><time>2026-04-12T12:41:53.836Z</time></trkpt><trkpt lat="45.4717733" lon="11.203845"><ele>96.33333333333334</ele><time>2026-04-12T12:41:55.836Z</time></trkpt><trkpt lat="45.4718517" lon="11.2038"><ele>96.66666666666667</ele><time>2026-04-12T12:41:58.835Z</time></trkpt><trkpt lat="45.47188" lon="11.2037183"><ele>97.0</ele><time>2026-04-12T12:42:01.836Z</time></trkpt><trkpt lat="45.4718333" lon="11.203615"><ele>97.0</ele><time>2026-04-12T12:42:04.836Z</time></trkpt><trkpt lat="45.4719" lon="11.2036867"><ele>97.0</ele><time>2026-04-12T12:42:31.836Z</time></trkpt></trkseg></trk></gpx>